[[{"header":{"parameterUnit":"m.s-1","parameterCategory":1,"la1":31.0,"la2":29.5877,"lo1":-88.7671,"lo2":-86.6584,"dy":0.0162,"dx":0.0185,"nx":115,"ny":88,"refTime":"2024-06-07T12:00:00:Z","depth":0,"parameterNumber":2,"parameterNumberName":"U-component_of_WINDS"},"data":[0.0,0.0,0.0,0.0,0.0,0.0,0.0,0.0,0.0,0.0,0.0,0.0,0.0,0.0,0.0,0.0,0.0,0.0,0.0,0.0,0.0,0.0,0.0,0.0,0.0,0.0,0.0,0.0,0.0,0.0,0.0,0.0,0.0,0.0,0.0,0.0,0.0,0.0,0.0,0.0,0.0,0.0,0.0,0.0,0.0,0.0,0.0,0.0,0.0,0.0,0.0,0.0,0.0,0.0,0.0,0.0,0.0,0.0,0.0,0.0,0.0,0.0,0.0,0.0,0.0,0.0,0.0,0.0,0.0,0.0,0.0,0.0,0.0,0.0,0.0,0.0,0.0,0.0,0.0,0.0,0.0,0.0,0.0,0.0,0.0,0.0,0.0,0.0,0.0,0.0,0.0,0.0,0.0,0.0,0.0,0.0,0.0,0.0,0.0,0.0,0.0,0.0,0.0,0.0,0.0,0.0,0.0,0.0,0.0,0.0,0.0,0.0,0.0,0.0,0.0,0.0,0.0,0.0,0.0,0.0,0.0,0.0,0.0,0.0,0.0,0.0,0.0,0.0,0.0,0.0,0.0,0.0,0.0,0.0,0.0,0.0,0.0,0.0,0.0,0.0,0.0,0.0,0.0,0.0,0.0,0.0,0.0,0.0,0.0,0.0,0.0,0.0,0.0,0.0,0.0,0.0,0.0,0.0,0.0,0.0,0.0,0.0,0.0,0.0,0.0,0.0,0.0,0.0,0.0,0.0,0.0,0.0,0.0,0.0,0.0,0.0,0.0,0.0,0.0,0.0,0.0,0.0,0.0,0.0,0.0,0.0,0.0,0.0,0.0,0.0,0.0,0.0,0.0,0.0,0.0,0.0,0.0,0.0,0.0,0.0,0.0,0.0,0.0,0.0,0.0,0.0,0.0,0.0,0.0,0.0,0.0,0.0,0.0,0.0,0.0,0.0,0.0,0.0,0.0,0.0,0.0,0.0,0.0,0.0,0.0,0.0,0.0,0.0,0.0,0.0,0.0,0.0,0.0,0.0,0.0,0.0,0.0,0.0,0.0,0.0,0.0,0.0,0.0,0.0,0.0,0.0,0.0,0.0,0.0,0.0,0.0,0.0,0.0,0.0,0.0,0.0,0.0,0.0,0.0,0.0,0.0,0.0,0.0,0.0,0.0,0.0,0.0,0.0,0.0,0.0,0.0,0.0,0.0,0.0,0.0,0.0,0.0,0.0,0.0,0.0,0.0,0.0,0.0,0.0,0.0,0.0,0.0,0.0,0.0,0.0,0.0,0.0,0.0,0.0,0.0,0.0,0.0,0.0,0.0,0.0,0.0,0.0,0.0,0.0,0.0,0.0,0.0,0.0,0.0,0.0,0.0,0.0,0.0,0.0,0.0,0.0,0.0,0.0,0.0,0.0,0.0,0.0,0.0,0.0,0.0,0.0,0.0,0.0,0.0,0.0,0.0,0.0,0.0,0.0,0.0,0.0,0.0,0.0,0.0,0.0,0.0,0.0,0.0,0.0,0.0,0.0,0.0,0.0,0.0,0.0,0.0,0.0,0.0,0.0,0.0,0.0,0.0,0.0,0.0,0.0,0.0,0.0,0.0,0.0,0.0,0.0,0.0,0.0,0.0,0.0,0.0,0.0,0.0,0.0,0.0,0.0,0.0,0.0,0.0,0.0,0.0,0.0,0.0,0.0,0.0,0.0,0.0,0.0,0.0,0.0,0.0,0.0,0.0,0.0,0.0,0.0,0.0,0.0,0.0,0.0,0.0,0.0,0.0,0.0,0.0,0.0,0.0,0.0,0.0,0.0,0.0,0.0,0.0,0.0,0.0,0.0,0.0,0.0,0.0,0.0,0.0,0.0,0.0,0.0,0.0,0.0,0.0,0.0,0.0,0.0,0.0,0.0,0.0,0.0,0.0,0.0,0.0,0.0,0.0,0.0,0.0,0.0,0.0,0.0,0.0,0.0,0.0,0.0,0.0,0.0,0.0,0.0,0.0,0.0,0.0,0.0,0.0,0.0,0.0,0.0,0.0,0.0,0.0,0.0,0.0,0.0,0.0,0.0,0.0,0.0,0.0,0.0,0.0,0.0,0.0,0.0,0.0,0.0,0.0,0.0,0.0,0.0,0.0,0.0,0.0,0.0,0.0,0.0,0.0,0.0,0.0,0.0,0.0,0.0,0.0,0.0,0.0,0.0,0.0,0.0,0.0,0.0,0.0,0.0,0.0,0.0,0.0,0.0,0.0,0.0,0.0,0.0,0.0,0.0,0.0,0.0,0.0,0.0,0.0,0.0,0.0,0.0,0.0,0.0,0.0,0.0,0.0,0.0,0.0,0.0,0.0,0.0,0.0,0.0,0.0,0.0,0.0,0.0,0.0,0.0,0.0,0.0,0.0,0.0,0.0,0.0,0.0,0.0,0.0,0.0,0.0,0.0,0.0,0.0,0.0,0.0,0.0,0.0,0.0,0.0,0.0,0.0,0.0,0.0,0.0,0.0,0.0,0.0,0.0,0.0,0.0,0.0,0.0,0.0,0.0,0.0,0.0,0.0,0.0,0.0,0.0,0.0,0.0,0.0,0.0,0.0,0.0,0.0,0.0,0.0,0.0,0.0,0.0,0.0,0.0,0.0,0.0,0.0,0.0,0.0,0.0,0.0,0.0,0.0,0.0,0.0,0.0,0.0,0.0,0.0,0.0,0.0,0.0,0.0,0.0,0.0,0.0,0.0,0.0,0.0,0.0,0.0,0.0,0.0,0.0,0.0,0.0,0.0,0.0,0.0,0.0,0.0,0.0,0.0,0.0,0.0,0.0,0.0,0.0,0.0,0.0,0.0,0.0,0.0,0.0,0.0,0.0,0.0,0.0,0.0,0.0,0.0,0.0,0.0,0.0,0.0,0.0,0.0,0.0,0.0,0.0,0.0,0.0,0.0,0.0,0.0,0.0,0.0,0.0,0.0,0.0,0.0,0.0,0.0,0.0,0.0,0.0,0.0,0.0,0.0,0.0,0.0,0.0,0.0,0.0,0.0,0.0,0.0,0.0,0.0,0.0,0.0,0.0,0.0,0.0,0.0,0.0,0.0,0.0,0.0,0.0,0.0,0.0,0.0,0.0,0.0,0.0,0.0,0.0,0.0,0.0,0.0,0.0,0.0,0.0,0.0,0.0,0.0,0.0,0.0,0.0,0.0,0.0,0.0,0.0,0.0,0.0,0.0,0.0,0.0,0.0,0.0,0.0,0.0,0.0,0.0,0.0,0.0,0.0,0.0,0.0,0.0,0.0,0.0,0.0,0.0,0.0,0.0,0.0,0.0,0.0,0.0,0.0,0.0,0.0,0.0,0.0,0.0,0.0,0.0,0.0,0.0,0.0,0.0,0.0,0.0,0.0,0.0,0.0,0.0,0.0,0.0,0.0,0.0,0.0,0.0,0.0,0.0,0.0,0.0,0.0,0.0,0.0,0.0,0.0,0.0,0.0,0.0,0.0,0.0,0.0,0.0,0.0,0.0,0.0,0.0,0.0,0.0,0.0,0.0,0.0,0.0,0.0,0.0,0.0,0.0,0.0,0.0,0.0,0.0,0.0,0.0,0.0,0.0,0.0,0.0,0.0,0.0,0.0,0.0,0.0,0.0,0.0,0.0,0.0,0.0,0.0,0.0,0.0,0.0,0.0,0.0,0.0,0.0,0.0,0.0,0.0,0.0,0.0,0.0,0.0,0.0,0.0,0.0,0.0,0.0,0.0,0.0,0.0,0.0,0.0,0.0,0.0,0.0,0.0,0.0,0.0,0.0,0.0,0.0,0.0,0.0,0.0,0.0,0.0,0.0,0.0,0.0,0.0,0.0,0.0,0.0,0.0,0.0,0.0,0.0,0.0,0.0,0.0,0.0,0.0,0.0,0.0,0.0,0.0,0.0,0.0,0.0,0.0,0.0,0.0,0.0,0.0,0.0,0.0,0.0,0.0,0.0,0.0,0.0,0.0,0.0,0.0,0.0,0.0,0.0,0.0,0.0,0.0,0.0,0.0,0.0,0.0,0.0,0.0,0.0,0.0,0.0,0.0,0.0,0.0,0.0,0.0,0.0,0.0,0.0,0.0,0.0,0.0,0.0,0.0,0.0,0.0,0.0,0.0,0.0,0.0,0.0,0.0,0.0,0.0,0.0,0.0,0.0,0.0,0.0,0.0,0.0,0.0,0.0,0.0,0.0,0.0,0.0,0.0,0.0,0.0,0.0,0.0,0.0,0.0,0.0,0.0,0.0,0.0,0.0,-0.1828,0.0,0.0,0.0,0.0,0.0,0.0,0.0,0.0,0.0,0.0,0.0,0.0,0.0,0.0,0.0,0.0,0.0,0.0,0.0,0.0,0.0,0.0,0.0,0.0,0.0,0.0,0.0,0.0,0.0,0.0,0.0,0.0,0.0,0.0,0.0,0.0,0.0,0.0,0.0,0.0,0.0,0.0,0.0,0.0,0.0,0.0,0.0,0.0,0.0,0.0,0.0,0.0,0.0,0.0,0.0,0.0,0.0,0.0,0.0,0.0,0.0,0.0,0.0,0.0,0.0,0.0,0.0,0.0,0.0,0.0,0.0,0.0,0.0,0.0,0.0,0.0,0.0,0.0,0.0,0.0,0.0,0.0,0.0,0.0,0.0,0.0,0.0,0.0,0.0,0.0,0.0,0.0,0.0,0.0,0.0,0.0,0.0,0.0,0.0,0.0,0.0,0.0,0.0,0.0,0.0,0.0,0.0,0.0,0.0,0.0,-0.1759,-0.1803,-0.1803,-0.1803,-0.1803,0.0,0.0,0.0,0.0,0.0,0.0,0.0,0.0,0.0,0.0,0.0,0.0,0.0,0.0,0.0,0.0,0.0,0.0,0.0,0.0,0.0,0.0,0.0,0.0,0.0,0.0,0.0,0.0,0.0,0.0,0.0,0.0,0.0,0.0,0.0,0.0,0.0,0.0,0.0,0.0,0.0,0.0,0.0,0.0,0.0,0.0,0.0,0.0,0.0,0.0,0.0,0.0,0.0,0.0,0.0,0.0,0.0,0.0,0.0,0.0,0.0,0.0,0.0,0.0,0.0,0.0,0.0,0.0,0.0,0.0,0.0,0.0,0.0,0.0,0.0,0.0,0.0,0.0,0.0,0.0,0.0,0.0,0.0,0.0,0.0,0.0,0.0,0.0,0.0,0.0,0.0,0.0,0.0,0.0,0.0,0.0,0.0,0.0,0.0,0.0,0.0,0.0,0.0,0.0,0.0,0.0,0.0,0.0,0.0,0.0,0.0,0.0,-0.1762,-0.1762,-0.1809,0.0,0.0,0.0,0.0,0.0,0.0,0.0,0.0,0.0,0.0,0.0,0.0,0.0,0.0,0.0,0.0,0.0,0.0,0.0,0.0,0.0,0.0,0.0,0.0,0.0,0.0,0.0,0.0,0.0,0.0,0.0,0.0,0.0,0.0,0.0,0.0,0.0,0.0,0.0,0.0,0.0,0.0,0.0,0.0,0.0,0.0,0.0,0.0,0.0,0.0,0.0,0.0,0.0,0.0,0.0,0.0,0.0,0.0,0.0,0.0,0.0,0.0,0.0,0.0,0.0,0.0,0.0,0.0,0.0,0.0,0.0,0.0,0.0,0.0,0.0,0.0,0.0,0.0,0.0,0.0,0.0,0.0,0.0,0.0,0.0,0.0,0.0,0.0,0.0,0.0,0.0,0.0,0.0,0.0,0.0,0.0,0.0,0.0,0.0,0.0,0.0,0.0,0.0,0.0,0.0,0.0,0.0,0.0,0.0,0.0,-0.1613,-0.1613,-0.1613,0.0,-0.1775,0.0,0.0,0.0,0.0,0.0,0.0,0.0,0.0,0.0,0.0,0.0,0.0,0.0,0.0,0.0,0.0,0.0,0.0,0.0,0.0,0.0,0.0,0.0,0.0,0.0,0.0,0.0,0.0,0.0,0.0,0.0,0.0,0.0,0.0,0.0,0.0,0.0,0.0,0.0,0.0,0.0,0.0,0.0,0.0,0.0,0.0,0.0,0.0,0.0,0.0,0.0,0.0,0.0,0.0,0.0,0.0,0.0,0.0,0.0,0.0,0.0,0.0,0.0,0.0,0.0,0.0,0.0,0.0,0.0,0.0,0.0,0.0,0.0,0.0,0.0,0.0,0.0,0.0,0.0,0.0,0.0,0.0,0.0,0.0,0.0,0.0,0.0,0.0,0.0,0.0,0.0,0.0,0.0,0.0,0.0,0.0,0.0,0.0,0.0,0.0,0.0,0.0,0.0,0.0,0.0,0.0,0.0,0.0,0.0,0.0,0.0,-0.1477,-0.1433,-0.1502,0.0,0.0,0.0,0.0,0.0,0.0,0.0,0.0,0.0,0.0,0.0,0.0,0.0,0.0,0.0,0.0,0.0,0.0,0.0,0.0,0.0,0.0,0.0,0.0,0.0,0.0,0.0,0.0,0.0,0.0,0.0,0.0,0.0,0.0,0.0,0.0,0.0,0.0,0.0,0.0,0.0,0.0,0.0,0.0,0.0,0.0,0.0,0.0,0.0,0.0,0.0,0.0,0.0,0.0,0.0,0.0,0.0,0.0,0.0,0.0,0.0,0.0,0.0,0.0,0.0,0.0,0.0,0.0,0.0,0.0,0.0,0.0,0.0,0.0,0.0,0.0,0.0,0.0,0.0,0.0,0.0,0.0,0.0,0.0,0.0,0.0,0.0,0.0,0.0,0.0,0.0,0.0,0.0,0.0,0.0,0.0,0.0,0.0,0.0,0.0,0.0,0.0,0.0,0.0,0.0,0.0,0.0,0.0,0.0,0.0,-0.1252,0.0,-0.1319,-0.1252,-0.1274,-0.1388,0.0,0.0,0.0,0.0,0.0,0.0,0.0,0.0,0.0,0.0,0.0,0.0,0.0,0.0,0.0,0.0,0.0,0.0,0.0,0.0,0.0,0.0,0.0,0.0,0.0,0.0,0.0,0.0,0.0,0.0,0.0,0.0,0.0,0.0,0.0,0.0,0.0,0.0,0.0,0.0,0.0,0.0,0.0,0.0,0.0,0.0,0.0,0.0,0.0,0.0,0.0,0.0,0.0,0.0,0.0,0.0,0.0,0.0,0.0,0.0,0.0,0.0,0.0,0.0,0.0,0.0,0.0,0.0,0.0,0.0,0.0,0.0,0.0,0.0,0.0,0.0,0.0,0.0,0.0,0.0,0.0,0.0,0.0,0.0,0.0,0.0,0.0,0.0,0.0,0.0,0.0,0.0,0.0,0.0,0.0,0.0,0.0,0.0,0.0,0.0,0.0,0.0,0.0,0.0,0.0,0.0,0.0,0.0,0.0,-0.1116,-0.1116,-0.1116,-0.1027,-0.0959,0.0,0.0,0.0,0.0,0.0,0.0,0.0,0.0,0.0,0.0,0.0,0.0,0.0,0.0,0.0,0.0,0.0,0.0,0.0,0.0,0.0,0.0,0.0,0.0,0.0,0.0,0.0,0.0,0.0,0.0,0.0,0.0,0.0,0.0,0.0,0.0,0.0,0.0,0.0,0.0,0.0,0.0,0.0,0.0,0.0,0.0,0.0,0.0,0.0,0.0,0.0,0.0,0.0,0.0,0.0,0.0,0.0,0.0,0.0,0.0,0.0,0.0,0.0,0.0,0.0,0.0,0.0,0.0,0.0,0.0,0.0,0.0,0.0,0.0,0.0,0.0,0.0,0.0,0.0,0.0,0.0,0.0,0.0,0.0,0.0,0.0,0.0,0.0,0.0,0.0,0.0,0.0,0.0,0.0,0.0,0.0,0.0,0.0,0.0,0.0,0.0,0.0,0.0,0.0,0.0,0.0,0.0,0.0,0.0,-0.0852,-0.083,-0.083,0.0,-0.0763,-0.0696,0.0,0.0,0.0,0.0,0.0,0.0,0.0,0.0,0.0,0.0,0.0,0.0,0.0,0.0,0.0,0.0,0.0,0.0,0.0,0.0,0.0,0.0,0.0,0.0,0.0,0.0,0.0,0.0,0.0,0.0,0.0,0.0,0.0,0.0,0.0,0.0,0.0,0.0,0.0,0.0,0.0,0.0,0.0,0.0,0.0,0.0,0.0,0.0,0.0,0.0,0.0,0.0,0.0,0.0,0.0,0.0,0.0,0.0,0.0,0.0,0.0,0.0,0.0,0.0,0.0,0.0,0.0,0.0,0.0,0.0,0.0,0.0,0.0,0.0,0.0,0.0,0.0,0.0,0.0,0.0,0.0,0.0,0.0,0.0,0.0,0.0,0.0,0.0,0.0,0.0,0.0,0.0,0.0,0.0,0.0,0.0,0.0,0.0,0.0,0.0,0.0,0.0,0.0,0.0,0.0,0.0,0.0,0.0,0.0,-0.0631,0.0,-0.0608,0.0,-0.0563,-0.0518,0.0,0.0,0.0,0.0,0.0,0.0,0.0,0.0,0.0,0.0,0.0,0.0,0.0,0.0,0.0,0.0,0.0,0.0,0.0,0.0,0.0,0.0,0.0,0.0,0.0,0.0,0.0,0.0,0.0,0.0,0.0,0.0,0.0,0.0,0.0,0.0,0.0,0.0,0.0,0.0,0.0,0.0,0.0,0.0,0.0,0.0,0.0,0.0,0.0,0.0,0.0,0.0,0.0,0.0,0.0,0.0,0.0,0.0,0.0,0.0,0.0,0.0,0.0,0.0,0.0,0.0,0.0,0.0,0.0,0.0,0.0,0.0,0.0,0.0,0.0,0.0,0.0,0.0,0.0,0.0,0.0,0.0,0.0,0.0,0.0,0.0,0.0,0.0,0.0,0.0,0.0,0.0,0.0,0.0,0.0,0.0,0.0,0.0,0.0,0.0,0.0,0.0,0.0,0.0,0.0,0.0,0.0,0.0,-0.0496,-0.0496,-0.0496,-0.0496,-0.0496,-0.0428,-0.0428,0.0,0.0,0.0,0.0,0.0,0.0,0.0,0.0,0.0,0.0,0.0,0.0,0.0,0.0,0.0,0.0,0.0,0.0,0.0,0.0,0.0,0.0,0.0,0.0,0.0,0.0,0.0,0.0,0.0,0.0,0.0,0.0,0.0,0.0,0.0,0.0,0.0,0.0,0.0,0.0,0.0,0.0,0.0,0.0,0.0,0.0,0.0,0.0,0.0,0.0,0.0,0.0,0.0,0.0,0.0,0.0,0.0,0.0,0.0,0.0,0.0,0.0,0.0,0.0,0.0,0.0,0.0,0.0,0.0,0.0,0.0,0.0,0.0,0.0,0.0,0.0,0.0,0.0,0.0,0.0,0.0,0.0,0.0,0.0,0.0,0.0,0.0,0.0,0.0,0.0,0.0,0.0,0.0,0.0,0.0,0.0,0.0,0.0,0.0,0.0,0.0,0.0,0.0,0.0,0.0,0.0,0.0,0.0,0.0,-0.0428,-0.0428,-0.0428,-0.0428,-0.0406,-0.0406,0.0,0.0,0.0,0.0,0.0,0.0,0.0,0.0,0.0,0.0,0.0,0.0,0.0,0.0,0.0,0.0,0.0,0.0,0.0,0.0,0.0,0.0,0.0,0.0,0.0,0.0,0.0,0.0,0.0,0.0,0.0,0.0,0.0,0.0,0.0,0.0,0.0,0.0,0.0,0.0,0.0,0.0,0.0,0.0,0.0,0.0,0.0,0.0,0.0,0.0,0.0,0.0,0.0,0.0,0.0,0.0,0.0,0.0,0.0,0.0,0.0,0.0,0.0,0.0,0.0,0.0,0.0,0.0,0.0,0.0,0.0,0.0,0.0,0.0,0.0,0.0,0.0,0.0,0.0,0.0,0.0,0.0,0.0,0.0,0.0,0.0,0.0,0.0,0.0,0.0,0.0,0.0,0.0,0.0,0.0,0.0,0.0,0.0,0.0,0.0,0.0,0.0,0.0,0.0,0.0,0.0,0.0,0.0,0.0,-0.0468,-0.0418,-0.0393,-0.0394,-0.0407,-0.04,-0.04,0.0,0.0,0.0,0.0,0.0,0.0,0.0,0.0,0.0,0.0,0.0,0.0,0.0,0.0,0.0,0.0,0.0,0.0,0.0,0.0,0.0,0.0,0.0,0.0,0.0,0.0,0.0,0.0,0.0,0.0,0.0,0.0,0.0,0.0,0.0,0.0,0.0,0.0,0.0,0.0,0.0,0.0,0.0,0.0,0.0,0.0,0.0,0.0,0.0,0.0,0.0,0.0,0.0,0.0,0.0,0.0,0.0,0.0,0.0,0.0,0.0,0.0,0.0,0.0,0.0,0.0,0.0,0.0,0.0,0.0,0.0,0.0,0.0,0.0,0.0,0.0,0.0,0.0,0.0,0.0,0.0,0.0,0.0,0.0,0.0,0.0,0.0,0.0,0.0,0.0,0.0,0.0,0.0,0.0,0.0,0.0,0.0,0.0,0.0,0.0,0.0,0.0,0.0,0.0,0.0,0.0,0.0,0.0,-0.0598,-0.0486,-0.0428,-0.0395,-0.0395,-0.0405,0.0,0.0,0.0,0.0,0.0,0.0,0.0,0.0,0.0,0.0,0.0,0.0,0.0,0.0,0.0,0.0,0.0,0.0,0.0,0.0,0.0,0.0,0.0,0.0,0.0,0.0,0.0,0.0,0.0,0.0,0.0,0.0,0.0,0.0,0.0,0.0,0.0,0.0,0.0,0.0,0.0,0.0,0.0,0.0,0.0,0.0,0.0,0.0,0.0,0.0,0.0,0.0,0.0,0.0,0.0,0.0,0.0,0.0,0.0,0.0,0.0,0.0,0.0,0.0,0.0,0.0,0.0,0.0,0.0,0.0,0.0,0.0,0.0,0.0,0.0,0.0,0.0,0.0,0.0,0.0,0.0,0.0,0.0,0.0,0.0,0.0,0.0,0.0,0.0,0.0,0.0,0.0,0.0,0.0,0.0,0.0,0.0,0.0,0.0,0.0,0.0,0.0,0.0,0.0,0.0,0.0,0.0,0.0,0.0,-0.0609,-0.057,-0.0527,-0.0483,-0.0432,-0.0405,0.0,0.0,0.0,0.0,0.0,0.0,0.0,0.0,0.0,0.0,0.0,0.0,0.0,0.0,0.0,0.0,0.0,0.0,0.0,0.0,0.0,0.0,0.0,0.0,0.0,0.0,0.0,0.0,0.0,0.0,0.0,0.0,0.0,0.0,0.0,0.0,0.0,0.0,0.0,0.0,0.0,0.0,0.0,0.0,0.0,0.0,0.0,0.0,0.0,0.0,0.0,0.0,0.0,0.0,0.0,0.0,0.0,0.0,0.0,0.0,0.0,0.0,0.0,0.0,0.0,0.0,0.0,0.0,0.0,0.0,0.0,0.0,0.0,0.0,0.0,0.0,0.0,0.0,0.0,0.0,0.0,0.0,0.0,0.0,0.0,0.0,0.0,0.0,0.0,0.0,0.0,0.0,0.0,0.0,0.0,0.0,0.0,0.0,0.0,0.0,0.0,0.0,0.0,0.0,0.0,0.0,0.0,0.0,-0.0466,-0.059,-0.0624,-0.0592,-0.057,-0.0498,-0.0421,0.0,0.0,0.0,0.0,0.0,0.0,0.0,0.0,0.0,0.0,0.0,0.0,0.0,0.0,0.0,0.0,0.0,0.0,0.0,0.0,0.0,0.0,0.0,0.0,0.0,0.0,0.0,0.0,0.0,0.0,0.0,0.0,0.0,0.0,0.0,0.0,0.0,0.0,0.0,0.0,0.0,0.0,0.0,0.0,0.0,0.0,0.0,0.0,0.0,0.0,0.0,0.0,0.0,0.0,0.0,0.0,0.0,0.0,0.0,0.0,0.0,0.0,0.0,0.0,0.0,0.0,0.0,0.0,0.0,0.0,0.0,0.0,0.0,0.0,0.0,0.0,0.0,0.0,0.0,0.0,0.0,0.0,0.0,0.0,0.0,0.0,0.0,0.0,0.0,0.0,0.0,0.0,0.0,0.0,0.0,0.0,0.0,0.0,0.0,0.0,0.0,0.0,0.0,0.0,0.0,0.0,0.0,0.0,-0.0593,-0.0624,-0.0618,-0.0647,-0.0712,-0.0548,-0.048,0.0,0.0,0.0,0.0,0.0,0.0,0.0,0.0,0.0,0.0,0.0,0.0,0.0,0.0,0.0,0.0,0.0,0.0,0.0,0.0,0.0,0.0,0.0,0.0,0.0,0.0,0.0,0.0,0.0,0.0,0.0,0.0,0.0,0.0,0.0,0.0,0.0,0.0,0.0,0.0,0.0,0.0,0.0,0.0,0.0,0.0,0.0,0.0,0.0,0.0,0.0,0.0,0.0,0.0,0.0,0.0,0.0,0.0,0.0,0.0,0.0,0.0,0.0,0.0,0.0,0.0,0.0,0.0,0.0,0.0,0.0,0.0,0.0,0.0,0.0,0.0,0.0,0.0,0.0,0.0,0.0,0.0,0.0,0.0,0.0,0.0,0.0,0.0,0.0,0.0,0.0,0.0,0.0,0.0,0.0,0.0,0.0,0.0,0.0,0.0,0.0,0.0,0.0,0.0,0.0,0.0,0.0,0.0,-0.0522,-0.0656,-0.0689,-0.0667,-0.0716,-0.0586,-0.0488,0.0,0.0,0.0,0.0,0.0,0.0,0.0,0.0,0.0,0.0,0.0,0.0,0.0,0.0,0.0,0.0,0.0,0.0,0.0,0.0,0.0,0.0,0.0,0.0,0.0,0.0,0.0,0.0,0.0,0.0,0.0,0.0,0.0,0.0,0.0,0.0,0.0,0.0,0.0,0.0,0.0,0.0,0.0,0.0,0.0,0.0,0.0,0.0,0.21,0.0,0.0,0.0,0.0,0.0,0.0,0.0,0.0,0.0,0.0,0.0,0.0,0.0,0.0,0.0,0.0,0.0,0.0,0.0,0.0,0.0,0.0,0.0,0.0,0.0,0.0,0.0,0.0,0.0,0.0,0.0,0.0,0.0,0.0,0.0,0.0,0.0,0.0,0.0,0.0,0.0,0.0,0.0,0.0,0.0,0.0,0.0,0.0,0.0,0.0,0.0,0.0,0.0,0.0,0.0,0.0,0.0,0.0,0.0,-0.0509,-0.0706,-0.0715,-0.0695,-0.0693,-0.0582,-0.0553,0.0,0.0,0.0,0.0,0.0,0.0,0.0,0.0,0.0,0.0,0.0,0.0,0.0,0.0,0.0,0.0,0.0,0.0,0.0,0.0,0.0,0.0,0.0,0.0,0.0,0.0,0.0,0.0,0.0,0.0,0.0,0.0,0.0,0.0,0.0,0.0,0.0,0.0,0.0,0.0,0.0,0.0,0.0,0.0,0.0,0.0,0.0,0.0,0.0,0.0,0.0,0.0,0.0,0.0,0.0,0.0,0.0,0.0,0.0,0.0,0.0,0.0,0.0,0.0,0.0,0.0,0.0,0.0,0.0,0.0,0.0,0.0,0.0,0.0,0.0,0.0,0.0,0.0,0.0,0.0,0.0,0.0,0.0,0.0,0.0,0.0,0.0,0.0,0.0,0.0,0.0,0.0,0.0,0.0,0.0,0.0,0.0,0.0,0.0,0.0,0.0,0.0,0.0,0.0,0.0,0.0,0.0,-0.0339,-0.0527,-0.0708,-0.0731,-0.0719,-0.0718,-0.066,-0.0588,-0.0502,0.0,0.0,0.0,0.0,0.0,0.0,0.0,0.0,0.0,0.0,0.0,0.0,0.0,0.0,0.0,0.0,0.0,0.0,0.0,0.0,0.0,0.0,0.0,0.0,0.0,0.0,0.0,0.0,0.0,0.0,0.0,0.0,0.0,0.0,0.0,0.0,0.0,0.0,0.1389,0.1576,0.0,0.0,0.0,0.0,0.0,0.0,0.0,0.0,0.2579,0.0,0.0,0.0,0.0,0.0,0.0,0.0,0.0,0.0,0.0,0.0,0.0,0.0,0.0,0.0,0.0,0.0,0.0,0.0,0.0,0.0,0.0,0.0,0.0,0.0,0.0,0.0,0.0,0.0,0.0,0.0,0.0,0.0,0.0,0.0,0.0,0.0,0.0,0.0,0.0,0.0,0.0,0.0,0.0,0.0,0.0,0.0,0.0,0.0,0.0,0.0,0.0,0.0,0.0,0.0,0.0,-0.0395,-0.0563,-0.0741,-0.0866,-0.086,-0.0855,-0.0852,-0.0702,-0.056,-0.05,0.0,0.0,0.0,0.0,0.0,0.0,0.0,0.0,0.0,0.0,0.0,0.0,0.0,0.0,0.0,0.0,0.0,0.0,0.0,0.0,0.0,0.0,0.0,0.0,0.0,0.0,0.0,0.0,0.0,0.0,0.0,0.0,0.0,0.0,0.0,0.0,0.0,0.0,0.0,0.2002,0.2118,0.0,0.0,0.0,0.0,0.0,0.0,0.0,0.0,0.2687,0.0,0.0,0.0,0.0,0.0,0.0,0.0,0.0,0.0,0.0,0.0,0.0,0.0,0.0,0.0,0.0,0.0,0.0,0.0,0.0,0.0,0.0,0.0,0.0,0.0,0.0,0.0,0.0,0.0,0.0,0.0,0.0,0.0,0.0,0.0,0.0,0.0,0.0,0.0,0.0,0.0,0.0,0.0,0.0,0.0,0.0,0.0,0.0,0.0,0.0,0.0,0.0,0.0,0.0,0.0,-0.08,-0.0817,-0.0904,-0.1104,-0.1117,-0.1121,-0.1119,-0.0949,-0.0788,0.0,0.0,0.0,0.0,0.0,0.0,0.0,0.0,0.0,0.0,0.0,0.0,0.0,0.0,0.0,0.0,0.0,0.0,0.0,0.0,0.0,0.0,0.0,0.0,0.0,0.0,0.0,0.0,0.0,0.0,0.0,0.0,0.0,0.0,0.0,0.0,0.0,0.0,0.0,0.0,0.2284,0.242,0.2523,0.0,0.0,0.0,0.0,0.0,0.0,0.2832,0.286,0.0,0.0,0.0,0.0,0.0,0.0,0.0,0.0,0.0,0.0,0.0,0.0,0.0,0.0,0.0,0.0,0.0,0.0,0.0,0.0,0.0,0.0,0.0,0.0,0.0,0.0,0.0,0.0,0.0,0.0,0.0,0.0,0.0,0.0,0.0,0.0,0.0,0.0,0.0,0.0,0.0,0.0,0.0,0.0,0.0,0.0,0.0,0.0,0.0,0.0,0.0,0.0,0.0,0.0,0.0,-0.1042,-0.107,-0.1184,-0.1399,-0.1379,-0.1389,-0.1387,-0.1195,-0.0976,0.0,0.0,0.0,0.0,0.0,0.0,0.0,0.0,0.0,0.0,0.0,0.0,0.0,0.0,0.0,0.0,0.0,0.0,0.0,0.0,0.0,0.0,0.0,0.0,0.0,0.0,0.0,0.0,0.0,0.0,0.0,0.0,0.0,0.0,0.0,0.0,0.0,0.0,0.0,0.0,0.0,0.2657,0.2692,0.276,0.0,0.0,0.0,0.0,0.2919,0.3032,0.0,0.0,0.0,0.0,0.0,0.0,0.0,0.0,0.0,0.0,0.0,0.0,0.0,0.0,0.0,0.0,0.0,0.0,0.0,0.0,0.0,0.0,0.0,0.0,0.0,0.0,0.0,0.0,0.0,0.0,0.0,0.0,0.0,0.0,0.0,0.0,0.0,0.0,0.0,0.0,0.0,0.0,0.0,0.0,0.0,0.0,0.0,0.0,0.0,0.0,0.0,0.0,0.0,0.0,0.0,0.0,-0.1012,-0.1449,-0.168,-0.1667,-0.1706,-0.1749,-0.1748,-0.132,-0.1052,0.0,0.0,0.0,0.0,0.0,0.0,0.0,0.0,0.0,0.0,0.0,0.0,0.0,0.0,0.0,0.0,0.0,0.0,0.0,0.0,0.0,0.0,0.0,0.0,0.0,0.0,0.0,0.0,0.0,0.0,0.0,0.0,0.0,0.0,0.0,0.0,0.0,0.0,0.0,0.0,0.0,0.285,0.3027,0.3113,0.3139,0.0,0.0,0.335,0.3316,0.3246,0.0,0.0,0.0,0.0,0.0,0.0,0.0,0.0,0.0,0.0,0.0,0.0,0.0,0.0,0.0,0.0,0.0,0.0,0.0,0.0,0.0,0.0,0.0,0.0,0.0,0.0,0.0,0.0,0.0,0.0,0.0,0.0,0.0,0.0,0.0,0.0,0.0,0.0,0.0,0.0,0.0,0.0,0.0,0.0,0.0,0.0,0.0,0.0,0.0,0.0,0.0,0.0,0.0,0.0,0.0,-0.1015,-0.1332,-0.1673,-0.1923,-0.2094,-0.2234,-0.2286,-0.2284,-0.1937,-0.1573,0.0,0.0,0.0,0.0,0.0,0.0,0.0,0.0,0.0,0.0,0.0,0.0,0.0,0.0,0.0,0.0,0.0,0.0,0.0,0.0,0.0,0.0,0.0,0.0,0.0,0.0,0.0,0.0,0.0,0.0,0.0,0.0,0.0,0.0,0.0,0.0,0.0,0.0,0.0,0.0,0.0,0.0,0.314,0.3224,0.0,0.0,0.0,0.3401,0.3359,0.0,0.0,0.0,0.0,0.0,0.0,0.0,0.0,0.0,0.0,0.0,0.0,0.0,0.0,0.0,0.0,0.0,0.0,0.0,0.0,0.0,0.0,0.0,0.0,0.0,0.0,0.0,0.0,0.0,0.0,0.0,0.0,0.0,0.0,0.0,0.0,0.0,0.0,0.0,0.0,0.0,0.0,0.0,0.0,0.0,0.0,0.0,0.0,0.0,0.0,0.0,0.0,0.0,0.0,0.0,0.0,0.0,-0.1713,-0.1951,-0.2216,-0.2552,-0.2685,-0.2773,-0.2768,-0.2386,0.0,0.0,0.0,0.0,0.0,0.0,0.0,0.0,0.0,0.0,0.0,0.0,0.0,0.0,0.0,0.0,0.0,0.0,0.0,0.0,0.0,0.0,0.0,0.0,0.0,0.0,0.0,0.0247,0.0,0.0,0.0,0.0,0.0,0.0,0.0,0.0,0.0,0.0,0.0,0.0,0.0,0.0,0.3241,0.3246,0.3319,0.3385,0.0,0.0,0.3439,0.3403,0.3327,0.3289,0.0,0.0,0.0,0.0,0.0,0.0,0.0,0.0,0.0,0.0,0.0,0.0,0.0,0.0,0.0,0.0,0.0,0.0,0.0,0.0,0.0,0.0,0.0,0.0,0.0,0.0,0.0,0.0,0.0,0.0,0.0,0.0,0.0,0.0,0.0,0.0,0.0,0.0,0.0,0.0,0.0,0.0,0.0,0.0,0.0,0.0,0.0,0.0,0.0,0.0,0.0,0.0,0.0,0.0,0.0,-0.2045,-0.2322,-0.2612,-0.292,-0.2984,-0.2987,-0.2987,-0.2468,-0.2099,0.0,0.0,0.0,0.0,0.0,0.0,0.0,0.0,0.0,0.0,0.0,0.0,0.0,0.0,0.0,0.0,0.0,0.0,0.0,0.0,0.0,0.0,0.0,0.0,0.0,0.0,0.0,0.0,0.0,0.0,0.0,0.0,0.0,0.0,0.0,0.0,0.0,0.0,0.0,0.0,0.0,0.3093,0.3284,0.3279,0.3293,0.0,0.0,0.3595,0.3591,0.3425,0.3324,0.3373,0.0,0.0,0.0,0.0,0.0,0.0,0.0,0.0,0.0,0.0,0.0,0.0,0.0,0.0,0.0,0.0,0.0,0.0,0.0,0.0,0.0,0.0,0.0,0.0,0.0,0.0,0.0,0.0,0.0,0.0,0.0,0.0,0.0,0.0,0.0,0.0,0.0,0.0,0.0,0.0,0.0,0.0,0.0,0.0,0.0,0.0,0.0,0.0,0.0,0.0,0.0,0.0,0.0,-0.1843,-0.2357,-0.2636,-0.2948,-0.3246,-0.3306,-0.335,-0.335,-0.2964,-0.2543,0.0,0.0,0.0,0.0,0.0,0.0,0.0,0.0,0.0,0.0,0.0,0.0,0.0,0.0,0.0,0.0,0.0,0.0,0.0,0.0,0.0,0.0,0.0,0.0,0.0,0.0,0.0,0.0,0.0331,0.039,0.0448,0.0,0.0,0.0,0.0,0.0,0.0,0.0,0.0,0.0,0.0,0.3106,0.3211,0.3236,0.0,0.0,0.3468,0.349,0.3578,0.3531,0.3482,0.3456,0.3576,0.0,0.0,0.0,0.0,0.0,0.0,0.0,0.0,0.0,0.0,0.0,0.0,0.0,0.0,0.0,0.0,0.0,0.0,0.0,0.0,0.0,0.0,0.0,0.0,0.0,0.0,0.0,0.0,0.0,0.0,0.0,0.0,0.0,0.0,0.0,0.0,0.0,0.0,0.0,0.0,0.0,0.0,0.0,0.0,0.0,0.0,0.0,0.0,0.0,0.0,0.0,0.0,-0.2176,-0.2631,-0.2927,-0.3241,-0.3435,-0.3534,-0.3578,-0.3571,-0.3248,-0.2914,0.0,0.0,0.0,0.0,0.0,0.0,0.0,0.0,0.0,0.0,0.0,0.0,0.0,0.0,0.0,0.0,0.0,0.0,0.0,0.0,0.0,0.0,0.0,0.0,0.0,0.0,0.0,0.0,0.0347,0.0428,0.0496,0.0,0.0,0.0,0.0,0.0,0.0,0.0,0.0,0.0,0.0,0.3166,0.3212,0.3263,0.3373,0.3566,0.3497,0.3465,0.3517,0.3556,0.349,0.3469,0.0,0.0,0.0,0.0,0.0,0.0,0.0,0.0,0.0,0.0,0.0,0.0,0.0,0.0,0.0,0.0,0.0,0.0,0.0,0.0,0.0,0.0,0.0,0.0,0.0,0.0,0.0,0.0,0.0,0.0,-0.0999,0.0,0.0,0.0,0.0,0.0,0.0,0.0,0.0,0.0,0.0,0.0,0.0,0.0,0.0,0.0,0.0,0.0,0.0,0.0,0.0,0.0,0.0,-0.251,-0.2966,-0.3185,-0.3376,-0.3571,-0.3578,-0.3578,-0.3575,-0.3337,-0.3043,-0.2691,0.0,0.0,0.0,0.0,0.0,0.0,0.0,0.0,0.0,0.0,0.0,0.0,0.0,0.0,0.0,0.0,0.0,0.0,0.0,0.0,0.0,0.0,0.0,0.0,0.0,0.0,0.0224,0.0314,0.0428,0.0,0.0,0.0,0.0,0.0,0.0,0.0,0.0,0.0,0.0,0.2953,0.3215,0.321,0.3383,0.3559,0.3571,0.3568,0.3569,0.3387,0.3416,0.337,0.0,0.0,0.0,0.0,0.0,0.0,0.0,0.0,0.0,0.0,0.0,0.0,0.0,0.0,0.0,0.0,0.0,0.0,0.0,0.0,0.0,0.0,0.0,0.0,0.0,0.0,0.0,-0.1887,-0.176,0.0,0.0,0.0,0.0,0.0,0.0,0.0,0.0,0.0,0.0,0.0,-0.229,-0.2384,0.0,0.0,0.0,0.0,0.0,0.0,0.0,0.0,0.0,0.0,0.0,0.0,-0.2712,-0.3075,-0.3276,-0.3425,-0.3575,-0.3578,-0.3578,-0.3578,-0.3386,-0.3044,-0.2593,0.0,0.0,0.0,0.0,0.0,0.0,0.0,0.0,0.0,0.0,0.0,0.0,0.0,0.0,0.0,0.0,0.0,0.0,0.0,0.0,0.0,0.0,0.0,0.0,0.0,0.0382,0.0,0.0,0.0,0.0,0.0,0.0,0.0,0.0,0.0,0.0,0.0,0.2176,0.226,0.2407,0.2576,0.2693,0.2739,0.2794,0.0,0.0,0.0,0.0,0.0,0.0,0.0,0.0,0.0,0.0,0.0,0.0,0.0,0.0,0.4108,0.4541,0.4481,0.4391,0.4475,0.0,0.0,0.0,0.0,0.0,0.0,0.0,0.0,0.0,0.0,0.0,0.0,0.0,0.0,-0.2507,0.0,-0.2276,0.0,0.0,0.0,0.0,0.0,0.0,0.0,0.0,-0.2711,-0.287,-0.2985,-0.3092,-0.3117,0.0,-0.3028,-0.2757,0.0,0.0,0.0,0.0,0.0,0.0,0.0,0.0,-0.2999,-0.3343,-0.3556,-0.3759,-0.3905,-0.3865,-0.384,-0.3792,-0.3584,-0.3248,-0.2808,-0.2593,-0.2266,0.0,0.0,0.0,0.0,0.0,0.0,0.0,0.0,0.0,0.0,0.0,0.0,0.0,0.0,0.0,0.0,0.0,0.0,0.0,0.0,0.0,0.0,0.0,0.0296,0.0,0.0,0.0,0.0,0.0,0.0,0.0,0.0,0.0,0.1464,0.1732,0.1923,0.187,0.206,0.2166,0.2272,0.0,0.0,0.0,0.0,0.0,0.0,0.0,0.3064,0.3126,0.3421,0.3667,0.387,0.4009,0.409,0.3996,0.0,0.0,0.4524,0.4596,0.4592,0.4779,0.4824,0.4779,0.4729,0.4646,0.4646,0.0,0.0,0.0,0.0,0.0,0.0,0.0,0.0,-0.3256,-0.319,0.0,-0.2851,0.0,0.0,0.0,0.0,0.0,-0.2662,0.0,0.0,-0.333,-0.3459,-0.3533,-0.368,-0.3661,-0.3535,-0.3614,-0.3511,-0.3223,-0.2779,0.0,0.0,0.0,0.0,0.0,0.0,-0.3366,-0.3814,-0.4088,-0.4307,-0.45,-0.4311,-0.4232,-0.4217,-0.39,-0.3599,-0.3413,-0.305,-0.2696,-0.2431,-0.1979,0.0,0.0,0.0,0.0,0.0,0.0,0.0,0.0,0.0,0.0,0.0,0.0,0.0,0.0,0.0,0.0,0.0,0.0,0.0,0.0,-0.0,0.0,0.0,0.0,0.0,0.0,0.0,0.0,0.0,0.0,0.0,0.1036,0.1434,0.1646,0.1523,0.0,0.0,0.0,0.0,0.2183,0.2127,0.2183,0.2211,0.2248,0.2289,0.237,0.2649,0.0,0.0,0.3385,0.3637,0.377,0.377,0.365,0.3713,0.4177,0.4374,0.4531,0.4771,0.4874,0.4923,0.4874,0.482,0.482,-0.4257,0.0,0.0,0.0,0.0,-0.3722,-0.3912,-0.4109,-0.4109,-0.3946,-0.3666,-0.367,0.0,0.0,0.0,0.0,0.0,0.0,-0.3668,-0.3943,-0.4094,-0.4244,-0.4334,-0.439,-0.4367,-0.4368,-0.4306,-0.4204,-0.4102,-0.3766,-0.3331,-0.2937,0.0,0.0,0.0,0.0,-0.3783,-0.4104,-0.4392,-0.4617,-0.4755,-0.4714,-0.463,-0.4505,-0.4151,-0.3933,-0.3768,-0.3544,-0.3191,-0.273,-0.2557,0.0,0.0,0.0,0.0,0.0,0.0,0.0,0.0,0.0,0.0,0.0,0.0,0.0,0.0,0.0,0.0,0.0,0.0,0.0,-0.0219,-0.0154,-0.0107,0.0,0.0,0.0,0.0,0.0,0.0,0.0,0.0,0.0,0.0274,0.0808,0.1237,0.0,0.0,0.1505,0.1487,0.1505,0.157,0.157,0.1682,0.0,0.1773,0.1931,0.2144,0.2288,0.2661,0.2929,0.2929,0.3063,0.3082,0.292,0.2945,0.3056,0.3384,0.3851,0.4224,0.4659,0.4927,0.5087,0.514,0.514,0.514,-0.5281,-0.4782,-0.4339,-0.4228,-0.4418,-0.4532,-0.4717,-0.4914,-0.4861,-0.4717,-0.4407,-0.4348,-0.4186,-0.3986,-0.4114,0.0,0.0,0.0,-0.4472,-0.4658,-0.4779,-0.4858,-0.4952,-0.4962,-0.4919,-0.4911,-0.486,-0.4778,-0.4661,-0.4462,-0.4134,-0.3652,0.0,0.0,-0.3563,-0.3877,-0.4222,-0.4636,-0.5005,-0.5309,-0.5482,-0.5512,-0.5336,-0.4972,-0.4757,-0.4517,-0.4164,-0.3999,-0.3664,-0.3157,-0.2951,-0.2582,0.0,0.0,0.0,0.0,0.0,0.0,0.0,0.0,0.0,0.0,0.0,-0.0527,0.0,0.0,0.0,0.0,-0.037,-0.0457,-0.0573,-0.0628,0.0,0.0,0.0,0.0,0.0,0.0,0.0,-0.0176,-0.0326,-0.0389,-0.0299,-0.0051,0.0317,0.0798,0.1025,0.1151,0.1119,0.0,0.1122,0.1122,0.1234,0.1346,0.1403,0.1513,0.1737,0.1905,0.2237,0.2404,0.2347,0.2458,0.246,0.2352,0.2354,0.2519,0.2687,0.3186,0.3691,0.4359,0.4743,0.4963,0.5128,0.5128,0.5073,-0.6468,-0.6421,-0.5619,-0.5214,-0.5179,-0.5445,-0.5566,-0.5628,-0.5566,-0.5421,-0.527,-0.5004,-0.49,-0.4901,-0.5048,0.0,-0.5102,-0.5228,-0.5307,-0.5312,-0.5412,-0.5487,-0.5428,-0.5474,-0.5407,-0.5462,-0.5399,-0.5251,-0.5044,-0.4988,-0.4857,-0.4599,-0.4019,-0.3844,-0.4048,-0.4341,-0.4792,-0.5371,-0.576,-0.6135,-0.6426,-0.644,-0.6166,-0.5594,-0.5564,-0.5264,-0.4666,-0.4404,-0.4064,-0.3644,-0.3227,-0.2877,-0.2702,0.0,0.0,0.0,0.0,0.0,0.0,0.0,0.0,0.0,0.0,0.0,0.0,0.0,0.0,0.0,-0.0706,0.0,-0.1026,-0.1198,0.0,0.0,0.0,-0.1084,-0.1135,-0.0969,-0.0827,-0.0717,0.0,0.0,-0.0642,-0.099,-0.0942,-0.0054,0.0495,0.0841,0.0841,0.0841,0.0841,0.0897,0.0897,0.0954,0.1066,0.1122,0.1234,0.1515,0.1681,0.1792,0.1792,0.1847,0.1959,0.1903,0.1959,0.2017,0.2128,0.2464,0.2914,0.3858,0.4359,0.4688,0.4791,0.4846,0.4791,-0.8196,-0.8186,-0.7961,-0.7199,-0.6049,-0.6147,-0.6342,-0.6525,-0.6525,-0.6379,-0.6154,-0.6285,-0.6471,-0.6597,-0.6654,-0.6711,-0.6835,-0.6827,-0.6851,-0.6856,-0.69,-0.6925,-0.6915,-0.6687,-0.6609,-0.6595,-0.6284,-0.6081,-0.6035,-0.5707,-0.5573,-0.5473,-0.5072,-0.4817,-0.471,-0.4927,-0.5391,-0.6005,-0.6327,-0.6651,-0.6912,-0.6759,-0.6545,-0.6198,-0.5919,-0.5591,-0.5159,-0.4919,-0.4586,-0.4069,-0.3736,-0.3313,-0.2723,-0.2466,0.0,0.0,0.0,0.0,0.0,0.0,0.0,0.0,0.0,-0.0885,-0.0979,0.0,-0.0866,0.0,-0.101,-0.1156,-0.1359,-0.1505,0.0,0.0,-0.1643,-0.1632,-0.1478,-0.1488,-0.1546,-0.1708,-0.1635,-0.1506,-0.1488,-0.156,-0.1563,-0.1329,-0.0502,0.0168,0.0393,0.0505,0.0617,0.0841,0.0897,0.0898,0.0954,0.101,0.1122,0.1178,0.1346,0.1402,0.1289,0.1401,0.1457,0.1346,0.1402,0.157,0.1852,0.2073,0.2352,0.2968,0.3635,0.4187,0.4346,0.4343,0.4291,-0.9143,-0.9132,-0.9038,-0.856,-0.7772,-0.7648,-0.759,-0.7686,-0.7591,-0.7373,-0.7091,-0.724,-0.7315,-0.7429,-0.7493,-0.7558,-0.7623,-0.7623,-0.7623,-0.7623,-0.7623,-0.7623,-0.7617,-0.748,-0.7423,-0.7412,-0.7069,-0.6854,-0.6794,-0.6425,-0.6268,-0.615,-0.5987,-0.5824,-0.5784,-0.572,-0.5986,-0.6465,-0.6903,-0.7246,-0.7408,-0.7331,-0.7087,-0.6681,-0.6488,-0.6105,-0.555,-0.5318,-0.5004,-0.4509,-0.4117,-0.3586,-0.2963,-0.2662,-0.2276,0.0,0.0,0.0,0.0,0.0,0.0,0.0,0.0,0.0,0.0,0.0,-0.1352,-0.1352,-0.1639,-0.1794,-0.18,-0.2007,-0.2105,-0.2147,-0.2192,-0.2215,-0.2152,-0.2094,-0.2202,-0.2338,-0.2288,-0.2247,-0.2178,-0.2237,-0.2181,-0.2015,-0.1455,-0.0896,-0.0449,-0.0112,0.0224,0.0449,0.0561,0.0729,0.0841,0.0954,0.101,0.101,0.1066,0.1122,0.101,0.1122,0.1178,0.1178,0.129,0.1403,0.1572,0.1738,0.2018,0.23,0.2745,0.3297,0.3627,0.3683,0.3683,-0.9818,-0.9796,-0.9597,-0.965,-0.9715,-0.9444,-0.9077,-0.8742,-0.8684,-0.8468,-0.8169,-0.796,-0.7914,-0.7947,-0.8007,-0.8078,-0.8078,-0.8083,-0.8078,-0.8078,-0.8078,-0.8078,-0.8078,-0.8104,-0.8028,-0.8017,-0.7769,-0.7518,-0.7378,-0.7125,-0.69,-0.6701,-0.6642,-0.6756,-0.6933,-0.6593,-0.6539,-0.6923,-0.7461,-0.7788,-0.7901,-0.7901,-0.7616,-0.7097,-0.7037,-0.6684,-0.5951,-0.568,-0.5365,-0.4968,-0.4438,-0.3862,-0.3318,-0.2877,-0.2575,0.0,-0.2162,0.0,0.0,0.0,0.0,0.0,0.0,0.0,0.0,-0.1856,-0.1886,-0.1929,-0.2319,-0.2471,-0.2314,-0.2546,-0.2691,-0.273,-0.2752,-0.2796,-0.2883,-0.2733,-0.2709,-0.2736,-0.2854,-0.2907,-0.2745,-0.2852,-0.274,-0.2408,-0.224,-0.1961,-0.1457,-0.0785,-0.028,-0.0168,0.0056,0.0336,0.0673,0.0785,0.0785,0.0785,0.0897,0.0897,0.0897,0.0954,0.1011,0.1072,0.1132,0.1247,0.1135,0.1367,0.1537,0.1599,0.1827,0.2214,0.2805,0.3019,0.2907,-1.081,-1.0804,-1.0757,-1.0745,-1.0813,-1.0739,-1.0263,-0.9569,-0.9725,-0.9632,-0.9377,-0.9074,-0.8933,-0.9006,-0.9,-0.907,-0.9208,-0.9208,-0.9208,-0.9208,-0.9208,-0.9208,-0.919,-0.8977,-0.8871,-0.8853,-0.8498,-0.8219,-0.796,-0.7689,-0.7395,-0.7149,-0.7031,-0.709,-0.7322,0.0,0.0,0.0,-0.7783,-0.7848,-0.7901,-0.7901,-0.7751,-0.7478,-0.7267,0.0,-0.6457,-0.6122,-0.5739,-0.5386,-0.4973,0.0,0.0,0.0,0.0,0.0,0.0,0.0,0.0,0.0,0.0,0.0,-0.264,-0.2724,-0.2338,-0.2076,-0.2158,-0.263,-0.2673,-0.2713,-0.2837,-0.3003,-0.3081,-0.3101,-0.3184,-0.3249,-0.3269,-0.3104,-0.3,-0.3019,-0.3077,-0.3077,-0.3021,-0.3021,-0.3019,-0.2907,-0.2745,-0.2579,-0.241,-0.157,-0.0953,-0.0954,-0.0505,-0.0056,0.0168,0.028,0.0337,0.0449,0.0673,0.0843,0.0844,0.0619,0.0454,0.0406,0.0351,0.0294,0.0301,0.0425,0.0483,0.0606,0.0727,0.1074,0.2153,0.2352,0.2293,-1.1117,0.0,-1.1117,-1.1117,0.0,-1.1117,-1.0893,-1.0563,-1.058,-1.0375,-1.0121,-0.9855,-0.9781,-0.9729,-0.9664,-0.9598,-0.9676,-0.9548,-0.9478,-0.9478,-0.9478,-0.9478,-0.9478,-0.934,-0.9274,-0.9262,-0.8943,-0.8747,-0.8551,-0.8183,-0.7891,-0.7764,-0.7583,-0.7526,-0.7639,-0.7687,-0.7735,-0.7788,-0.7848,-0.7901,-0.7901,-0.7901,-0.7769,-0.7601,-0.7467,0.0,0.0,0.0,0.0,0.0,0.0,0.0,0.0,0.0,0.0,-0.3471,-0.325,-0.3049,-0.2828,-0.2777,-0.2872,-0.3006,-0.335,-0.3401,-0.2954,-0.2687,-0.2707,-0.301,-0.3084,-0.3192,-0.32,-0.3311,-0.3382,-0.3384,-0.349,-0.3471,-0.3471,-0.3416,-0.3357,-0.3357,-0.3357,-0.336,-0.336,-0.3357,-0.3302,-0.3246,-0.3135,-0.3028,-0.2854,-0.2127,-0.1568,-0.1513,-0.1233,-0.0898,-0.0674,-0.057,-0.0345,-0.0058,0.0116,0.0235,0.0236,0.0059,-0.0118,-0.024,-0.0301,-0.0425,-0.0676,-0.0741,-0.0679,-0.0617,-0.0617,-0.0429,0.0236,0.0941,0.1471,-1.1186,-1.1186,-1.1105,-1.1117,-1.1117,-1.1111,-1.1254,-1.1471,0.0,0.0,0.0,-1.0533,-1.0461,-1.0275,-1.0141,-1.0,-0.9949,-0.9744,-0.959,-0.9548,-0.9548,-0.9478,-0.9478,-0.9478,-0.9478,-0.9472,-0.925,-0.9112,-0.9052,-0.8691,-0.8381,-0.8279,-0.8075,-0.7943,-0.7907,-0.7901,-0.7901,-0.7901,-0.7901,-0.7901,-0.7901,-0.7901,-0.7793,-0.7674,-0.7619,-0.7388,-0.6969,-0.6798,-0.6537,-0.6167,-0.5743,-0.5423,-0.5329,-0.4786,-0.4369,-0.4173,-0.3842,-0.3656,-0.3541,-0.3509,-0.3626,-0.3897,-0.4133,-0.4056,-0.3607,-0.3332,-0.3237,-0.3377,-0.3522,-0.3542,-0.3495,-0.3523,-0.3585,-0.3585,-0.3585,-0.3585,-0.3585,-0.3585,-0.3585,-0.3585,-0.3585,-0.3593,-0.3618,-0.3621,-0.3623,-0.3529,-0.3437,-0.3416,-0.3128,-0.2558,-0.2104,-0.2004,-0.1842,-0.1718,-0.1492,-0.1342,-0.1187,-0.0772,-0.0727,-0.0678,-0.0617,-0.0679,-0.0742,-0.087,-0.0933,-0.1123,-0.1442,-0.1513,-0.1569,-0.1568,-0.1569,-0.1569,-0.1507,-0.0564,0.0375,-1.1341,-1.1335,-1.1186,-1.1117,-1.1117,-1.126,-1.1552,-1.1855,-1.1662,-1.1569,-1.1456,-1.1236,-1.1007,-1.0829,-1.0754,-1.0609,-1.0422,-1.0217,-0.9962,-0.9746,-0.9618,-0.9478,-0.9478,-0.9478,-0.9478,-0.9478,-0.9442,-0.9298,-0.9076,-0.8992,-0.8741,-0.8339,-0.8249,-0.8123,-0.7919,-0.7901,-0.7901,-0.7901,-0.7901,-0.7901,-0.7901,-0.7901,-0.7883,-0.7841,-0.7665,-0.7565,-0.7486,-0.7261,-0.7038,-0.686,-0.6677,-0.6507,-0.6318,-0.5987,-0.5704,-0.5415,-0.4875,-0.4455,-0.4338,-0.4356,-0.4439,-0.4719,-0.4761,-0.4621,-0.4202,-0.358,-0.3459,-0.3993,-0.3782,-0.3633,-0.3721,-0.368,-0.3585,-0.3585,-0.3585,-0.3585,-0.3585,-0.3585,-0.3588,-0.3593,-0.3585,-0.3629,-0.3771,-0.3787,-0.3767,-0.3789,-0.3724,-0.3633,-0.3442,-0.3034,-0.2669,-0.2479,-0.2314,-0.2191,-0.2058,-0.195,-0.1837,-0.1837,-0.1847,-0.1738,-0.1428,-0.1614,-0.169,-0.1659,-0.1536,-0.1551,-0.1648,-0.1596,-0.1655,-0.1651,-0.165,-0.1654,-0.1651,-0.1255,-0.0849,-1.1935,-1.1809,-1.1721,-1.1558,-1.1409,-1.1632,-1.1855,-1.2009,-1.2003,-1.1937,-1.182,-1.1589,-1.1441,-1.1256,-1.1179,-1.1025,-1.0892,-1.0543,-1.0337,-1.0145,-0.9808,-0.967,-0.9612,-0.9548,-0.9478,-0.9478,-0.9478,-0.9418,-0.9292,-0.9142,-0.9005,-0.8705,-0.8435,-0.8159,-0.7913,-0.7901,-0.7901,-0.7901,-0.7901,-0.7901,-0.7901,-0.7901,-0.7901,-0.7901,-0.7828,-0.7689,-0.7595,-0.748,-0.7303,-0.711,-0.696,-0.6869,-0.6773,-0.6525,-0.6228,-0.5985,-0.5629,-0.5327,-0.4926,-0.5139,-0.5343,-0.5477,-0.5486,-0.5436,-0.5218,-0.4559,-0.4207,-0.4453,-0.4245,-0.4024,-0.3907,-0.3799,-0.3691,-0.3585,-0.3585,-0.3585,-0.3585,-0.3585,-0.3607,-0.3721,-0.3735,-0.3779,-0.3838,-0.3852,-0.3865,-0.3864,-0.3811,-0.3837,-0.3838,-0.3556,-0.327,-0.3085,-0.302,-0.2895,-0.2778,-0.2627,-0.2521,-0.2397,-0.237,-0.2262,-0.2071,-0.2199,-0.2275,-0.2299,-0.2241,-0.2186,-0.2083,-0.2018,-0.2018,-0.1951,-0.1951,-0.1951,-0.1884,-0.1479,-0.0799,-1.2529,-1.2331,-1.2261,-1.2062,-1.1781,-1.1929,-1.2009,-1.2083,-1.2224,-1.2231,-1.2077,-1.1929,-1.1806,-1.1762,-1.1605,-1.1449,-1.1322,-1.0957,-1.0661,-1.052,-1.012,-0.993,-0.981,-0.9612,-0.9548,-0.9478,-0.9478,-0.9478,-0.9454,-0.9256,-0.9186,-0.9077,-0.8549,-0.8189,-0.7997,-0.7925,-0.7901,-0.7901,-0.7901,-0.7901,-0.7901,-0.7901,-0.7901,-0.7901,-0.7901,-0.7805,-0.7698,-0.7686,-0.7595,-0.7351,-0.7241,-0.7197,-0.7191,-0.6988,-0.674,-0.6536,-0.6441,-0.6203,-0.5793,-0.5958,-0.6109,-0.6164,-0.6164,-0.6164,-0.6109,-0.5559,-0.512,-0.4908,-0.4743,-0.4574,-0.4242,-0.3965,-0.3799,-0.3635,-0.3583,-0.3585,-0.3585,-0.3604,-0.371,-0.3798,-0.3834,-0.3841,-0.3941,-0.3977,-0.3931,-0.402,-0.3955,-0.4061,-0.414,-0.4027,-0.3857,-0.3741,-0.3583,-0.353,-0.3398,-0.333,-0.3113,-0.2859,-0.2711,-0.2671,-0.2613,-0.2552,-0.2554,-0.2614,-0.2683,-0.2616,-0.2488,-0.2423,-0.2421,-0.2287,-0.2287,-0.2287,-0.2153,-0.1344,-0.0471,-1.2883,-1.2732,-1.2434,-1.2138,-1.2022,-1.2009,-1.2077,-1.2231,-1.2305,-1.2305,-1.2231,-1.2231,-1.2211,-1.2265,-1.2178,-1.2018,-1.1837,-1.1585,-1.122,-1.0711,-1.0514,-1.0171,-0.9829,-0.9804,-0.9676,-0.9548,-0.9478,-0.9478,-0.9478,-0.9448,-0.9316,-0.9095,-0.8549,-0.8285,-0.8225,-0.8021,-0.7907,-0.7901,-0.7901,-0.7901,-0.7901,-0.7901,-0.7901,-0.7901,-0.7901,-0.7889,-0.7847,-0.7865,-0.7853,-0.7829,-0.7811,-0.7823,-0.7764,-0.7653,-0.7541,-0.7529,-0.7393,-0.716,-0.6961,-0.6771,-0.6668,-0.6652,-0.6652,-0.6598,-0.6598,-0.6277,-0.5896,-0.5567,-0.5348,-0.5077,-0.4688,-0.4242,-0.3965,-0.3799,-0.3699,-0.3585,-0.3604,-0.3732,-0.3804,-0.3809,-0.3863,-0.3963,-0.4072,-0.4099,-0.4143,-0.4216,-0.4221,-0.423,-0.4254,-0.4262,-0.4196,-0.4122,-0.3992,-0.3784,-0.3779,-0.373,-0.36,-0.3409,-0.342,-0.3228,-0.3092,-0.2958,-0.2889,-0.2822,-0.2753,-0.2753,-0.2686,-0.2686,-0.2688,-0.2621,-0.2554,-0.2554,-0.2153,-0.121,-0.0269,-1.3689,-1.3528,-1.3173,-1.285,-1.2503,-1.2304,-1.2224,-1.2305,-1.2305,-1.2305,-1.2305,-1.2305,-1.2305,-1.2305,-1.2305,-1.2231,-1.2118,-1.1879,-1.168,-1.1345,-1.0894,-1.0535,-1.0288,-0.993,-0.974,-0.9676,-0.9548,-0.9478,-0.9478,-0.9478,-0.934,-0.9076,-0.8843,-0.8597,-0.8309,-0.8183,-0.8057,-0.7907,-0.7901,-0.7901,-0.7901,-0.7901,-0.7901,-0.7901,-0.7901,-0.7901,-0.7901,-0.7901,-0.7901,-0.7901,-0.7901,-0.7901,-0.7901,-0.7842,-0.7788,-0.7723,-0.7634,-0.7484,-0.7268,-0.716,-0.7101,-0.6977,-0.6869,-0.6825,-0.682,-0.6603,-0.6386,-0.6109,-0.5955,-0.5626,-0.5018,-0.4574,-0.4245,-0.4033,-0.3866,-0.374,-0.3686,-0.3789,-0.3882,-0.3955,-0.4012,-0.4088,-0.4194,-0.4224,-0.4246,-0.4295,-0.4303,-0.4303,-0.4303,-0.4303,-0.4303,-0.43,-0.4167,-0.4097,-0.4097,-0.3961,-0.3897,-0.383,-0.3761,-0.3558,-0.3491,-0.336,-0.3295,-0.3159,-0.3025,-0.2956,-0.2889,-0.2889,-0.2889,-0.2753,-0.2487,-0.2287,-0.1951,-0.1008,-0.0134,-1.4275,-1.4084,-1.3756,-1.3293,-1.2815,-1.2518,-1.2378,-1.2305,-1.2305,-1.2305,-1.2305,-1.2305,-1.2305,-1.2305,-1.2305,-1.2305,-1.2278,-1.2084,-1.1944,-1.183,-1.1279,-1.0948,-1.0652,-1.0269,-1.0001,-0.9804,-0.9676,-0.9542,-0.9478,-0.9478,-0.9382,-0.9196,-0.9168,-0.8878,-0.8525,-0.8381,-0.8195,-0.8027,-0.7949,-0.7901,-0.7901,-0.7901,-0.7901,-0.7901,-0.7901,-0.7901,-0.7901,-0.7901,-0.7901,-0.7901,-0.7901,-0.7901,-0.7901,-0.7901,-0.7848,-0.7783,-0.7735,-0.758,-0.7371,-0.7371,-0.7311,-0.7085,-0.7036,-0.6928,-0.6928,-0.6869,-0.6707,-0.6549,-0.6445,-0.6059,-0.5403,-0.4904,-0.4588,-0.4412,-0.4113,-0.394,-0.3924,-0.3914,-0.4018,-0.4105,-0.414,-0.4197,-0.4278,-0.4298,-0.4298,-0.43,-0.4303,-0.4303,-0.4303,-0.4303,-0.4303,-0.4303,-0.4303,-0.4303,-0.4303,-0.4167,-0.4097,-0.3961,-0.3894,-0.3825,-0.3828,-0.3629,-0.3498,-0.3362,-0.3295,-0.3226,-0.3092,-0.3025,-0.3025,-0.2824,-0.2555,-0.2221,-0.1951,-0.1008,-0.0,-1.4384,-1.433,-1.3837,-1.3313,-1.2829,-1.2802,-1.2559,-1.2338,-1.2311,-1.2305,-1.2305,-1.2305,-1.2305,-1.2305,-1.2305,-1.2298,-1.2298,-1.2271,-1.2124,-1.1911,-1.1824,-1.1447,-1.0751,-1.0646,-1.0438,-1.0027,-0.9868,-0.9676,-0.9542,-0.9478,-0.9478,-0.9442,-0.9214,-0.9126,-0.8932,-0.8549,-0.8291,-0.8231,-0.8033,-0.7907,-0.7901,-0.7901,-0.7901,-0.7901,-0.7901,-0.7901,-0.7901,-0.7901,-0.7901,-0.7901,-0.7901,-0.7901,-0.7901,-0.7901,-0.7901,-0.7901,-0.7783,-0.7676,-0.7521,-0.7413,-0.7252,-0.7139,-0.7085,-0.7085,-0.7085,-0.7085,-0.6977,-0.6874,-0.6712,-0.644,-0.5845,-0.5344,-0.5023,-0.4869,-0.4449,-0.4231,-0.4227,-0.4165,-0.4102,-0.414,-0.4216,-0.4276,-0.43,-0.4303,-0.4303,-0.4303,-0.4303,-0.4303,-0.4303,-0.4303,-0.4303,-0.4303,-0.4303,-0.4303,-0.4303,-0.4233,-0.4167,-0.4097,-0.403,-0.3961,-0.3828,-0.3694,-0.3563,-0.3498,-0.3362,-0.3295,-0.3228,-0.3226,-0.3159,-0.2958,-0.2624,-0.2288,-0.2085,-0.1076,-0.0134,-1.4901,-1.4364,-1.4001,-1.3669,-1.3293,-1.2919,-1.2755,-1.2572,-1.2533,-1.2452,-1.2526,-1.2599,-1.2599,-1.2445,-1.2526,-1.2452,-1.2305,-1.2305,-1.2245,-1.2131,-1.1957,-1.175,-1.1474,-1.0981,-1.062,-1.0438,-1.0065,-0.9862,-0.9676,-0.9542,-0.9478,-0.9472,-0.9388,-0.925,-0.9064,-0.8945,-0.8633,-0.8315,-0.8189,-0.8075,-0.7919,-0.7901,-0.7901,-0.7901,-0.7901,-0.7901,-0.7901,-0.7901,-0.7901,-0.7901,-0.7901,-0.7901,-0.7901,-0.7901,-0.7901,-0.7901,-0.7842,-0.7788,-0.7622,-0.7574,-0.7461,-0.7359,-0.7252,-0.7252,-0.7198,-0.7139,-0.7036,-0.6933,-0.6928,-0.6761,-0.6381,-0.5887,-0.5524,-0.5354,-0.4834,-0.4527,-0.4609,-0.4417,-0.4232,-0.424,-0.4278,-0.43,-0.4303,-0.4303,-0.4303,-0.4303,-0.4303,-0.4303,-0.4303,-0.4303,-0.4303,-0.4303,-0.4303,-0.4303,-0.4303,-0.4303,-0.43,-0.4233,-0.4167,-0.4167,-0.41,-0.3897,-0.383,-0.3763,-0.3563,-0.3429,-0.3362,-0.3295,-0.3228,-0.3092,-0.2758,-0.249,-0.2221,-0.1344,-0.0404,-1.5235,-1.4448,-1.4179,-1.3885,-1.3581,-1.3113,-1.2916,-1.2795,-1.2655,-1.2599,-1.2673,-1.282,-1.282,-1.2753,-1.2673,-1.2599,-1.2526,-1.2372,-1.2305,-1.2291,-1.2098,-1.1957,-1.174,-1.1319,-1.0968,-1.0633,-1.0309,-0.9989,-0.9804,-0.9676,-0.9548,-0.9478,-0.9478,-0.9458,-0.9214,-0.9174,-0.8873,-0.8631,-0.8381,-0.8195,-0.8033,-0.7937,-0.7901,-0.7901,-0.7901,-0.7901,-0.7901,-0.7901,-0.7901,-0.7901,-0.7901,-0.7901,-0.7901,-0.7901,-0.7901,-0.7901,-0.7901,-0.7842,-0.7723,-0.767,-0.7676,-0.758,-0.7419,-0.7365,-0.7365,-0.7246,-0.7198,-0.7144,-0.7144,-0.7085,-0.6885,-0.6489,-0.6174,-0.5959,-0.5389,-0.5058,-0.5118,-0.471,-0.4422,-0.4295,-0.4298,-0.4303,-0.4303,-0.4303,-0.4303,-0.4303,-0.4303,-0.4303,-0.4303,-0.4303,-0.4303,-0.4303,-0.4303,-0.4303,-0.4303,-0.4303,-0.4303,-0.43,-0.4233,-0.4303,-0.4233,-0.4097,-0.403,-0.3961,-0.3828,-0.3629,-0.3496,-0.3362,-0.3295,-0.3226,-0.2958,-0.269,-0.222,-0.1614,-0.0875,-1.5235,-1.4475,-1.4384,-1.4137,-1.3654,-1.3393,-1.3104,-1.2912,-1.2736,-1.2673,-1.2753,-1.2893,-1.3039,-1.2973,-1.2973,-1.2973,-1.282,-1.2526,-1.2378,-1.2365,-1.2278,-1.2124,-1.1819,-1.1817,-1.1332,-1.0639,-1.038,-1.013,-0.9868,-0.9804,-0.967,-0.9542,-0.9548,-0.953,-0.9472,-0.9289,-0.9138,-0.892,-0.8555,-0.8309,-0.8255,-0.8027,-0.7901,-0.7901,-0.7901,-0.7901,-0.7901,-0.7901,-0.7901,-0.7901,-0.7901,-0.7901,-0.7901,-0.7901,-0.7901,-0.7901,-0.7901,-0.7842,-0.7729,-0.7723,-0.7735,-0.7687,-0.758,-0.7521,-0.7467,-0.7461,-0.7408,-0.7413,-0.7413,-0.7359,-0.7307,-0.7228,-0.6979,-0.6557,-0.6009,-0.5736,-0.552,-0.515,-0.4697,-0.4434,-0.4367,-0.4303,-0.4303,-0.4303,-0.4303,-0.4303,-0.4303,-0.4303,-0.4303,-0.4303,-0.4303,-0.4303,-0.4303,-0.4303,-0.4303,-0.4303,-0.4303,-0.4303,-0.4303,-0.4303,-0.43,-0.4167,-0.4097,-0.403,-0.3961,-0.3761,-0.356,-0.3493,-0.3362,-0.3295,-0.3027,-0.2824,-0.242,-0.1882,-0.1412,-1.5982,-1.5318,-1.4992,-1.4692,-1.4283,-1.3808,-1.3526,-1.3459,-1.3287,-1.3207,-1.3339,-1.3702,-1.3783,-1.3564,-1.363,-1.3557,-1.3266,-1.3046,-1.2826,-1.2746,-1.2599,-1.2405,-1.2283,-1.2029,-1.1557,-1.0923,-1.0634,-1.0425,-1.0142,-0.9983,-0.9862,-0.974,-0.974,-0.9612,-0.9542,-0.9388,-0.928,-0.9108,-0.8735,-0.8477,-0.8291,-0.8033,-0.7907,-0.7901,-0.7901,-0.7901,-0.7901,-0.7901,-0.7901,-0.7901,-0.7901,-0.7901,-0.7901,-0.7901,-0.7901,-0.7901,-0.7901,-0.7901,-0.7842,-0.7842,-0.7842,-0.7794,-0.7735,-0.767,-0.7616,-0.7628,-0.758,-0.7521,-0.758,-0.7637,-0.7694,-0.7728,-0.7438,-0.6878,-0.6542,-0.6266,-0.589,-0.5422,-0.4957,-0.4697,-0.4561,-0.4498,-0.4367,-0.4303,-0.43,-0.4303,-0.4303,-0.4303,-0.4303,-0.4303,-0.4303,-0.4303,-0.4303,-0.4303,-0.4303,-0.4303,-0.4303,-0.4303,-0.4303,-0.4303,-0.43,-0.4233,-0.4167,-0.4164,-0.403,-0.3894,-0.3761,-0.3627,-0.3496,-0.3362,-0.3226,-0.2956,-0.2688,-0.2285,-0.1882,-1.6484,-1.5831,-1.5499,-1.5159,-1.4906,-1.4323,-1.4052,-1.3959,-1.3837,-1.371,-1.3855,-1.4346,-1.4425,-1.4281,-1.4418,-1.4353,-1.4129,-1.3848,-1.3622,-1.3331,-1.282,-1.2592,-1.2471,-1.1997,-1.1623,-1.1209,-1.0976,-1.0705,-1.0441,-1.0364,-1.0174,-1.0053,-0.9989,-0.9868,-0.967,-0.9664,-0.9566,-0.9314,-0.8986,-0.8713,-0.845,-0.8087,-0.7901,-0.7901,-0.7901,-0.7901,-0.7901,-0.7901,-0.7901,-0.7901,-0.7901,-0.7901,-0.7901,-0.7901,-0.7901,-0.7901,-0.7901,-0.7901,-0.7901,-0.7901,-0.7901,-0.7901,-0.7788,-0.7783,-0.7783,-0.7794,-0.7747,-0.7687,-0.7681,-0.7792,-0.7958,-0.8052,-0.7846,-0.7597,-0.7249,-0.6854,-0.6294,-0.5811,-0.5286,-0.5024,-0.4824,-0.4694,-0.4498,-0.4431,-0.4364,-0.43,-0.4303,-0.4303,-0.4303,-0.4303,-0.4303,-0.4303,-0.4303,-0.4303,-0.4303,-0.4303,-0.4303,-0.4303,-0.4303,-0.4303,-0.4303,-0.4303,-0.4233,-0.4233,-0.4167,-0.403,-0.3897,-0.383,-0.3696,-0.356,-0.3426,-0.3224,-0.3023,-0.2891,-0.2488,-1.6902,-1.617,-1.5906,-1.5628,-1.5434,-1.4778,-1.4584,-1.4458,-1.4273,-1.4209,-1.4346,-1.484,-1.4982,-1.4974,-1.5125,-1.5204,-1.5133,-1.4705,-1.4418,-1.3977,-1.3258,-1.2659,-1.2384,-1.211,-1.1834,-1.1518,-1.137,-1.1084,-1.0769,-1.0764,-1.0681,-1.0428,-1.0364,-1.0238,-1.011,-1.0047,-0.9983,-0.9819,-0.9392,-0.9011,-0.8814,-0.8306,-0.8026,-0.8014,-0.7955,-0.7955,-0.8008,-0.8008,-0.7955,-0.7901,-0.7901,-0.7901,-0.7901,-0.7901,-0.7901,-0.7901,-0.7901,-0.7901,-0.7901,-0.7901,-0.7901,-0.7901,-0.7901,-0.7901,-0.7901,-0.7901,-0.7854,-0.7848,-0.7788,-0.7852,-0.8134,-0.823,-0.83,-0.8416,-0.8069,-0.7472,-0.6633,-0.6334,-0.6009,-0.5418,-0.5153,-0.502,-0.4761,-0.4694,-0.4498,-0.4367,-0.43,-0.4303,-0.4303,-0.4303,-0.4303,-0.4303,-0.4303,-0.4303,-0.4303,-0.4303,-0.4303,-0.4303,-0.4303,-0.4303,-0.4303,-0.4303,-0.4303,-0.4303,-0.4233,-0.4167,-0.4097,-0.3964,-0.3897,-0.3761,-0.3627,-0.3558,-0.3426,-0.3226,-0.3027,-1.7627,-1.7212,-1.6648,-1.6335,-1.6133,-1.5701,-1.5454,-1.5335,-1.5202,-1.507,-1.5213,-1.5559,-1.5692,-1.5621,-1.5771,-1.5771,-1.5559,-1.5054,-1.4697,-1.4418,-1.363,-1.3112,-1.2813,-1.2663,-1.2456,-1.2158,-1.1908,-1.1703,-1.1467,-1.1291,-1.1185,-1.1052,-1.0933,-1.0807,-1.0618,-1.0491,-1.0434,-1.0395,-1.0091,-0.9709,-0.9421,-0.8983,-0.868,-0.8427,-0.8321,-0.8268,-0.8268,-0.8262,-0.8162,-0.7901,-0.7901,-0.7901,-0.7901,-0.7901,-0.7901,-0.7901,-0.7901,-0.7901,-0.7901,-0.7901,-0.7901,-0.7901,-0.7901,-0.7901,-0.7901,-0.7901,-0.7901,-0.7901,-0.7854,-0.8032,-0.8414,-0.8598,-0.8716,-0.8891,-0.851,-0.8024,-0.7562,-0.7256,-0.6929,-0.6408,-0.6079,-0.5683,-0.5289,-0.496,-0.4764,-0.4561,-0.4431,-0.43,-0.4367,-0.4303,-0.4303,-0.4303,-0.4303,-0.4303,-0.4303,-0.4303,-0.4303,-0.4303,-0.4303,-0.4303,-0.4303,-0.4303,-0.4303,-0.4303,-0.4303,-0.4233,-0.4167,-0.4097,-0.403,-0.3961,-0.3894,-0.3761,-0.3694,-0.3493,-0.3295,-1.8201,-1.7942,-1.7465,-1.7088,-1.6806,-1.6536,-1.6238,-1.5945,-1.58,-1.57,-1.5771,-1.6123,-1.6184,-1.6105,-1.6333,-1.6342,-1.6193,-1.5542,-1.5125,-1.4713,-1.4,-1.3411,-1.3119,-1.3046,-1.2891,-1.272,-1.2535,-1.235,-1.2158,-1.1966,-1.1879,-1.174,-1.1685,-1.1553,-1.1247,-1.1059,-1.0933,-1.0752,-1.0465,-1.0154,-0.9919,-0.9439,-0.9117,-0.885,-0.8718,-0.8586,-0.8586,-0.8586,-0.8427,-0.8168,-0.8062,-0.7955,-0.7901,-0.7901,-0.7901,-0.7901,-0.7901,-0.7901,-0.7901,-0.7901,-0.7901,-0.7901,-0.7901,-0.7901,-0.7901,-0.7901,-0.7901,-0.7901,-0.7901,-0.8165,-0.8591,-0.8867,-0.9142,-0.9273,-0.9022,-0.863,-0.8447,-0.8107,-0.7717,-0.726,-0.6806,-0.6346,-0.5822,-0.5359,-0.5093,-0.4827,-0.4561,-0.4498,-0.4431,-0.4367,-0.43,-0.43,-0.43,-0.43,-0.43,-0.4303,-0.4303,-0.4303,-0.4303,-0.4303,-0.4303,-0.4303,-0.4303,-0.4303,-0.4303,-0.4303,-0.4233,-0.4167,-0.4167,-0.4097,-0.403,-0.3961,-0.3897,-0.3761,-0.3563,-1.8612,-1.8434,-1.8149,-1.7749,-1.7424,-1.708,-1.6667,-1.6396,-1.6272,-1.6114,-1.6097,-1.6455,-1.6533,-1.6524,-1.6691,-1.6839,-1.683,-1.6053,-1.548,-1.4919,-1.4217,-1.3645,-1.3492,-1.3484,-1.3417,-1.3279,-1.3188,-1.3002,-1.2881,-1.2845,-1.2683,-1.2482,-1.2544,-1.2297,-1.1988,-1.1809,-1.156,-1.1329,-1.102,-1.0774,-1.0499,-1.01,-0.9743,-0.9473,-0.9064,-0.8962,-0.8956,-0.8903,-0.8798,-0.8573,-0.8374,-0.8168,-0.8008,-0.7901,-0.8008,-0.8002,-0.7996,-0.7943,-0.7949,-0.7949,-0.7901,-0.7955,-0.7955,-0.7901,-0.7901,-0.7901,-0.7925,-0.7985,-0.7949,-0.8237,-0.8693,-0.9172,-0.9394,-0.9484,-0.942,-0.9361,-0.9174,-0.8829,-0.8425,-0.7972,-0.7521,-0.6999,-0.6474,-0.5947,-0.5617,-0.5355,-0.5024,-0.4824,-0.4758,-0.4628,-0.4498,-0.4364,-0.4364,-0.4298,-0.43,-0.4303,-0.4303,-0.4303,-0.4303,-0.4303,-0.4303,-0.4303,-0.4303,-0.4303,-0.4303,-0.4303,-0.4303,-0.43,-0.43,-0.4233,-0.4167,-0.4164,-0.4097,-0.3964,-0.3763,-1.8931,-1.8816,-1.8267,-1.7914,-1.7676,-1.7293,-1.6982,-1.6756,-1.6736,-1.6612,-1.6682,-1.676,-1.683,-1.683,-1.6839,-1.6908,-1.6839,-1.6272,-1.5559,-1.4569,-1.4072,-1.4072,-1.4209,-1.4209,-1.4307,-1.4285,-1.3862,-1.376,-1.381,-1.3443,-1.3208,-1.3208,-1.3155,-1.2972,-1.2736,-1.2552,-1.2428,-1.222,-1.2028,-1.1859,-1.1607,-1.1218,-1.0793,-1.0305,-0.9737,-0.9532,-0.9562,-0.9458,-0.951,-0.9451,-0.9047,-0.854,-0.8221,-0.8381,-0.8586,-0.8527,-0.8178,-0.8066,-0.8302,-0.815,-0.799,-0.8115,-0.8008,-0.7901,-0.7901,-0.7919,-0.8009,-0.8141,-0.8213,-0.8435,-0.8951,-0.9274,-0.9448,-0.9478,-0.9478,-0.9484,-0.9426,-0.9215,-0.8952,-0.863,-0.8242,-0.7847,-0.7377,-0.6798,-0.6338,-0.5947,-0.5617,-0.5286,-0.5087,-0.4957,-0.4758,-0.4561,-0.4495,-0.4498,-0.43,-0.4303,-0.4303,-0.4303,-0.4303,-0.4303,-0.4303,-0.4303,-0.4303,-0.4303,-0.4303,-0.4303,-0.4303,-0.4303,-0.4303,-0.4303,-0.4303,-0.4233,-0.4167,-0.4097,-0.3964,-1.887,-1.8843,-1.829,-1.7968,-1.767,-1.7442,-1.7204,-1.6954,-1.6908,-1.6908,-1.6908,-1.6908,-1.6908,-1.6908,-1.6908,-1.6908,-1.6691,-1.6132,-1.5346,-1.4641,-1.4289,-1.4425,-1.4848,-1.5007,-1.5133,-1.5213,-1.4656,-1.4486,-1.4396,-1.4081,-1.3769,-1.3752,-1.37,-1.3588,-1.3407,-1.3224,-1.3033,-1.2842,-1.2781,-1.2676,-1.2462,-1.2193,-1.1678,-1.105,-1.0541,-1.0241,-1.019,-1.0138,-1.0146,-1.0095,-0.9836,-0.9271,-0.8692,-0.8798,-0.9061,-0.9211,-0.8705,-0.8482,-0.862,-0.8633,-0.848,-0.8374,-0.8215,-0.8109,-0.8104,-0.8057,-0.8135,-0.8279,-0.8417,-0.8645,-0.9083,-0.9379,-0.9454,-0.9478,-0.9478,-0.9478,-0.9478,-0.9408,-0.9344,-0.9092,-0.8829,-0.8431,-0.8032,-0.7517,-0.719,-0.6798,-0.6207,-0.5877,-0.5617,-0.5418,-0.5024,-0.4824,-0.4761,-0.4628,-0.4367,-0.4303,-0.4303,-0.4303,-0.4303,-0.4303,-0.4303,-0.4303,-0.4303,-0.4303,-0.4303,-0.4303,-0.4303,-0.4303,-0.4303,-0.4303,-0.4303,-0.4303,-0.43,-0.4233,-0.4097,-1.8623,-1.8586,-1.8192,-1.7825,-1.7523,-1.7422,-1.7202,-1.6936,-1.6908,-1.6908,-1.6908,-1.6908,-1.6908,-1.6908,-1.6908,-1.6908,-1.6621,-1.5982,-1.5275,-1.4856,-1.4649,-1.4856,-1.5275,-1.5568,-1.579,-1.5826,-1.5251,-1.5011,-1.4912,-1.4586,-1.4156,-1.4139,-1.4207,-1.4079,-1.389,-1.3709,-1.358,-1.339,-1.3268,-1.3191,-1.3132,-1.2881,-1.2355,-1.1714,-1.1245,-1.0945,-1.0845,-1.0769,-1.0718,-1.0675,-1.0624,-1.0205,-0.9732,-0.942,-0.9524,-0.9999,-0.934,-0.9138,-0.9166,-0.918,-0.9127,-0.8738,-0.8527,-0.8406,-0.8327,-0.8325,-0.8377,-0.8501,-0.8687,-0.892,-0.918,-0.9334,-0.9466,-0.9478,-0.9478,-0.9478,-0.9478,-0.9478,-0.9484,-0.942,-0.9151,-0.8818,-0.8554,-0.8166,-0.7907,-0.7587,-0.6994,-0.6535,-0.6276,-0.5947,-0.555,-0.5153,-0.5024,-0.4628,-0.4367,-0.4303,-0.4303,-0.4303,-0.4303,-0.4303,-0.4303,-0.4303,-0.4303,-0.4303,-0.4303,-0.4303,-0.4303,-0.4303,-0.4303,-0.4303,-0.4303,-0.4303,-0.4303,-0.4303,-0.4233,-1.8219,-1.8192,-1.7779,-1.755,-1.744,-1.7156,-1.6982,-1.6917,-1.6908,-1.6908,-1.6908,-1.6908,-1.6908,-1.6908,-1.6908,-1.683,-1.6542,-1.6053,-1.563,-1.5284,-1.5078,-1.5213,-1.57,-1.5912,-1.6122,-1.6031,-1.559,-1.5375,-1.5278,-1.4876,-1.4423,-1.4387,-1.4455,-1.4327,-1.4267,-1.4148,-1.401,-1.389,-1.3821,-1.3752,-1.3726,-1.3518,-1.313,-1.2376,-1.1989,-1.1688,-1.1421,-1.1293,-1.1226,-1.1276,-1.1116,-1.0972,-1.0718,-1.036,-1.0213,-1.0257,-0.9999,-0.9681,-0.9695,-0.9777,-0.9561,-0.9166,-0.8784,-0.8657,-0.8587,-0.8515,-0.857,-0.8933,-0.9186,-0.9409,-0.94,-0.9518,-0.9536,-0.9548,-0.9542,-0.9542,-0.9542,-0.9542,-0.9542,-0.9478,-0.9344,-0.921,-0.8947,-0.8753,-0.8495,-0.8236,-0.7782,-0.7326,-0.6999,-0.6671,-0.6207,-0.5749,-0.5219,-0.4827,-0.4367,-0.43,-0.4303,-0.4303,-0.4303,-0.4303,-0.4303,-0.4303,-0.4303,-0.4367,-0.4367,-0.4367,-0.43,-0.4367,-0.4367,-0.4498,-0.4434,-0.4367,-0.4434,-0.4498,-0.4431,-1.8016,-1.7916,-1.75,-1.7254,-1.7156,-1.6991,-1.6908,-1.6908,-1.6908,-1.6908,-1.6908,-1.6908,-1.6908,-1.6908,-1.6908,-1.683,-1.6542,-1.6263,-1.5982,-1.578,-1.5647,-1.5709,-1.6053,-1.6263,-1.6309,-1.6169,-1.5787,-1.5442,-1.5349,-1.4808,-1.4543,-1.4515,-1.4515,-1.4455,-1.4387,-1.4387,-1.4327,-1.4258,-1.4258,-1.4258,-1.4231,-1.4037,-1.3566,-1.3224,-1.2841,-1.2538,-1.2316,-1.2032,-1.1885,-1.1748,-1.148,-1.1344,-1.1175,-1.1023,-1.0718,-1.0667,-1.0403,-1.0249,-1.0154,-1.0236,-1.0014,-0.9472,-0.9106,-0.8931,-0.8854,-0.8783,-0.8853,-0.921,-0.9472,-0.967,-0.9722,-0.9734,-0.9798,-0.9862,-0.9798,-0.9734,-0.9728,-0.9664,-0.96,-0.96,-0.9472,-0.9408,-0.935,-0.9151,-0.9017,-0.8823,-0.8506,-0.8112,-0.7722,-0.7326,-0.6798,-0.5943,-0.5352,-0.4891,-0.4498,-0.4434,-0.4367,-0.4367,-0.4367,-0.4367,-0.4434,-0.45,-0.4564,-0.4631,-0.4564,-0.4564,-0.4498,-0.4564,-0.4628,-0.4694,-0.4761,-0.4764,-0.4761,-0.4694,-0.4628,-1.7882,-1.7731,-1.7385,-1.7176,-1.7047,-1.7056,-1.6978,-1.6968,-1.6968,-1.6978,-1.6908,-1.6908,-1.6908,-1.6908,-1.6908,-1.683,-1.6603,-1.6403,-1.6263,-1.6193,-1.6132,-1.6202,-1.6333,-1.648,-1.6428,-1.6044,-1.5872,-1.5487,-1.5139,-1.4717,-1.4552,-1.4515,-1.4515,-1.4515,-1.4515,-1.4455,-1.4515,-1.4515,-1.4515,-1.4515,-1.4423,-1.4203,-1.3947,-1.3939,-1.3561,-1.3314,-1.3014,-1.2787,-1.2474,-1.2183,-1.1885,-1.1624,-1.1344,-1.1276,-1.1167,-1.0956,-1.0728,-1.0592,-1.0557,-1.0462,-1.0249,-0.9777,-0.9485,-0.9315,-0.9177,-0.9174,-0.9218,-0.9515,-0.9804,-0.9989,-1.011,-1.0168,-1.0238,-1.0301,-1.0238,-1.011,-1.004,-0.9913,-0.9849,-0.9786,-0.967,-0.9542,-0.9542,-0.9414,-0.928,-0.921,-0.8894,-0.8635,-0.8242,-0.7847,-0.7256,-0.6207,-0.5484,-0.4957,-0.4628,-0.4498,-0.4498,-0.4564,-0.4564,-0.4564,-0.4631,-0.4694,-0.4827,-0.496,-0.509,-0.5156,-0.4957,-0.4891,-0.5024,-0.5156,-0.5223,-0.5292,-0.5226,-0.5156,-0.509,-1.7546,-1.7546,-1.7489,-1.7461,-1.7401,-1.7401,-1.7323,-1.7166,-1.7176,-1.7038,-1.6908,-1.6908,-1.6908,-1.6908,-1.6908,-1.6908,-1.676,-1.6682,-1.6542,-1.6473,-1.6412,-1.6412,-1.6542,-1.6603,-1.6306,-1.5964,-1.5744,-1.546,-1.5056,-1.4662,-1.4524,-1.4515,-1.4515,-1.4515,-1.4515,-1.4515,-1.4515,-1.4515,-1.4515,-1.4515,-1.4506,-1.4433,-1.4212,-1.3992,-1.3837,-1.369,-1.3414,-1.3232,-1.2995,-1.2563,-1.2446,-1.2006,-1.1497,-1.1528,-1.1477,-1.1276,-1.1015,-1.0812,-1.0667,-1.0608,-1.0494,-1.0194,-0.9923,-0.9798,-0.9639,-0.9516,-0.9536,-0.9755,-1.006,-1.0308,-1.0491,-1.0737,-1.08,-1.08,-1.0737,-1.0541,-1.0338,-1.0421,-1.0351,-1.0295,-1.0244,-0.9926,-0.967,-0.9606,-0.9478,-0.9414,-0.9285,-0.9022,-0.8694,-0.8236,-0.7587,-0.6539,-0.5749,-0.5223,-0.4957,-0.4761,-0.4764,-0.4761,-0.4827,-0.4827,-0.496,-0.509,-0.5355,-0.5488,-0.5617,-0.5749,-0.562,-0.5557,-0.5554,-0.562,-0.5752,-0.5822,-0.5822,-0.5686,-0.5617,-1.7735,-1.7579,-1.7579,-1.7598,-1.7539,-1.7461,-1.747,-1.7392,-1.7392,-1.7254,-1.7107,-1.7107,-1.7047,-1.6908,-1.6908,-1.6908,-1.6899,-1.683,-1.676,-1.6751,-1.6691,-1.67,-1.676,-1.6715,-1.6401,-1.5872,-1.5615,-1.5304,-1.4909,-1.4643,-1.4515,-1.4515,-1.4515,-1.4515,-1.4515,-1.4515,-1.4515,-1.4515,-1.4515,-1.4515,-1.4515,-1.4506,-1.4423,-1.424,-1.4222,-1.4112,-1.3965,-1.3708,-1.3515,-1.3159,-1.2842,-1.2214,-1.1734,-1.1628,-1.1628,-1.1519,-1.125,-1.1057,-1.082,-1.0702,-1.0609,-1.0522,-1.0339,-1.0086,-0.9978,-0.9842,-0.9862,-1.0053,-1.0434,-1.0681,-1.0933,-1.1185,-1.1303,-1.1303,-1.1303,-1.1038,-1.0905,-1.0919,-1.0933,-1.0877,-1.0814,-1.0434,-1.0053,-0.9862,-0.967,-0.9484,-0.9414,-0.921,-0.8753,-0.8231,-0.7587,-0.6811,-0.6148,-0.5557,-0.5355,-0.5223,-0.516,-0.5226,-0.5289,-0.5289,-0.5418,-0.555,-0.5815,-0.6017,-0.6214,-0.6214,-0.6156,-0.6152,-0.6083,-0.6214,-0.628,-0.6346,-0.635,-0.6346,-0.621,-1.793,-1.7784,-1.7784,-1.7725,-1.7598,-1.7608,-1.7598,-1.752,-1.7529,-1.7451,-1.7314,-1.7235,-1.7107,-1.6968,-1.6908,-1.6908,-1.6908,-1.6908,-1.6908,-1.6908,-1.6908,-1.6908,-1.6908,-1.6853,-1.6486,-1.5698,-1.5689,-1.5267,-1.4763,-1.4515,-1.4515,-1.4515,-1.4515,-1.4515,-1.4515,-1.4515,-1.4515,-1.4515,-1.4515,-1.4515,-1.4515,-1.4515,-1.4515,-1.4497,-1.4515,-1.4515,-1.446,-1.424,-1.3981,-1.3605,-1.3259,-1.2715,-1.2196,-1.2061,-1.201,-1.1822,-1.1608,-1.1336,-1.1157,-1.1069,-1.095,-1.0824,-1.0743,-1.0538,-1.0383,-1.019,-1.0168,-1.0498,-1.0737,-1.1115,-1.1435,-1.1685,-1.1809,-1.1872,-1.1809,-1.16,-1.1469,-1.1483,-1.1575,-1.1659,-1.1464,-1.0996,-1.0618,-1.0308,-0.9989,-0.9612,-0.9478,-0.9338,-0.8941,-0.842,-0.7907,-0.7199,-0.6609,-0.6148,-0.6013,-0.5815,-0.5752,-0.569,-0.5818,-0.5881,-0.6013,-0.6145,-0.6346,-0.6544,-0.6741,-0.6806,-0.6811,-0.6745,-0.6613,-0.6675,-0.6806,-0.6872,-0.6872,-0.6872,-0.6741,-1.8008,-1.7998,-1.8008,-1.794,-1.7949,-1.794,-1.7862,-1.7706,-1.7706,-1.7588,-1.7461,-1.7314,-1.7245,-1.7176,-1.7047,-1.6978,-1.6917,-1.6908,-1.6978,-1.6978,-1.6908,-1.6908,-1.6908,-1.6798,-1.6505,-1.5808,-1.568,-1.5249,-1.4698,-1.4515,-1.4515,-1.4515,-1.4515,-1.4515,-1.4515,-1.4515,-1.4515,-1.4515,-1.4515,-1.4515,-1.4515,-1.4515,-1.4515,-1.4515,-1.4515,-1.4515,-1.4506,-1.4433,-1.4277,-1.3917,-1.3736,-1.3516,-1.2994,-1.2684,-1.2491,-1.2307,-1.199,-1.1766,-1.1616,-1.1553,-1.1506,-1.1333,-1.1195,-1.1182,-1.1084,-1.0683,-1.0681,-1.1003,-1.1303,-1.1483,-1.1926,-1.2243,-1.2313,-1.2243,-1.2189,-1.212,-1.1988,-1.1988,-1.2081,-1.2321,-1.2056,-1.1505,-1.1059,-1.0681,-1.018,-0.9798,-0.9548,-0.9408,-0.9139,-0.8683,-0.8301,-0.7787,-0.7134,-0.6802,-0.6732,-0.6601,-0.6474,-0.6478,-0.6539,-0.6609,-0.6745,-0.6876,-0.6942,-0.7003,-0.7134,-0.733,-0.7396,-0.7204,-0.7073,-0.7199,-0.7265,-0.7199,-0.7199,-0.7199,-0.7068,-1.8076,-1.8008,-1.8008,-1.8008,-1.8008,-1.8008,-1.794,-1.7862,-1.7862,-1.7794,-1.7588,-1.7451,-1.7392,-1.7392,-1.7323,-1.7254,-1.7254,-1.7263,-1.7254,-1.7185,-1.7185,-1.7107,-1.7028,-1.6849,-1.6496,-1.5845,-1.5652,-1.5285,-1.4588,-1.4524,-1.4515,-1.4515,-1.4515,-1.4515,-1.4515,-1.4515,-1.4515,-1.4515,-1.4515,-1.4515,-1.4515,-1.4515,-1.4515,-1.4515,-1.4515,-1.4515,-1.4515,-1.4515,-1.4405,-1.4249,-1.4029,-1.3864,-1.3708,-1.3323,-1.3014,-1.2813,-1.2485,-1.228,-1.2172,-1.2081,-1.1918,-1.1963,-1.1949,-1.1966,-1.1732,-1.124,-1.1247,-1.156,-1.1872,-1.2112,-1.2182,-1.2436,-1.256,-1.2498,-1.2498,-1.2436,-1.2375,-1.2313,-1.2321,-1.2414,-1.2282,-1.1934,-1.149,-1.1052,-1.0555,-0.9983,-0.9734,-0.9478,-0.921,-0.9011,-0.8624,-0.8366,-0.7782,-0.7461,-0.7391,-0.726,-0.7129,-0.7129,-0.7199,-0.7265,-0.7269,-0.7339,-0.74,-0.7466,-0.7396,-0.7461,-0.7461,-0.7461,-0.7396,-0.7396,-0.7396,-0.7461,-0.7461,-0.7396,-0.7204,-1.8202,-1.8076,-1.8076,-1.8076,-1.8008,-1.8008,-1.8008,-1.8008,-1.8008,-1.793,-1.7784,-1.7657,-1.7529,-1.7529,-1.747,-1.747,-1.7461,-1.7461,-1.7461,-1.7392,-1.7323,-1.7314,-1.7245,-1.6995,-1.6631,-1.5928,-1.5625,-1.5285,-1.4543,-1.4524,-1.4515,-1.4515,-1.4515,-1.4515,-1.4515,-1.4515,-1.4515,-1.4515,-1.4515,-1.4515,-1.4515,-1.4515,-1.4515,-1.4515,-1.4515,-1.4515,-1.4515,-1.4515,-1.4515,-1.4405,-1.4295,-1.4268,-1.4148,-1.3965,-1.3532,-1.3338,-1.3081,-1.2811,-1.2663,-1.2449,-1.2349,-1.2571,-1.257,-1.2565,-1.2359,-1.1926,-1.2058,-1.212,-1.2436,-1.256,-1.2428,-1.256,-1.2621,-1.256,-1.256,-1.2498,-1.2498,-1.2436,-1.2436,-1.2444,-1.2243,-1.2058,-1.149,-1.0989,-1.0364,-0.9926,-0.967,-0.9478,-0.9408,-0.921,-0.9011,-0.8753,-0.8495,-0.8242,-0.8052,-0.7852,-0.7717,-0.7727,-0.7792,-0.7722,-0.7727,-0.7792,-0.7731,-0.7596,-0.7531,-0.7526,-0.7526,-0.7461,-0.7461,-0.7526,-0.7526,-0.7526,-0.7335,-0.7269,-0.7073,-1.8337,-1.8279,-1.8279,-1.8212,-1.8076,-1.8008,-1.8018,-1.8076,-1.8076,-1.8008,-1.8008,-1.7784,-1.7706,-1.7716,-1.7666,-1.7666,-1.7598,-1.7598,-1.7539,-1.7539,-1.7529,-1.747,-1.7364,-1.7173,-1.6673,-1.6132,-1.5761,-1.5371,-1.4575,-1.4625,-1.4575,-1.4515,-1.4515,-1.4515,-1.4515,-1.4515,-1.4515,-1.4515,-1.4515,-1.4515,-1.4515,-1.4515,-1.4515,-1.4515,-1.4515,-1.4515,-1.4515,-1.4515,-1.4515,-1.4478,-1.446,-1.4442,-1.4414,-1.413,-1.3862,-1.372,-1.3496,-1.3282,-1.3129,-1.2837,-1.2932,-1.3126,-1.3139,-1.2972,-1.2867,-1.2805,-1.2736,-1.2683,-1.2683,-1.2621,-1.2621,-1.2621,-1.2621,-1.2621,-1.2621,-1.2621,-1.256,-1.2436,-1.2428,-1.2243,-1.212,-1.1941,-1.1435,-1.0863,-1.0174,-0.9798,-0.9542,-0.9478,-0.9478,-0.9344,-0.921,-0.9145,-0.8952,-0.8823,-0.8571,-0.8371,-0.8242,-0.8317,-0.8252,-0.8182,-0.8047,-0.7982,-0.7852,-0.7727,-0.7727,-0.7722,-0.7591,-0.7526,-0.7526,-0.7596,-0.7526,-0.7461,-0.7269,-0.7073,-0.6876,-1.8674,-1.8405,-1.8414,-1.8414,-1.8347,-1.8357,-1.8347,-1.8347,-1.8337,-1.8347,-1.8347,-1.8269,-1.8202,-1.8192,-1.8066,-1.8008,-1.8008,-1.7872,-1.7881,-1.7813,-1.7735,-1.7657,-1.7522,-1.7187,-1.6741,-1.6268,-1.5936,-1.5567,-1.4862,-1.4911,-1.4793,-1.4675,-1.4625,-1.4515,-1.4515,-1.4515,-1.4515,-1.4515,-1.4515,-1.4515,-1.4515,-1.4515,-1.4515,-1.4515,-1.4515,-1.4515,-1.4515,-1.4515,-1.4515,-1.4515,-1.4515,-1.4515,-1.4515,-1.4277,-1.4227,-1.4227,-1.4112,-1.4108,-1.3983,-1.3841,-1.369,-1.3631,-1.3536,-1.3407,-1.3338,-1.3277,-1.3224,-1.305,-1.2928,-1.2858,-1.2736,-1.2744,-1.2752,-1.2621,-1.2621,-1.2621,-1.256,-1.2428,-1.2297,-1.205,-1.1864,-1.1373,-1.087,-1.0555,-0.9989,-0.9734,-0.9542,-0.9478,-0.9478,-0.9478,-0.9408,-0.9414,-0.928,-0.9215,-0.9087,-0.8868,-0.8685,-0.8636,-0.8609,-0.8441,-0.8371,-0.8257,-0.8042,-0.7922,-0.7922,-0.7917,-0.7787,-0.7657,-0.7661,-0.7596,-0.7591,-0.7396,-0.7204,-0.6937,-0.6671,-1.8998,-1.8741,-1.8674,-1.8741,-1.8731,-1.8674,-1.8617,-1.8684,-1.8674,-1.8684,-1.8741,-1.8751,-1.8684,-1.8607,-1.8539,-1.8337,-1.8337,-1.8202,-1.8008,-1.8008,-1.7862,-1.7746,-1.7552,-1.7234,-1.6828,-1.6384,-1.6159,-1.5799,-1.5332,-1.5323,-1.5196,-1.502,-1.4843,-1.4852,-1.4743,-1.4634,-1.4515,-1.4515,-1.4515,-1.4515,-1.4515,-1.4515,-1.4515,-1.4515,-1.4515,-1.4515,-1.4515,-1.4515,-1.4515,-1.4515,-1.4515,-1.4515,-1.4515,-1.4515,-1.4515,-1.4515,-1.4515,-1.4506,-1.4378,-1.4318,-1.4121,-1.4019,-1.389,-1.37,-1.3571,-1.345,-1.3407,-1.3294,-1.3224,-1.3042,-1.292,-1.2928,-1.2813,-1.2744,-1.2683,-1.2691,-1.256,-1.2428,-1.2112,-1.1864,-1.149,-1.0926,-1.0364,-1.0117,-0.9798,-0.967,-0.9478,-0.9478,-0.9478,-0.9478,-0.9478,-0.9478,-0.9478,-0.9344,-0.9332,-0.9349,-0.9165,-0.9029,-0.8941,-0.8853,-0.8712,-0.8608,-0.8359,-0.8112,-0.8112,-0.8047,-0.7982,-0.7857,-0.7731,-0.7661,-0.7596,-0.74,-0.7138,-0.6806,-0.6478,-1.9253,-1.9131,-1.9142,-1.9187,-1.9243,-1.9054,-1.9008,-1.9131,-1.9131,-1.9131,-1.9131,-1.9131,-1.9075,-1.8875,-1.8808,-1.8674,-1.8414,-1.8337,-1.8152,-1.7997,-1.7871,-1.7789,-1.7543,-1.7307,-1.6918,-1.6616,-1.6447,-1.6323,-1.5961,-1.5768,-1.5584,-1.5468,-1.5352,-1.5303,-1.5147,-1.4921,-1.4684,-1.4565,-1.4565,-1.4506,-1.4515,-1.4515,-1.4515,-1.4515,-1.4515,-1.4515,-1.4515,-1.4515,-1.4515,-1.4515,-1.4515,-1.4515,-1.4515,-1.4515,-1.4515,-1.4515,-1.4515,-1.4515,-1.4515,-1.4455,-1.4396,-1.4207,-1.4019,-1.3761,-1.3631,-1.3571,-1.3459,-1.3467,-1.3407,-1.3224,-1.3103,-1.305,-1.2989,-1.2867,-1.2813,-1.2683,-1.256,-1.2305,-1.1996,-1.1677,-1.1247,-1.0744,-1.011,-0.9798,-0.974,-0.9606,-0.9478,-0.9478,-0.9478,-0.9478,-0.9478,-0.9478,-0.9478,-0.9408,-0.9479,-0.9521,-0.9538,-0.934,-0.9302,-0.9224,-0.9136,-0.892,-0.8625,-0.8436,-0.8301,-0.8172,-0.8182,-0.7992,-0.7797,-0.7727,-0.7661,-0.74,-0.7204,-0.6745,-0.635,-1.9987,-1.9781,-1.9781,-1.9846,-1.9901,-2.0042,-2.0053,-2.0042,-2.0042,-1.9977,-1.977,-1.9846,-1.9726,-1.9539,-1.932,-1.9044,-1.8787,-1.8489,-1.8175,-1.7942,-1.7737,-1.7516,-1.7336,-1.7203,-1.6982,-1.6946,-1.6842,-1.6806,-1.6555,-1.6275,-1.6151,-1.6026,-1.5968,-1.5816,-1.5652,-1.543,-1.5069,-1.4775,-1.4725,-1.4616,-1.4565,-1.4506,-1.4506,-1.4515,-1.4515,-1.4515,-1.4515,-1.4515,-1.4515,-1.4515,-1.4515,-1.4515,-1.4515,-1.4515,-1.4515,-1.4515,-1.4515,-1.4515,-1.4515,-1.4515,-1.4455,-1.4327,-1.4207,-1.4079,-1.389,-1.37,-1.358,-1.358,-1.358,-1.3459,-1.3346,-1.3233,-1.3119,-1.2936,-1.2875,-1.2744,-1.2621,-1.2367,-1.2058,-1.1615,-1.1185,-1.0555,-0.9919,-0.9734,-0.9606,-0.9542,-0.9478,-0.9478,-0.9478,-0.9478,-0.9478,-0.9478,-0.9478,-0.9478,-0.9568,-0.9676,-0.9651,-0.9661,-0.96,-0.9522,-0.9325,-0.9091,-0.8885,-0.8722,-0.8565,-0.8484,-0.8387,-0.8187,-0.7922,-0.7857,-0.7792,-0.7466,-0.7138,-0.6749,-0.642,-1.995,-1.9802,-1.9802,-1.9928,-2.0093,-2.0353,-2.0414,-2.0398,-2.0635,-2.0624,-2.056,-2.056,-2.0442,-2.0074,-1.9652,-1.9221,-1.884,-1.8267,-1.789,-1.7576,-1.7486,-1.7375,-1.7206,-1.716,-1.7189,-1.7248,-1.734,-1.7345,-1.719,-1.7067,-1.6944,-1.6877,-1.6652,-1.6549,-1.6446,-1.6275,-1.5921,-1.5468,-1.5118,-1.4784,-1.4666,-1.4556,-1.4556,-1.4506,-1.4515,-1.4515,-1.4515,-1.4515,-1.4515,-1.4515,-1.4515,-1.4515,-1.4515,-1.4515,-1.4515,-1.4515,-1.4515,-1.4515,-1.4515,-1.4515,-1.4455,-1.4387,-1.4387,-1.4327,-1.4139,-1.395,-1.389,-1.383,-1.3761,-1.364,-1.3588,-1.3476,-1.3241,-1.3005,-1.2936,-1.2805,-1.2621,-1.2428,-1.205,-1.1553,-1.0989,-1.0358,-0.9919,-0.9734,-0.9542,-0.9542,-0.9478,-0.9478,-0.9478,-0.9478,-0.9478,-0.9478,-0.9478,-0.9484,-0.9586,-0.9682,-0.9735,-0.9807,-0.9807,-0.965,-0.9475,-0.9323,-0.9119,-0.9,-0.8931,-0.8854,-0.8717,-0.8403,-0.8107,-0.8047,-0.7922,-0.7727,-0.74,-0.7007,-0.6613,-1.9559,-1.9403,-1.9346,-1.9723,-2.0123,-2.0287,-2.0345,-2.0369,-2.083,-2.1083,-2.1037,-2.106,-2.0728,-2.0232,-1.9747,-1.9239,-1.8775,-1.8124,-1.7687,-1.7244,-1.7244,-1.7175,-1.7197,-1.7217,-1.7399,-1.7601,-1.781,-1.7909,-1.803,-1.7909,-1.7678,-1.7776,-1.7611,-1.7446,-1.7234,-1.7134,-1.6832,-1.6368,-1.5816,-1.542,-1.4951,-1.4715,-1.4656,-1.4556,-1.4506,-1.4515,-1.4515,-1.4515,-1.4515,-1.4515,-1.4515,-1.4515,-1.4515,-1.4515,-1.4515,-1.4515,-1.4515,-1.4515,-1.4515,-1.4515,-1.4515,-1.4455,-1.4515,-1.4455,-1.4327,-1.4198,-1.4139,-1.4079,-1.401,-1.3881,-1.3769,-1.3649,-1.3476,-1.318,-1.2989,-1.2805,-1.2621,-1.2428,-1.205,-1.1615,-1.1178,-1.0548,-1.0104,-0.9919,-0.9734,-0.9606,-0.9478,-0.9478,-0.9478,-0.9478,-0.9478,-0.9478,-0.9478,-0.949,-0.9556,-0.9664,-0.9814,-0.9874,-0.9874,-0.9801,-0.9644,-0.9544,-0.9355,-0.9351,-0.9361,-0.9187,-0.9081,-0.8755,-0.8435,-0.8166,-0.8042,-0.7917,-0.7661,-0.7269,-0.7007,-1.9936,-1.9878,-1.9936,-2.0041,-2.0216,-2.0262,-2.0377,-2.0553,-2.0664,-2.0559,-2.0428,-2.038,-2.0296,-2.0067,-1.9629,-1.9155,-1.8746,-1.8055,-1.7674,-1.7295,-1.7081,-1.7064,-1.712,-1.7316,-1.7634,-1.7954,-1.8224,-1.841,-1.8518,-1.841,-1.8247,-1.8193,-1.8127,-1.7963,-1.7854,-1.781,-1.7512,-1.7168,-1.6832,-1.6104,-1.5468,-1.5137,-1.497,-1.4784,-1.4666,-1.4616,-1.4565,-1.4515,-1.4515,-1.4515,-1.4515,-1.4515,-1.4515,-1.4515,-1.4515,-1.4515,-1.4515,-1.4515,-1.4515,-1.4515,-1.4515,-1.4515,-1.4515,-1.4515,-1.4455,-1.4387,-1.4327,-1.4267,-1.4198,-1.4079,-1.395,-1.383,-1.3649,-1.3346,-1.305,-1.2805,-1.2621,-1.2367,-1.2112,-1.174,-1.1365,-1.0926,-1.0485,-1.0174,-0.9926,-0.9734,-0.9542,-0.9478,-0.9478,-0.9478,-0.9478,-0.9478,-0.9478,-0.9502,-0.955,-0.9622,-0.976,-0.9856,-0.9874,-0.9874,-0.9825,-0.9849,-0.9799,-0.9793,-0.9817,-0.9622,-0.9457,-0.9181,-0.8854,-0.8435,-0.8236,-0.8177,-0.8052,-0.7727,-0.7466,-1.9598,-1.9586,-1.9586,-1.9642,-1.9698,-1.9754,-1.9821,-1.9889,-1.9901,-1.9777,-1.9773,-2.0037,-2.0216,-1.9948,-1.9529,-1.9066,-1.8622,-1.7921,-1.7355,-1.7011,-1.6979,-1.7062,-1.721,-1.7468,-1.7931,-1.8344,-1.8614,-1.8786,-1.8839,-1.8786,-1.8679,-1.8637,-1.8518,-1.8464,-1.8422,-1.829,-1.8127,-1.7909,-1.7678,-1.7112,-1.6255,-1.5874,-1.5488,-1.5177,-1.501,-1.4911,-1.4793,-1.4684,-1.4616,-1.4556,-1.4506,-1.4515,-1.4515,-1.4515,-1.4515,-1.4515,-1.4515,-1.4515,-1.4515,-1.4515,-1.4515,-1.4515,-1.4515,-1.4515,-1.4515,-1.4455,-1.4455,-1.4396,-1.4396,-1.4267,-1.401,-1.389,-1.3657,-1.3354,-1.318,-1.2997,-1.2813,-1.256,-1.2305,-1.2058,-1.1747,-1.1428,-1.0989,-1.0485,-1.0238,-0.9862,-0.967,-0.9542,-0.9542,-0.9542,-0.9542,-0.9478,-0.9478,-0.9478,-0.9502,-0.958,-0.9688,-0.9778,-0.988,-0.9982,-1.006,-1.0185,-1.0218,-1.0243,-1.019,-1.0032,-0.9777,-0.9531,-0.9086,-0.8685,-0.8511,-0.8436,-0.8247,-0.8117,-0.7857,-1.9035,-1.8987,-1.9011,-1.9011,-1.8999,-1.9011,-1.9035,-1.9035,-1.9023,-1.9035,-1.9167,-1.9941,-2.022,-1.9963,-1.9557,-1.8998,-1.8374,-1.7798,-1.7197,-1.6871,-1.6804,-1.7054,-1.739,-1.7744,-1.8247,-1.8625,-1.8893,-1.8946,-1.8999,-1.8946,-1.8946,-1.8987,-1.8999,-1.8946,-1.8839,-1.8798,-1.8637,-1.841,-1.8182,-1.7952,-1.739,-1.6729,-1.6161,-1.5768,-1.5488,-1.5332,-1.5147,-1.502,-1.4834,-1.4656,-1.4556,-1.4506,-1.4515,-1.4515,-1.4515,-1.4515,-1.4515,-1.4515,-1.4515,-1.4515,-1.4515,-1.4515,-1.4515,-1.4515,-1.4515,-1.4515,-1.4515,-1.4515,-1.4515,-1.4387,-1.4139,-1.395,-1.3657,-1.3363,-1.3302,-1.318,-1.2936,-1.2744,-1.256,-1.2367,-1.2182,-1.1926,-1.149,-1.0926,-1.0548,-1.0174,-0.9856,-0.9734,-0.9612,-0.9612,-0.9612,-0.9548,-0.9548,-0.9548,-0.9478,-0.961,-0.973,-0.9826,-0.9952,-1.0089,-1.0227,-1.0365,-1.0509,-1.0659,-1.0575,-1.039,-1.0114,-0.9759,-0.9365,-0.8891,-0.8776,-0.863,-0.8506,-0.8376,-0.8242,-1.8987,-1.8987,-1.8987,-1.8987,-1.8987,-1.8987,-1.8987,-1.8987,-1.8987,-1.8987,-1.9047,-1.9107,-1.9234,-1.9246,-1.9012,-1.8705,-1.838,-1.7778,-1.7501,-1.7222,-1.7099,-1.7268,-1.7633,-1.8061,-1.8518,-1.8786,-1.8999,-1.8999,-1.8987,-1.8987,-1.8987,-1.8987,-1.8987,-1.8999,-1.8999,-1.8946,-1.8839,-1.8679,-1.8625,-1.8452,-1.8084,-1.7468,-1.6719,-1.6379,-1.614,-1.5806,-1.5526,-1.5303,-1.4991,-1.4697,-1.4547,-1.4506,-1.4515,-1.4515,-1.4515,-1.4515,-1.4515,-1.4515,-1.4515,-1.4515,-1.4515,-1.4515,-1.4515,-1.4515,-1.4515,-1.4515,-1.4515,-1.4515,-1.4455,-1.4327,-1.4139,-1.407,-1.3838,-1.3476,-1.3233,-1.3119,-1.2989,-1.2928,-1.2858,-1.2736,-1.2674,-1.2367,-1.2058,-1.1615,-1.1185,-1.0807,-1.0364,-1.018,-1.0053,-0.9926,-0.9804,-0.974,-0.9676,-0.9548,-0.9484,-0.97,-0.9832,-0.9922,-1.0152,-1.0399,-1.0568,-1.0628,-1.0767,-1.09,-1.0833,-1.067,-1.0367,-0.9961,-0.9551,-0.9165,-0.8998,-0.8894,-0.8765,-0.8571,-0.8441]},{"header":{"parameterUnit":"m.s-1","parameterCategory":1,"la1":31.0,"la2":29.5877,"lo1":-88.7671,"lo2":-86.6584,"dy":0.0162,"dx":0.0185,"nx":115,"ny":88,"refTime":"2024-06-07T12:00:00:Z","depth":0,"parameterNumber":3,"parameterNumberName":"V-component_of_WINDS"},"data":[0.0,0.0,0.0,0.0,0.0,0.0,0.0,0.0,0.0,0.0,0.0,0.0,0.0,0.0,0.0,0.0,0.0,0.0,0.0,0.0,0.0,0.0,0.0,0.0,0.0,0.0,0.0,0.0,0.0,0.0,0.0,0.0,0.0,0.0,0.0,0.0,0.0,0.0,0.0,0.0,0.0,0.0,0.0,0.0,0.0,0.0,0.0,0.0,0.0,0.0,0.0,0.0,0.0,0.0,0.0,0.0,0.0,0.0,0.0,0.0,0.0,0.0,0.0,0.0,0.0,0.0,0.0,0.0,0.0,0.0,0.0,0.0,0.0,0.0,0.0,0.0,0.0,0.0,0.0,0.0,0.0,0.0,0.0,0.0,0.0,0.0,0.0,0.0,0.0,0.0,0.0,0.0,0.0,0.0,0.0,0.0,0.0,0.0,0.0,0.0,0.0,0.0,0.0,0.0,0.0,0.0,0.0,0.0,0.0,0.0,0.0,0.0,0.0,0.0,0.0,0.0,0.0,0.0,0.0,0.0,0.0,0.0,0.0,0.0,0.0,0.0,0.0,0.0,0.0,0.0,0.0,0.0,0.0,0.0,0.0,0.0,0.0,0.0,0.0,0.0,0.0,0.0,0.0,0.0,0.0,0.0,0.0,0.0,0.0,0.0,0.0,0.0,0.0,0.0,0.0,0.0,0.0,0.0,0.0,0.0,0.0,0.0,0.0,0.0,0.0,0.0,0.0,0.0,0.0,0.0,0.0,0.0,0.0,0.0,0.0,0.0,0.0,0.0,0.0,0.0,0.0,0.0,0.0,0.0,0.0,0.0,0.0,0.0,0.0,0.0,0.0,0.0,0.0,0.0,0.0,0.0,0.0,0.0,0.0,0.0,0.0,0.0,0.0,0.0,0.0,0.0,0.0,0.0,0.0,0.0,0.0,0.0,0.0,0.0,0.0,0.0,0.0,0.0,0.0,0.0,0.0,0.0,0.0,0.0,0.0,0.0,0.0,0.0,0.0,0.0,0.0,0.0,0.0,0.0,0.0,0.0,0.0,0.0,0.0,0.0,0.0,0.0,0.0,0.0,0.0,0.0,0.0,0.0,0.0,0.0,0.0,0.0,0.0,0.0,0.0,0.0,0.0,0.0,0.0,0.0,0.0,0.0,0.0,0.0,0.0,0.0,0.0,0.0,0.0,0.0,0.0,0.0,0.0,0.0,0.0,0.0,0.0,0.0,0.0,0.0,0.0,0.0,0.0,0.0,0.0,0.0,0.0,0.0,0.0,0.0,0.0,0.0,0.0,0.0,0.0,0.0,0.0,0.0,0.0,0.0,0.0,0.0,0.0,0.0,0.0,0.0,0.0,0.0,0.0,0.0,0.0,0.0,0.0,0.0,0.0,0.0,0.0,0.0,0.0,0.0,0.0,0.0,0.0,0.0,0.0,0.0,0.0,0.0,0.0,0.0,0.0,0.0,0.0,0.0,0.0,0.0,0.0,0.0,0.0,0.0,0.0,0.0,0.0,0.0,0.0,0.0,0.0,0.0,0.0,0.0,0.0,0.0,0.0,0.0,0.0,0.0,0.0,0.0,0.0,0.0,0.0,0.0,0.0,0.0,0.0,0.0,0.0,0.0,0.0,0.0,0.0,0.0,0.0,0.0,0.0,0.0,0.0,0.0,0.0,0.0,0.0,0.0,0.0,0.0,0.0,0.0,0.0,0.0,0.0,0.0,0.0,0.0,0.0,0.0,0.0,0.0,0.0,0.0,0.0,0.0,0.0,0.0,0.0,0.0,0.0,0.0,0.0,0.0,0.0,0.0,0.0,0.0,0.0,0.0,0.0,0.0,0.0,0.0,0.0,0.0,0.0,0.0,0.0,0.0,0.0,0.0,0.0,0.0,0.0,0.0,0.0,0.0,0.0,0.0,0.0,0.0,0.0,0.0,0.0,0.0,0.0,0.0,0.0,0.0,0.0,0.0,0.0,0.0,0.0,0.0,0.0,0.0,0.0,0.0,0.0,0.0,0.0,0.0,0.0,0.0,0.0,0.0,0.0,0.0,0.0,0.0,0.0,0.0,0.0,0.0,0.0,0.0,0.0,0.0,0.0,0.0,0.0,0.0,0.0,0.0,0.0,0.0,0.0,0.0,0.0,0.0,0.0,0.0,0.0,0.0,0.0,0.0,0.0,0.0,0.0,0.0,0.0,0.0,0.0,0.0,0.0,0.0,0.0,0.0,0.0,0.0,0.0,0.0,0.0,0.0,0.0,0.0,0.0,0.0,0.0,0.0,0.0,0.0,0.0,0.0,0.0,0.0,0.0,0.0,0.0,0.0,0.0,0.0,0.0,0.0,0.0,0.0,0.0,0.0,0.0,0.0,0.0,0.0,0.0,0.0,0.0,0.0,0.0,0.0,0.0,0.0,0.0,0.0,0.0,0.0,0.0,0.0,0.0,0.0,0.0,0.0,0.0,0.0,0.0,0.0,0.0,0.0,0.0,0.0,0.0,0.0,0.0,0.0,0.0,0.0,0.0,0.0,0.0,0.0,0.0,0.0,0.0,0.0,0.0,0.0,0.0,0.0,0.0,0.0,0.0,0.0,0.0,0.0,0.0,0.0,0.0,0.0,0.0,0.0,0.0,0.0,0.0,0.0,0.0,0.0,0.0,0.0,0.0,0.0,0.0,0.0,0.0,0.0,0.0,0.0,0.0,0.0,0.0,0.0,0.0,0.0,0.0,0.0,0.0,0.0,0.0,0.0,0.0,0.0,0.0,0.0,0.0,0.0,0.0,0.0,0.0,0.0,0.0,0.0,0.0,0.0,0.0,0.0,0.0,0.0,0.0,0.0,0.0,0.0,0.0,0.0,0.0,0.0,0.0,0.0,0.0,0.0,0.0,0.0,0.0,0.0,0.0,0.0,0.0,0.0,0.0,0.0,0.0,0.0,0.0,0.0,0.0,0.0,0.0,0.0,0.0,0.0,0.0,0.0,0.0,0.0,0.0,0.0,0.0,0.0,0.0,0.0,0.0,0.0,0.0,0.0,0.0,0.0,0.0,0.0,0.0,0.0,0.0,0.0,0.0,0.0,0.0,0.0,0.0,0.0,0.0,0.0,0.0,0.0,0.0,0.0,0.0,0.0,0.0,0.0,0.0,0.0,0.0,0.0,0.0,0.0,0.0,0.0,0.0,0.0,0.0,0.0,0.0,0.0,0.0,0.0,0.0,0.0,0.0,0.0,0.0,0.0,0.0,0.0,0.0,0.0,0.0,0.0,0.0,0.0,0.0,0.0,0.0,0.0,0.0,0.0,0.0,0.0,0.0,0.0,0.0,0.0,0.0,0.0,0.0,0.0,0.0,0.0,0.0,0.0,0.0,0.0,0.0,0.0,0.0,0.0,0.0,0.0,0.0,0.0,0.0,0.0,0.0,0.0,0.0,0.0,0.0,0.0,0.0,0.0,0.0,0.0,0.0,0.0,0.0,0.0,0.0,0.0,0.0,0.0,0.0,0.0,0.0,0.0,0.0,0.0,0.0,0.0,0.0,0.0,0.0,0.0,0.0,0.0,0.0,0.0,0.0,0.0,0.0,0.0,0.0,0.0,0.0,0.0,0.0,0.0,0.0,0.0,0.0,0.0,0.0,0.0,0.0,0.0,0.0,0.0,0.0,0.0,0.0,0.0,0.0,0.0,0.0,0.0,0.0,0.0,0.0,0.0,0.0,0.0,0.0,0.0,0.0,0.0,0.0,0.0,0.0,0.0,0.0,0.0,0.0,0.0,0.0,0.0,0.0,0.0,0.0,0.0,0.0,0.0,0.0,0.0,0.0,0.0,0.0,0.0,0.0,0.0,0.0,0.0,0.0,0.0,0.0,0.0,0.0,0.0,0.0,0.0,0.0,0.0,0.0,0.0,0.0,0.0,0.0,0.0,0.0,0.0,0.0,0.0,0.0,0.0,0.0,0.0,0.0,0.0,0.0,0.0,0.0,0.0,0.0,0.0,0.0,0.0,0.0,0.0,0.0,0.0,0.0,0.0,0.0,0.0,0.0,0.0,0.0,0.0,0.0,0.0,0.0,0.0,0.0,0.0,0.0,0.0,0.0,0.0,0.0,0.0,0.0,0.0,0.0,0.0,0.0,0.0,0.0,0.0,0.0,0.0,0.0,0.0,0.0,0.0,0.0,0.0,0.0,0.0,0.0,0.0,0.0,0.0,0.0,0.0,0.0,0.0,0.0,0.0,0.0,0.0,0.0,0.0,0.0,0.0,0.0,0.0,0.0,0.0,-1.0109,0.0,0.0,0.0,0.0,0.0,0.0,0.0,0.0,0.0,0.0,0.0,0.0,0.0,0.0,0.0,0.0,0.0,0.0,0.0,0.0,0.0,0.0,0.0,0.0,0.0,0.0,0.0,0.0,0.0,0.0,0.0,0.0,0.0,0.0,0.0,0.0,0.0,0.0,0.0,0.0,0.0,0.0,0.0,0.0,0.0,0.0,0.0,0.0,0.0,0.0,0.0,0.0,0.0,0.0,0.0,0.0,0.0,0.0,0.0,0.0,0.0,0.0,0.0,0.0,0.0,0.0,0.0,0.0,0.0,0.0,0.0,0.0,0.0,0.0,0.0,0.0,0.0,0.0,0.0,0.0,0.0,0.0,0.0,0.0,0.0,0.0,0.0,0.0,0.0,0.0,0.0,0.0,0.0,0.0,0.0,0.0,0.0,0.0,0.0,0.0,0.0,0.0,0.0,0.0,0.0,0.0,0.0,0.0,0.0,0.0,-1.0102,-1.0094,-1.0094,-1.0094,-1.0094,0.0,0.0,0.0,0.0,0.0,0.0,0.0,0.0,0.0,0.0,0.0,0.0,0.0,0.0,0.0,0.0,0.0,0.0,0.0,0.0,0.0,0.0,0.0,0.0,0.0,0.0,0.0,0.0,0.0,0.0,0.0,0.0,0.0,0.0,0.0,0.0,0.0,0.0,0.0,0.0,0.0,0.0,0.0,0.0,0.0,0.0,0.0,0.0,0.0,0.0,0.0,0.0,0.0,0.0,0.0,0.0,0.0,0.0,0.0,0.0,0.0,0.0,0.0,0.0,0.0,0.0,0.0,0.0,0.0,0.0,0.0,0.0,0.0,0.0,0.0,0.0,0.0,0.0,0.0,0.0,0.0,0.0,0.0,0.0,0.0,0.0,0.0,0.0,0.0,0.0,0.0,0.0,0.0,0.0,0.0,0.0,0.0,0.0,0.0,0.0,0.0,0.0,0.0,0.0,0.0,0.0,0.0,0.0,0.0,0.0,0.0,0.0,-1.0121,-1.0121,-1.0133,0.0,0.0,0.0,0.0,0.0,0.0,0.0,0.0,0.0,0.0,0.0,0.0,0.0,0.0,0.0,0.0,0.0,0.0,0.0,0.0,0.0,0.0,0.0,0.0,0.0,0.0,0.0,0.0,0.0,0.0,0.0,0.0,0.0,0.0,0.0,0.0,0.0,0.0,0.0,0.0,0.0,0.0,0.0,0.0,0.0,0.0,0.0,0.0,0.0,0.0,0.0,0.0,0.0,0.0,0.0,0.0,0.0,0.0,0.0,0.0,0.0,0.0,0.0,0.0,0.0,0.0,0.0,0.0,0.0,0.0,0.0,0.0,0.0,0.0,0.0,0.0,0.0,0.0,0.0,0.0,0.0,0.0,0.0,0.0,0.0,0.0,0.0,0.0,0.0,0.0,0.0,0.0,0.0,0.0,0.0,0.0,0.0,0.0,0.0,0.0,0.0,0.0,0.0,0.0,0.0,0.0,0.0,0.0,0.0,0.0,-1.0186,-1.0186,-1.0186,0.0,-1.0198,0.0,0.0,0.0,0.0,0.0,0.0,0.0,0.0,0.0,0.0,0.0,0.0,0.0,0.0,0.0,0.0,0.0,0.0,0.0,0.0,0.0,0.0,0.0,0.0,0.0,0.0,0.0,0.0,0.0,0.0,0.0,0.0,0.0,0.0,0.0,0.0,0.0,0.0,0.0,0.0,0.0,0.0,0.0,0.0,0.0,0.0,0.0,0.0,0.0,0.0,0.0,0.0,0.0,0.0,0.0,0.0,0.0,0.0,0.0,0.0,0.0,0.0,0.0,0.0,0.0,0.0,0.0,0.0,0.0,0.0,0.0,0.0,0.0,0.0,0.0,0.0,0.0,0.0,0.0,0.0,0.0,0.0,0.0,0.0,0.0,0.0,0.0,0.0,0.0,0.0,0.0,0.0,0.0,0.0,0.0,0.0,0.0,0.0,0.0,0.0,0.0,0.0,0.0,0.0,0.0,0.0,0.0,0.0,0.0,0.0,0.0,-1.0186,-1.0193,-1.0203,0.0,0.0,0.0,0.0,0.0,0.0,0.0,0.0,0.0,0.0,0.0,0.0,0.0,0.0,0.0,0.0,0.0,0.0,0.0,0.0,0.0,0.0,0.0,0.0,0.0,0.0,0.0,0.0,0.0,0.0,0.0,0.0,0.0,0.0,0.0,0.0,0.0,0.0,0.0,0.0,0.0,0.0,0.0,0.0,0.0,0.0,0.0,0.0,0.0,0.0,0.0,0.0,0.0,0.0,0.0,0.0,0.0,0.0,0.0,0.0,0.0,0.0,0.0,0.0,0.0,0.0,0.0,0.0,0.0,0.0,0.0,0.0,0.0,0.0,0.0,0.0,0.0,0.0,0.0,0.0,0.0,0.0,0.0,0.0,0.0,0.0,0.0,0.0,0.0,0.0,0.0,0.0,0.0,0.0,0.0,0.0,0.0,0.0,0.0,0.0,0.0,0.0,0.0,0.0,0.0,0.0,0.0,0.0,0.0,0.0,-1.0197,0.0,-1.0188,-1.0197,-1.0194,-1.0199,0.0,0.0,0.0,0.0,0.0,0.0,0.0,0.0,0.0,0.0,0.0,0.0,0.0,0.0,0.0,0.0,0.0,0.0,0.0,0.0,0.0,0.0,0.0,0.0,0.0,0.0,0.0,0.0,0.0,0.0,0.0,0.0,0.0,0.0,0.0,0.0,0.0,0.0,0.0,0.0,0.0,0.0,0.0,0.0,0.0,0.0,0.0,0.0,0.0,0.0,0.0,0.0,0.0,0.0,0.0,0.0,0.0,0.0,0.0,0.0,0.0,0.0,0.0,0.0,0.0,0.0,0.0,0.0,0.0,0.0,0.0,0.0,0.0,0.0,0.0,0.0,0.0,0.0,0.0,0.0,0.0,0.0,0.0,0.0,0.0,0.0,0.0,0.0,0.0,0.0,0.0,0.0,0.0,0.0,0.0,0.0,0.0,0.0,0.0,0.0,0.0,0.0,0.0,0.0,0.0,0.0,0.0,0.0,0.0,-1.0193,-1.0193,-1.0193,-1.0202,-1.0189,0.0,0.0,0.0,0.0,0.0,0.0,0.0,0.0,0.0,0.0,0.0,0.0,0.0,0.0,0.0,0.0,0.0,0.0,0.0,0.0,0.0,0.0,0.0,0.0,0.0,0.0,0.0,0.0,0.0,0.0,0.0,0.0,0.0,0.0,0.0,0.0,0.0,0.0,0.0,0.0,0.0,0.0,0.0,0.0,0.0,0.0,0.0,0.0,0.0,0.0,0.0,0.0,0.0,0.0,0.0,0.0,0.0,0.0,0.0,0.0,0.0,0.0,0.0,0.0,0.0,0.0,0.0,0.0,0.0,0.0,0.0,0.0,0.0,0.0,0.0,0.0,0.0,0.0,0.0,0.0,0.0,0.0,0.0,0.0,0.0,0.0,0.0,0.0,0.0,0.0,0.0,0.0,0.0,0.0,0.0,0.0,0.0,0.0,0.0,0.0,0.0,0.0,0.0,0.0,0.0,0.0,0.0,0.0,0.0,-1.0258,-1.0259,-1.0259,0.0,-1.0265,-1.0269,0.0,0.0,0.0,0.0,0.0,0.0,0.0,0.0,0.0,0.0,0.0,0.0,0.0,0.0,0.0,0.0,0.0,0.0,0.0,0.0,0.0,0.0,0.0,0.0,0.0,0.0,0.0,0.0,0.0,0.0,0.0,0.0,0.0,0.0,0.0,0.0,0.0,0.0,0.0,0.0,0.0,0.0,0.0,0.0,0.0,0.0,0.0,0.0,0.0,0.0,0.0,0.0,0.0,0.0,0.0,0.0,0.0,0.0,0.0,0.0,0.0,0.0,0.0,0.0,0.0,0.0,0.0,0.0,0.0,0.0,0.0,0.0,0.0,0.0,0.0,0.0,0.0,0.0,0.0,0.0,0.0,0.0,0.0,0.0,0.0,0.0,0.0,0.0,0.0,0.0,0.0,0.0,0.0,0.0,0.0,0.0,0.0,0.0,0.0,0.0,0.0,0.0,0.0,0.0,0.0,0.0,0.0,0.0,0.0,-1.0313,0.0,-1.0314,0.0,-1.0317,-1.0319,0.0,0.0,0.0,0.0,0.0,0.0,0.0,0.0,0.0,0.0,0.0,0.0,0.0,0.0,0.0,0.0,0.0,0.0,0.0,0.0,0.0,0.0,0.0,0.0,0.0,0.0,0.0,0.0,0.0,0.0,0.0,0.0,0.0,0.0,0.0,0.0,0.0,0.0,0.0,0.0,0.0,0.0,0.0,0.0,0.0,0.0,0.0,0.0,0.0,0.0,0.0,0.0,0.0,0.0,0.0,0.0,0.0,0.0,0.0,0.0,0.0,0.0,0.0,0.0,0.0,0.0,0.0,0.0,0.0,0.0,0.0,0.0,0.0,0.0,0.0,0.0,0.0,0.0,0.0,0.0,0.0,0.0,0.0,0.0,0.0,0.0,0.0,0.0,0.0,0.0,0.0,0.0,0.0,0.0,0.0,0.0,0.0,0.0,0.0,0.0,0.0,0.0,0.0,0.0,0.0,0.0,0.0,0.0,-1.032,-1.032,-1.032,-1.032,-1.032,-1.0323,-1.0323,0.0,0.0,0.0,0.0,0.0,0.0,0.0,0.0,0.0,0.0,0.0,0.0,0.0,0.0,0.0,0.0,0.0,0.0,0.0,0.0,0.0,0.0,0.0,0.0,0.0,0.0,0.0,0.0,0.0,0.0,0.0,0.0,0.0,0.0,0.0,0.0,0.0,0.0,0.0,0.0,0.0,0.0,0.0,0.0,0.0,0.0,0.0,0.0,0.0,0.0,0.0,0.0,0.0,0.0,0.0,0.0,0.0,0.0,0.0,0.0,0.0,0.0,0.0,0.0,0.0,0.0,0.0,0.0,0.0,0.0,0.0,0.0,0.0,0.0,0.0,0.0,0.0,0.0,0.0,0.0,0.0,0.0,0.0,0.0,0.0,0.0,0.0,0.0,0.0,0.0,0.0,0.0,0.0,0.0,0.0,0.0,0.0,0.0,0.0,0.0,0.0,0.0,0.0,0.0,0.0,0.0,0.0,0.0,0.0,-1.0323,-1.0323,-1.0323,-1.0323,-1.0324,-1.0324,0.0,0.0,0.0,0.0,0.0,0.0,0.0,0.0,0.0,0.0,0.0,0.0,0.0,0.0,0.0,0.0,0.0,0.0,0.0,0.0,0.0,0.0,0.0,0.0,0.0,0.0,0.0,0.0,0.0,0.0,0.0,0.0,0.0,0.0,0.0,0.0,0.0,0.0,0.0,0.0,0.0,0.0,0.0,0.0,0.0,0.0,0.0,0.0,0.0,0.0,0.0,0.0,0.0,0.0,0.0,0.0,0.0,0.0,0.0,0.0,0.0,0.0,0.0,0.0,0.0,0.0,0.0,0.0,0.0,0.0,0.0,0.0,0.0,0.0,0.0,0.0,0.0,0.0,0.0,0.0,0.0,0.0,0.0,0.0,0.0,0.0,0.0,0.0,0.0,0.0,0.0,0.0,0.0,0.0,0.0,0.0,0.0,0.0,0.0,0.0,0.0,0.0,0.0,0.0,0.0,0.0,0.0,0.0,0.0,-1.1279,-1.1262,-1.1263,-1.1282,-1.0969,-1.0793,-1.0793,0.0,0.0,0.0,0.0,0.0,0.0,0.0,0.0,0.0,0.0,0.0,0.0,0.0,0.0,0.0,0.0,0.0,0.0,0.0,0.0,0.0,0.0,0.0,0.0,0.0,0.0,0.0,0.0,0.0,0.0,0.0,0.0,0.0,0.0,0.0,0.0,0.0,0.0,0.0,0.0,0.0,0.0,0.0,0.0,0.0,0.0,0.0,0.0,0.0,0.0,0.0,0.0,0.0,0.0,0.0,0.0,0.0,0.0,0.0,0.0,0.0,0.0,0.0,0.0,0.0,0.0,0.0,0.0,0.0,0.0,0.0,0.0,0.0,0.0,0.0,0.0,0.0,0.0,0.0,0.0,0.0,0.0,0.0,0.0,0.0,0.0,0.0,0.0,0.0,0.0,0.0,0.0,0.0,0.0,0.0,0.0,0.0,0.0,0.0,0.0,0.0,0.0,0.0,0.0,0.0,0.0,0.0,0.0,-1.3033,-1.3096,-1.3059,-1.2924,-1.2064,-1.1594,0.0,0.0,0.0,0.0,0.0,0.0,0.0,0.0,0.0,0.0,0.0,0.0,0.0,0.0,0.0,0.0,0.0,0.0,0.0,0.0,0.0,0.0,0.0,0.0,0.0,0.0,0.0,0.0,0.0,0.0,0.0,0.0,0.0,0.0,0.0,0.0,0.0,0.0,0.0,0.0,0.0,0.0,0.0,0.0,0.0,0.0,0.0,0.0,0.0,0.0,0.0,0.0,0.0,0.0,0.0,0.0,0.0,0.0,0.0,0.0,0.0,0.0,0.0,0.0,0.0,0.0,0.0,0.0,0.0,0.0,0.0,0.0,0.0,0.0,0.0,0.0,0.0,0.0,0.0,0.0,0.0,0.0,0.0,0.0,0.0,0.0,0.0,0.0,0.0,0.0,0.0,0.0,0.0,0.0,0.0,0.0,0.0,0.0,0.0,0.0,0.0,0.0,0.0,0.0,0.0,0.0,0.0,0.0,0.0,-1.4694,-1.536,-1.5088,-1.382,-1.2375,-1.1594,0.0,0.0,0.0,0.0,0.0,0.0,0.0,0.0,0.0,0.0,0.0,0.0,0.0,0.0,0.0,0.0,0.0,0.0,0.0,0.0,0.0,0.0,0.0,0.0,0.0,0.0,0.0,0.0,0.0,0.0,0.0,0.0,0.0,0.0,0.0,0.0,0.0,0.0,0.0,0.0,0.0,0.0,0.0,0.0,0.0,0.0,0.0,0.0,0.0,0.0,0.0,0.0,0.0,0.0,0.0,0.0,0.0,0.0,0.0,0.0,0.0,0.0,0.0,0.0,0.0,0.0,0.0,0.0,0.0,0.0,0.0,0.0,0.0,0.0,0.0,0.0,0.0,0.0,0.0,0.0,0.0,0.0,0.0,0.0,0.0,0.0,0.0,0.0,0.0,0.0,0.0,0.0,0.0,0.0,0.0,0.0,0.0,0.0,0.0,0.0,0.0,0.0,0.0,0.0,0.0,0.0,0.0,0.0,-1.4231,-1.5907,-1.6805,-1.6943,-1.6318,-1.4269,-1.2864,0.0,0.0,0.0,0.0,0.0,0.0,0.0,0.0,0.0,0.0,0.0,0.0,0.0,0.0,0.0,0.0,0.0,0.0,0.0,0.0,0.0,0.0,0.0,0.0,0.0,0.0,0.0,0.0,0.0,0.0,0.0,0.0,0.0,0.0,0.0,0.0,0.0,0.0,0.0,0.0,0.0,0.0,0.0,0.0,0.0,0.0,0.0,0.0,0.0,0.0,0.0,0.0,0.0,0.0,0.0,0.0,0.0,0.0,0.0,0.0,0.0,0.0,0.0,0.0,0.0,0.0,0.0,0.0,0.0,0.0,0.0,0.0,0.0,0.0,0.0,0.0,0.0,0.0,0.0,0.0,0.0,0.0,0.0,0.0,0.0,0.0,0.0,0.0,0.0,0.0,0.0,0.0,0.0,0.0,0.0,0.0,0.0,0.0,0.0,0.0,0.0,0.0,0.0,0.0,0.0,0.0,0.0,0.0,-1.5086,-1.6805,-1.7684,-1.8524,-1.9186,-1.6749,-1.466,0.0,0.0,0.0,0.0,0.0,0.0,0.0,0.0,0.0,0.0,0.0,0.0,0.0,0.0,0.0,0.0,0.0,0.0,0.0,0.0,0.0,0.0,0.0,0.0,0.0,0.0,0.0,0.0,0.0,0.0,0.0,0.0,0.0,0.0,0.0,0.0,0.0,0.0,0.0,0.0,0.0,0.0,0.0,0.0,0.0,0.0,0.0,0.0,0.0,0.0,0.0,0.0,0.0,0.0,0.0,0.0,0.0,0.0,0.0,0.0,0.0,0.0,0.0,0.0,0.0,0.0,0.0,0.0,0.0,0.0,0.0,0.0,0.0,0.0,0.0,0.0,0.0,0.0,0.0,0.0,0.0,0.0,0.0,0.0,0.0,0.0,0.0,0.0,0.0,0.0,0.0,0.0,0.0,0.0,0.0,0.0,0.0,0.0,0.0,0.0,0.0,0.0,0.0,0.0,0.0,0.0,0.0,0.0,-1.5948,-1.7683,-1.8581,-1.9109,-1.9284,-1.6767,-1.4914,0.0,0.0,0.0,0.0,0.0,0.0,0.0,0.0,0.0,0.0,0.0,0.0,0.0,0.0,0.0,0.0,0.0,0.0,0.0,0.0,0.0,0.0,0.0,0.0,0.0,0.0,0.0,0.0,0.0,0.0,0.0,0.0,0.0,0.0,0.0,0.0,0.0,0.0,0.0,0.0,0.0,0.0,0.0,0.0,0.0,0.0,0.0,0.0,-1.0096,0.0,0.0,0.0,0.0,0.0,0.0,0.0,0.0,0.0,0.0,0.0,0.0,0.0,0.0,0.0,0.0,0.0,0.0,0.0,0.0,0.0,0.0,0.0,0.0,0.0,0.0,0.0,0.0,0.0,0.0,0.0,0.0,0.0,0.0,0.0,0.0,0.0,0.0,0.0,0.0,0.0,0.0,0.0,0.0,0.0,0.0,0.0,0.0,0.0,0.0,0.0,0.0,0.0,0.0,0.0,0.0,0.0,0.0,0.0,-1.6652,-1.7974,-1.9264,-1.991,-1.9832,-1.7783,-1.583,0.0,0.0,0.0,0.0,0.0,0.0,0.0,0.0,0.0,0.0,0.0,0.0,0.0,0.0,0.0,0.0,0.0,0.0,0.0,0.0,0.0,0.0,0.0,0.0,0.0,0.0,0.0,0.0,0.0,0.0,0.0,0.0,0.0,0.0,0.0,0.0,0.0,0.0,0.0,0.0,0.0,0.0,0.0,0.0,0.0,0.0,0.0,0.0,0.0,0.0,0.0,0.0,0.0,0.0,0.0,0.0,0.0,0.0,0.0,0.0,0.0,0.0,0.0,0.0,0.0,0.0,0.0,0.0,0.0,0.0,0.0,0.0,0.0,0.0,0.0,0.0,0.0,0.0,0.0,0.0,0.0,0.0,0.0,0.0,0.0,0.0,0.0,0.0,0.0,0.0,0.0,0.0,0.0,0.0,0.0,0.0,0.0,0.0,0.0,0.0,0.0,0.0,0.0,0.0,0.0,0.0,0.0,-1.5543,-1.7258,-1.8013,-1.9713,-2.0593,-2.0573,-1.8914,-1.6845,-1.4386,0.0,0.0,0.0,0.0,0.0,0.0,0.0,0.0,0.0,0.0,0.0,0.0,0.0,0.0,0.0,0.0,0.0,0.0,0.0,0.0,0.0,0.0,0.0,0.0,0.0,0.0,0.0,0.0,0.0,0.0,0.0,0.0,0.0,0.0,0.0,0.0,0.0,0.0,-1.0376,-1.0389,0.0,0.0,0.0,0.0,0.0,0.0,0.0,0.0,-1.2131,0.0,0.0,0.0,0.0,0.0,0.0,0.0,0.0,0.0,0.0,0.0,0.0,0.0,0.0,0.0,0.0,0.0,0.0,0.0,0.0,0.0,0.0,0.0,0.0,0.0,0.0,0.0,0.0,0.0,0.0,0.0,0.0,0.0,0.0,0.0,0.0,0.0,0.0,0.0,0.0,0.0,0.0,0.0,0.0,0.0,0.0,0.0,0.0,0.0,0.0,0.0,0.0,0.0,0.0,0.0,0.0,-1.2924,-1.6123,-1.7856,-1.8026,-1.9708,-2.0607,-2.0549,-1.8913,-1.712,-1.5265,0.0,0.0,0.0,0.0,0.0,0.0,0.0,0.0,0.0,0.0,0.0,0.0,0.0,0.0,0.0,0.0,0.0,0.0,0.0,0.0,0.0,0.0,0.0,0.0,0.0,0.0,0.0,0.0,0.0,0.0,0.0,0.0,0.0,0.0,0.0,0.0,0.0,0.0,0.0,-1.1209,-1.1426,0.0,0.0,0.0,0.0,0.0,0.0,0.0,0.0,-1.2508,0.0,0.0,0.0,0.0,0.0,0.0,0.0,0.0,0.0,0.0,0.0,0.0,0.0,0.0,0.0,0.0,0.0,0.0,0.0,0.0,0.0,0.0,0.0,0.0,0.0,0.0,0.0,0.0,0.0,0.0,0.0,0.0,0.0,0.0,0.0,0.0,0.0,0.0,0.0,0.0,0.0,0.0,0.0,0.0,0.0,0.0,0.0,0.0,0.0,0.0,0.0,0.0,0.0,0.0,0.0,-1.3081,-1.6269,-1.8005,-1.8052,-1.9675,-2.0536,-2.0497,-1.8902,-1.7189,0.0,0.0,0.0,0.0,0.0,0.0,0.0,0.0,0.0,0.0,0.0,0.0,0.0,0.0,0.0,0.0,0.0,0.0,0.0,0.0,0.0,0.0,0.0,0.0,0.0,0.0,0.0,0.0,0.0,0.0,0.0,0.0,0.0,0.0,0.0,0.0,0.0,0.0,0.0,0.0,-1.1753,-1.2164,-1.2542,0.0,0.0,0.0,0.0,0.0,0.0,-1.3615,-1.3749,0.0,0.0,0.0,0.0,0.0,0.0,0.0,0.0,0.0,0.0,0.0,0.0,0.0,0.0,0.0,0.0,0.0,0.0,0.0,0.0,0.0,0.0,0.0,0.0,0.0,0.0,0.0,0.0,0.0,0.0,0.0,0.0,0.0,0.0,0.0,0.0,0.0,0.0,0.0,0.0,0.0,0.0,0.0,0.0,0.0,0.0,0.0,0.0,0.0,0.0,0.0,0.0,0.0,0.0,0.0,-1.324,-1.6332,-1.8067,-1.8286,-1.9717,-2.05,-2.048,-1.8868,-1.7179,0.0,0.0,0.0,0.0,0.0,0.0,0.0,0.0,0.0,0.0,0.0,0.0,0.0,0.0,0.0,0.0,0.0,0.0,0.0,0.0,0.0,0.0,0.0,0.0,0.0,0.0,0.0,0.0,0.0,0.0,0.0,0.0,0.0,0.0,0.0,0.0,0.0,0.0,0.0,0.0,0.0,-1.2913,-1.3085,-1.3271,0.0,0.0,0.0,0.0,-1.4673,-1.5069,0.0,0.0,0.0,0.0,0.0,0.0,0.0,0.0,0.0,0.0,0.0,0.0,0.0,0.0,0.0,0.0,0.0,0.0,0.0,0.0,0.0,0.0,0.0,0.0,0.0,0.0,0.0,0.0,0.0,0.0,0.0,0.0,0.0,0.0,0.0,0.0,0.0,0.0,0.0,0.0,0.0,0.0,0.0,0.0,0.0,0.0,0.0,0.0,0.0,0.0,0.0,0.0,0.0,0.0,0.0,0.0,-1.4026,-1.6558,-1.8282,-1.9048,-2.0005,-2.0511,-2.0492,-1.888,-1.7194,0.0,0.0,0.0,0.0,0.0,0.0,0.0,0.0,0.0,0.0,0.0,0.0,0.0,0.0,0.0,0.0,0.0,0.0,0.0,0.0,0.0,0.0,0.0,0.0,0.0,0.0,0.0,0.0,0.0,0.0,0.0,0.0,0.0,0.0,0.0,0.0,0.0,0.0,0.0,0.0,0.0,-1.401,-1.4711,-1.5471,-1.5964,0.0,0.0,-1.7236,-1.7262,-1.6699,0.0,0.0,0.0,0.0,0.0,0.0,0.0,0.0,0.0,0.0,0.0,0.0,0.0,0.0,0.0,0.0,0.0,0.0,0.0,0.0,0.0,0.0,0.0,0.0,0.0,0.0,0.0,0.0,0.0,0.0,0.0,0.0,0.0,0.0,0.0,0.0,0.0,0.0,0.0,0.0,0.0,0.0,0.0,0.0,0.0,0.0,0.0,0.0,0.0,0.0,0.0,0.0,0.0,0.0,0.0,-1.3262,-1.4156,-1.6615,-1.8298,-1.9124,-1.9993,-2.0459,-2.0439,-1.8826,-1.7115,0.0,0.0,0.0,0.0,0.0,0.0,0.0,0.0,0.0,0.0,0.0,0.0,0.0,0.0,0.0,0.0,0.0,0.0,0.0,0.0,0.0,0.0,0.0,0.0,0.0,0.0,0.0,0.0,0.0,0.0,0.0,0.0,0.0,0.0,0.0,0.0,0.0,0.0,0.0,0.0,0.0,0.0,-1.5784,-1.6584,0.0,0.0,0.0,-1.7704,-1.7692,0.0,0.0,0.0,0.0,0.0,0.0,0.0,0.0,0.0,0.0,0.0,0.0,0.0,0.0,0.0,0.0,0.0,0.0,0.0,0.0,0.0,0.0,0.0,0.0,0.0,0.0,0.0,0.0,0.0,0.0,0.0,0.0,0.0,0.0,0.0,0.0,0.0,0.0,0.0,0.0,0.0,0.0,0.0,0.0,0.0,0.0,0.0,0.0,0.0,0.0,0.0,0.0,0.0,0.0,0.0,0.0,0.0,-1.4745,-1.6801,-1.8382,-1.9383,-2.0055,-2.0379,-2.034,-1.8755,0.0,0.0,0.0,0.0,0.0,0.0,0.0,0.0,0.0,0.0,0.0,0.0,0.0,0.0,0.0,0.0,0.0,0.0,0.0,0.0,0.0,0.0,0.0,0.0,0.0,0.0,0.0,-0.7086,0.0,0.0,0.0,0.0,0.0,0.0,0.0,0.0,0.0,0.0,0.0,0.0,0.0,0.0,-1.6481,-1.6699,-1.7481,-1.8045,0.0,0.0,-1.8333,-1.8359,-1.8174,-1.7745,0.0,0.0,0.0,0.0,0.0,0.0,0.0,0.0,0.0,0.0,0.0,0.0,0.0,0.0,0.0,0.0,0.0,0.0,0.0,0.0,0.0,0.0,0.0,0.0,0.0,0.0,0.0,0.0,0.0,0.0,0.0,0.0,0.0,0.0,0.0,0.0,0.0,0.0,0.0,0.0,0.0,0.0,0.0,0.0,0.0,0.0,0.0,0.0,0.0,0.0,0.0,0.0,0.0,0.0,0.0,-1.6357,-1.7345,-1.8587,-2.0141,-2.027,-2.0289,-2.0289,-1.8744,-1.7098,0.0,0.0,0.0,0.0,0.0,0.0,0.0,0.0,0.0,0.0,0.0,0.0,0.0,0.0,0.0,0.0,0.0,0.0,0.0,0.0,0.0,0.0,0.0,0.0,0.0,0.0,0.0,0.0,0.0,0.0,0.0,0.0,0.0,0.0,0.0,0.0,0.0,0.0,0.0,0.0,0.0,-1.6688,-1.7507,-1.8362,-1.8915,0.0,0.0,-2.0131,-2.0111,-1.9427,-1.8612,-1.7768,0.0,0.0,0.0,0.0,0.0,0.0,0.0,0.0,0.0,0.0,0.0,0.0,0.0,0.0,0.0,0.0,0.0,0.0,0.0,0.0,0.0,0.0,0.0,0.0,0.0,0.0,0.0,0.0,0.0,0.0,0.0,0.0,0.0,0.0,0.0,0.0,0.0,0.0,0.0,0.0,0.0,0.0,0.0,0.0,0.0,0.0,0.0,0.0,0.0,0.0,0.0,0.0,0.0,-1.4,-1.6512,-1.7379,-1.8616,-2.021,-2.0299,-2.0292,-2.0292,-1.8712,-1.7275,0.0,0.0,0.0,0.0,0.0,0.0,0.0,0.0,0.0,0.0,0.0,0.0,0.0,0.0,0.0,0.0,0.0,0.0,0.0,0.0,0.0,0.0,0.0,0.0,0.0,0.0,0.0,0.0,-0.9467,-0.9934,-1.0264,0.0,0.0,0.0,0.0,0.0,0.0,0.0,0.0,0.0,0.0,-1.8313,-1.9186,-1.9598,0.0,0.0,-2.045,-2.0308,-2.0292,-2.0023,-1.9496,-1.8647,-1.8187,0.0,0.0,0.0,0.0,0.0,0.0,0.0,0.0,0.0,0.0,0.0,0.0,0.0,0.0,0.0,0.0,0.0,0.0,0.0,0.0,0.0,0.0,0.0,0.0,0.0,0.0,0.0,0.0,0.0,0.0,0.0,0.0,0.0,0.0,0.0,0.0,0.0,0.0,0.0,0.0,0.0,0.0,0.0,0.0,0.0,0.0,0.0,0.0,0.0,0.0,0.0,0.0,-1.4348,-1.6847,-1.7729,-1.8864,-2.0258,-2.03,-2.0292,-2.0254,-1.8903,-1.7652,0.0,0.0,0.0,0.0,0.0,0.0,0.0,0.0,0.0,0.0,0.0,0.0,0.0,0.0,0.0,0.0,0.0,0.0,0.0,0.0,0.0,0.0,0.0,0.0,0.0,0.0,0.0,0.0,-0.9935,-1.0323,-1.032,0.0,0.0,0.0,0.0,0.0,0.0,0.0,0.0,0.0,0.0,-1.9708,-2.0571,-2.0899,-2.1297,-2.1899,-2.1475,-2.0985,-2.0739,-2.0693,-2.0308,-1.9181,0.0,0.0,0.0,0.0,0.0,0.0,0.0,0.0,0.0,0.0,0.0,0.0,0.0,0.0,0.0,0.0,0.0,0.0,0.0,0.0,0.0,0.0,0.0,0.0,0.0,0.0,0.0,0.0,0.0,0.0,-1.1421,0.0,0.0,0.0,0.0,0.0,0.0,0.0,0.0,0.0,0.0,0.0,0.0,0.0,0.0,0.0,0.0,0.0,0.0,0.0,0.0,0.0,0.0,-1.5204,-1.7722,-1.8537,-1.9396,-2.0254,-2.0292,-2.0292,-2.0273,-1.9422,-1.8185,-1.6521,0.0,0.0,0.0,0.0,0.0,0.0,0.0,0.0,0.0,0.0,0.0,0.0,0.0,0.0,0.0,0.0,0.0,0.0,0.0,0.0,0.0,0.0,0.0,0.0,0.0,0.0,-1.0251,-1.0288,-1.0323,0.0,0.0,0.0,0.0,0.0,0.0,0.0,0.0,0.0,0.0,-1.9761,-2.059,-2.148,-2.2303,-2.279,-2.2867,-2.2848,-2.2532,-2.169,-2.1567,-2.0981,0.0,0.0,0.0,0.0,0.0,0.0,0.0,0.0,0.0,0.0,0.0,0.0,0.0,0.0,0.0,0.0,0.0,0.0,0.0,0.0,0.0,0.0,0.0,0.0,0.0,0.0,0.0,-1.4093,-1.3597,0.0,0.0,0.0,0.0,0.0,0.0,0.0,0.0,0.0,0.0,0.0,-1.8649,-1.8105,0.0,0.0,0.0,0.0,0.0,0.0,0.0,0.0,0.0,0.0,0.0,0.0,-1.5784,-1.7664,-1.8581,-1.9427,-2.0273,-2.0292,-2.0292,-2.0292,-1.9453,-1.7947,-1.5705,0.0,0.0,0.0,0.0,0.0,0.0,0.0,0.0,0.0,0.0,0.0,0.0,0.0,0.0,0.0,0.0,0.0,0.0,0.0,0.0,0.0,0.0,0.0,0.0,0.0,-1.0305,0.0,0.0,0.0,0.0,0.0,0.0,0.0,0.0,0.0,0.0,0.0,-1.8387,-1.9833,-2.072,-2.1762,-2.3184,-2.3139,-2.3172,0.0,0.0,0.0,0.0,0.0,0.0,0.0,0.0,0.0,0.0,0.0,0.0,0.0,0.0,-2.0192,-1.8916,-1.8488,-1.8289,-1.8289,0.0,0.0,0.0,0.0,0.0,0.0,0.0,0.0,0.0,0.0,0.0,0.0,0.0,0.0,-1.653,0.0,-1.5458,0.0,0.0,0.0,0.0,0.0,0.0,0.0,0.0,-1.9599,-2.0424,-2.1237,-2.0688,-2.025,0.0,-1.9394,-1.7657,0.0,0.0,0.0,0.0,0.0,0.0,0.0,0.0,-1.6586,-1.8489,-1.9423,-2.028,-2.1067,-2.0856,-2.0721,-2.071,-1.9577,-1.8189,-1.656,-1.5705,-1.4512,0.0,0.0,0.0,0.0,0.0,0.0,0.0,0.0,0.0,0.0,0.0,0.0,0.0,0.0,0.0,0.0,0.0,0.0,0.0,0.0,0.0,0.0,0.0,-1.0425,0.0,0.0,0.0,0.0,0.0,0.0,0.0,0.0,0.0,-1.7615,-1.8846,-1.9966,-2.0854,-2.1895,-2.3023,-2.4151,0.0,0.0,0.0,0.0,0.0,0.0,0.0,-2.3276,-2.2972,-2.289,-2.2832,-2.2819,-2.3032,-2.3197,-2.3253,0.0,0.0,-2.1282,-2.0947,-2.0928,-2.0906,-2.0896,-2.0906,-2.0897,-2.0956,-2.0956,0.0,0.0,0.0,0.0,0.0,0.0,0.0,0.0,-1.999,-1.9863,0.0,-1.8255,0.0,0.0,0.0,0.0,0.0,-1.7553,0.0,0.0,-2.1324,-2.2153,-2.2952,-2.2909,-2.2477,-2.1706,-2.1594,-2.07,-1.9006,-1.6605,0.0,0.0,0.0,0.0,0.0,0.0,-1.773,-2.009,-2.1032,-2.1905,-2.2623,-2.1924,-2.1521,-2.1445,-1.9835,-1.8958,-1.8874,-1.6657,-1.5291,-1.5138,-1.2856,0.0,0.0,0.0,0.0,0.0,0.0,0.0,0.0,0.0,0.0,0.0,0.0,0.0,0.0,0.0,0.0,0.0,0.0,0.0,0.0,-1.0371,0.0,0.0,0.0,0.0,0.0,0.0,0.0,0.0,0.0,0.0,-1.8976,-1.989,-2.0912,-2.1783,0.0,0.0,0.0,0.0,-2.5591,-2.5595,-2.5591,-2.5274,-2.4467,-2.4326,-2.4063,-2.3248,0.0,0.0,-2.2994,-2.3628,-2.4141,-2.4141,-2.4791,-2.4841,-2.3102,-2.2767,-2.2776,-2.2687,-2.2685,-2.2675,-2.2685,-2.2677,-2.2677,-2.269,0.0,0.0,0.0,0.0,-2.0584,-2.1105,-2.1645,-2.1903,-2.1556,-2.0792,-2.0554,0.0,0.0,0.0,0.0,0.0,0.0,-2.1347,-2.2945,-2.3216,-2.3765,-2.4582,-2.3976,-2.3563,-2.3285,-2.2681,-2.2143,-2.1606,-2.0318,-1.865,-1.6657,0.0,0.0,0.0,0.0,-1.946,-2.0173,-2.1589,-2.244,-2.2611,-2.242,-2.2018,-2.1426,-2.0402,-1.955,-1.8945,-1.8233,-1.7008,-1.5285,-1.4503,0.0,0.0,0.0,0.0,0.0,0.0,0.0,0.0,0.0,0.0,0.0,0.0,0.0,0.0,0.0,0.0,0.0,0.0,0.0,-1.117,-1.1796,-1.2265,0.0,0.0,0.0,0.0,0.0,0.0,0.0,0.0,0.0,-2.0955,-2.1782,-2.2662,0.0,0.0,-2.4602,-2.521,-2.5522,-2.5675,-2.5675,-2.5668,0.0,-2.5348,-2.5239,-2.5143,-2.4895,-2.4799,-2.4749,-2.4749,-2.4949,-2.5104,-2.5143,-2.5357,-2.5344,-2.4868,-2.4662,-2.4581,-2.4542,-2.449,-2.4457,-2.4446,-2.4446,-2.4446,-2.6251,-2.4319,-2.2853,-2.2537,-2.2997,-2.3314,-2.3715,-2.4154,-2.4164,-2.3715,-2.294,-2.2633,-2.2048,-2.125,-2.1166,0.0,0.0,0.0,-2.3007,-2.3965,-2.43,-2.4703,-2.5182,-2.4662,-2.4451,-2.4413,-2.3886,-2.3484,-2.3169,-2.269,-2.152,-1.9703,0.0,0.0,-1.9223,-2.0178,-2.0986,-2.1578,-2.2577,-2.3229,-2.351,-2.3182,-2.2441,-2.1323,-2.0811,-2.0164,-1.9382,-1.9018,-1.801,-1.6239,-1.5543,-1.428,0.0,0.0,0.0,0.0,0.0,0.0,0.0,0.0,0.0,0.0,0.0,-0.9654,0.0,0.0,0.0,0.0,-1.1303,-1.1632,-1.2506,-1.3071,0.0,0.0,0.0,0.0,0.0,0.0,0.0,-2.0136,-2.1365,-2.2301,-2.283,-2.3594,-2.4197,-2.4381,-2.4705,-2.511,-2.564,0.0,-2.5698,-2.5698,-2.5693,-2.5687,-2.5704,-2.5658,-2.5644,-2.5632,-2.5566,-2.5551,-2.5537,-2.5526,-2.5546,-2.5595,-2.5615,-2.5579,-2.5562,-2.5485,-2.5456,-2.537,-2.5282,-2.5239,-2.5206,-2.5206,-2.5217,-2.9174,-2.8965,-2.672,-2.5627,-2.5455,-2.6178,-2.6472,-2.6479,-2.6472,-2.6063,-2.5337,-2.4594,-2.3818,-2.3059,-2.3007,0.0,-2.3015,-2.3828,-2.419,-2.4209,-2.4927,-2.5271,-2.5263,-2.5213,-2.5168,-2.5156,-2.513,-2.4702,-2.3987,-2.3979,-2.3607,-2.2862,-2.1423,-2.0999,-2.1577,-2.1579,-2.2304,-2.3736,-2.3765,-2.4155,-2.4847,-2.4035,-2.2814,-2.1249,-2.1135,-2.0729,-2.001,-1.9269,-1.8524,-1.7715,-1.6225,-1.5338,-1.5132,0.0,0.0,0.0,0.0,0.0,0.0,0.0,0.0,0.0,0.0,0.0,0.0,0.0,0.0,0.0,-1.293,0.0,-1.4221,-1.4423,0.0,0.0,0.0,-1.7721,-1.9244,-2.0172,-2.1038,-2.1902,0.0,0.0,-2.4503,-2.5195,-2.5393,-2.4609,-2.519,-2.5689,-2.5689,-2.5689,-2.5689,-2.5687,-2.5687,-2.5705,-2.5701,-2.5698,-2.5693,-2.5697,-2.5648,-2.5621,-2.5621,-2.5617,-2.5609,-2.5613,-2.5609,-2.5624,-2.5615,-2.5585,-2.5577,-2.5432,-2.537,-2.5292,-2.5233,-2.5222,-2.5233,-3.1409,-3.1371,-3.0784,-2.9144,-2.7007,-2.7165,-2.72,-2.7177,-2.7177,-2.7091,-2.6923,-2.6692,-2.6446,-2.6214,-2.6199,-2.6185,-2.6193,-2.6397,-2.6492,-2.6511,-2.6681,-2.6775,-2.6737,-2.609,-2.5788,-2.5731,-2.5205,-2.4853,-2.4663,-2.4721,-2.4631,-2.4434,-2.4121,-2.3416,-2.2401,-2.2934,-2.3351,-2.3644,-2.4247,-2.4605,-2.4716,-2.3967,-2.3013,-2.1975,-2.1343,-2.0684,-1.9949,-1.9728,-1.9286,-1.8543,-1.7576,-1.6467,-1.5247,-1.3983,0.0,0.0,0.0,0.0,0.0,0.0,0.0,0.0,0.0,-1.1568,-1.2442,0.0,-1.2783,0.0,-1.4007,-1.5112,-1.5938,-1.72,0.0,0.0,-1.9776,-2.0737,-2.114,-2.1961,-2.2819,-2.3688,-2.4144,-2.4622,-2.523,-2.5499,-2.5558,-2.5356,-2.5542,-2.5703,-2.57,-2.5698,-2.5696,-2.5689,-2.5687,-2.5707,-2.5705,-2.5703,-2.5698,-2.5696,-2.5687,-2.5684,-2.5671,-2.5665,-2.5662,-2.5687,-2.5684,-2.5675,-2.5675,-2.5619,-2.5595,-2.5551,-2.5464,-2.536,-2.5293,-2.5274,-2.5303,-3.2691,-3.2653,-3.2315,-3.113,-2.9521,-2.9574,-2.9347,-2.8938,-2.8579,-2.8253,-2.7922,-2.75,-2.7299,-2.7248,-2.725,-2.7253,-2.7255,-2.7255,-2.7255,-2.7255,-2.7255,-2.7255,-2.7236,-2.6747,-2.654,-2.6502,-2.5706,-2.5359,-2.5355,-2.5069,-2.4907,-2.4896,-2.4936,-2.4493,-2.3638,-2.4056,-2.4233,-2.4129,-2.4475,-2.466,-2.4613,-2.4166,-2.3363,-2.22,-2.1728,-2.0945,-1.9844,-1.9847,-1.9525,-1.8783,-1.8012,-1.6869,-1.5242,-1.4365,-1.3243,0.0,0.0,0.0,0.0,0.0,0.0,0.0,0.0,0.0,0.0,0.0,-1.5076,-1.5076,-1.6638,-1.782,-1.8271,-1.9506,-2.0458,-2.0866,-2.1765,-2.2489,-2.2868,-2.3344,-2.3961,-2.4851,-2.4895,-2.5056,-2.5532,-2.5566,-2.5571,-2.5604,-2.5623,-2.5668,-2.5699,-2.5703,-2.5702,-2.5699,-2.5697,-2.5693,-2.5689,-2.5705,-2.5703,-2.5703,-2.5701,-2.5698,-2.5703,-2.5698,-2.5696,-2.5696,-2.569,-2.5704,-2.5694,-2.5664,-2.5643,-2.5639,-2.5576,-2.5471,-2.5406,-2.5398,-2.5398,-3.3412,-3.3337,-3.2662,-3.232,-3.2281,-3.2402,-3.1918,-3.0998,-3.0283,-2.9532,-2.8724,-2.7992,-2.7599,-2.7488,-2.747,-2.749,-2.749,-2.7509,-2.749,-2.749,-2.749,-2.749,-2.749,-2.736,-2.7321,-2.7284,-2.6441,-2.6005,-2.5944,-2.5264,-2.4881,-2.4794,-2.479,-2.4779,-2.4791,-2.4823,-2.4837,-2.4753,-2.4596,-2.4515,-2.45,-2.45,-2.3791,-2.2337,-2.2151,-2.1361,-1.9931,-1.9807,-1.951,-1.8869,-1.8137,-1.7068,-1.5608,-1.4801,-1.4242,0.0,-1.346,0.0,0.0,0.0,0.0,0.0,0.0,0.0,0.0,-1.6949,-1.7948,-1.8356,-1.959,-2.0496,-2.0711,-2.151,-2.2319,-2.3062,-2.3256,-2.3624,-2.4361,-2.4457,-2.4735,-2.5498,-2.5544,-2.5518,-2.5576,-2.5525,-2.5537,-2.559,-2.5605,-2.5628,-2.5662,-2.5691,-2.5702,-2.5703,-2.5703,-2.5701,-2.5694,-2.5691,-2.5691,-2.5691,-2.5687,-2.5687,-2.5687,-2.5705,-2.5742,-2.5857,-2.5932,-2.5966,-2.5991,-2.6077,-2.6068,-2.6142,-2.6128,-2.596,-2.5609,-2.5506,-2.5518,-3.4027,-3.4008,-3.386,-3.3822,-3.378,-3.3804,-3.3053,-3.1794,-3.1563,-3.1019,-3.0199,-3.0148,-2.9681,-2.9005,-2.8986,-2.8985,-2.8983,-2.8983,-2.8983,-2.8983,-2.8983,-2.8983,-2.8927,-2.8257,-2.7922,-2.7866,-2.7158,-2.6468,-2.5833,-2.5752,-2.537,-2.4729,-2.4723,-2.4726,-2.472,0.0,0.0,0.0,-2.4497,-2.4517,-2.45,-2.45,-2.4035,-2.3015,-2.2365,0.0,-2.0634,-2.0023,-1.9688,-1.9585,-1.8888,0.0,0.0,0.0,0.0,0.0,0.0,0.0,0.0,0.0,0.0,0.0,-1.8208,-1.8788,-1.7461,-1.7219,-1.8232,-2.0673,-2.0648,-2.0958,-2.2301,-2.3205,-2.3805,-2.396,-2.4599,-2.5103,-2.5258,-2.5279,-2.535,-2.5506,-2.5518,-2.5518,-2.5525,-2.5525,-2.5506,-2.5518,-2.5576,-2.5613,-2.5609,-2.5675,-2.5685,-2.5705,-2.5698,-2.5703,-2.5703,-2.5702,-2.5779,-2.5699,-2.5694,-2.5748,-2.5787,-2.5774,-2.6031,-2.6598,-2.6775,-2.6991,-2.7615,-2.7809,-2.7691,-2.7786,-2.7764,-2.7342,-2.5907,-2.5595,-2.5561,-3.4216,0.0,-3.4216,-3.4216,0.0,-3.4216,-3.3775,-3.2999,-3.2562,-3.1931,-3.1151,-3.1257,-3.0788,-2.9943,-2.9965,-2.976,-2.9344,-2.9386,-2.9388,-2.9388,-2.9388,-2.9388,-2.9388,-2.8961,-2.8756,-2.8719,-2.7939,-2.7326,-2.6916,-2.6152,-2.5609,-2.5198,-2.4804,-2.4617,-2.4603,-2.4568,-2.4532,-2.4515,-2.4517,-2.45,-2.45,-2.45,-2.4091,-2.3221,-2.2813,0.0,0.0,0.0,0.0,0.0,0.0,0.0,0.0,0.0,0.0,-1.7252,-1.7116,-1.7074,-1.7131,-1.7535,-1.8133,-1.8982,-2.0569,-2.1174,-2.0373,-2.0075,-2.0565,-2.212,-2.2662,-2.3081,-2.3514,-2.4326,-2.4849,-2.4868,-2.5229,-2.5507,-2.5507,-2.5515,-2.5503,-2.5503,-2.5503,-2.5522,-2.5522,-2.5503,-2.551,-2.5517,-2.5531,-2.5583,-2.5544,-2.5595,-2.5636,-2.5658,-2.5673,-2.5707,-2.5733,-2.6107,-2.6345,-2.6367,-2.6699,-2.6952,-2.6991,-2.6992,-2.7148,-2.7557,-2.7635,-2.7809,-2.8156,-2.8291,-2.8293,-2.8294,-2.8294,-2.8063,-2.7089,-2.6937,-2.6952,-3.4173,-3.4173,-3.4179,-3.4216,-3.4216,-3.4197,-3.413,-3.4037,0.0,0.0,0.0,-3.1941,-3.1492,-3.0709,-3.0754,-3.0327,-2.9521,-2.9548,-2.9516,-2.9386,-2.9386,-2.9388,-2.9388,-2.9388,-2.9388,-2.937,-2.8682,-2.8254,-2.8068,-2.6748,-2.5987,-2.5671,-2.5039,-2.463,-2.4518,-2.45,-2.45,-2.45,-2.45,-2.45,-2.45,-2.45,-2.4165,-2.3444,-2.3277,-2.2571,-2.1291,-2.1079,-2.0732,-2.0172,-1.9545,-1.923,-1.9216,-1.8674,-1.8374,-1.844,-1.8472,-1.8808,-1.9585,-1.965,-2.0304,-2.1823,-2.2574,-2.3004,-2.3099,-2.2982,-2.3035,-2.3292,-2.4672,-2.5201,-2.4478,-2.5066,-2.5511,-2.5511,-2.5511,-2.5511,-2.5511,-2.5511,-2.5511,-2.5511,-2.5511,-2.5569,-2.5743,-2.5762,-2.5782,-2.5933,-2.6103,-2.5948,-2.5945,-2.5968,-2.6009,-2.6193,-2.6342,-2.6213,-2.6266,-2.6724,-2.7181,-2.7216,-2.7764,-2.8254,-2.8274,-2.8293,-2.835,-2.8463,-2.85,-2.8591,-2.8714,-2.8867,-2.8746,-2.8727,-2.8746,-2.8746,-2.875,-2.8744,-2.8611,-3.4142,-3.4124,-3.4173,-3.4216,-3.4216,-3.4148,-3.403,-3.3947,-3.3869,-3.3363,-3.2576,-3.2631,-3.2194,-3.1449,-3.1455,-3.103,-3.0268,-3.0317,-2.999,-2.9342,-2.9384,-2.9388,-2.9388,-2.9388,-2.9388,-2.9388,-2.9277,-2.8831,-2.8143,-2.7883,-2.7102,-2.5856,-2.5578,-2.5187,-2.4555,-2.45,-2.45,-2.45,-2.45,-2.45,-2.45,-2.45,-2.4444,-2.4314,-2.3591,-2.311,-2.2868,-2.2182,-2.1823,-2.1757,-2.167,-2.162,-2.1676,-2.1588,-2.1664,-2.1718,-2.1765,-2.1895,-2.2058,-2.2154,-2.2575,-2.3456,-2.3666,-2.3774,-2.3832,-2.3261,-2.3497,-2.4857,-2.5305,-2.5445,-2.5274,-2.5379,-2.5511,-2.5511,-2.5511,-2.5511,-2.5511,-2.5511,-2.553,-2.5569,-2.5511,-2.582,-2.6412,-2.6528,-2.6807,-2.7395,-2.7365,-2.7594,-2.754,-2.7155,-2.7095,-2.7643,-2.7853,-2.7844,-2.7697,-2.7881,-2.8026,-2.8026,-2.8182,-2.8423,-2.8441,-2.8431,-2.8661,-2.9211,-2.9315,-2.9588,-3.0189,-3.0446,-3.0306,-3.0248,-3.0228,-3.0287,-3.0248,-3.0267,-2.9929,-3.5158,-3.4789,-3.4777,-3.4543,-3.4099,-3.4023,-3.3947,-3.3913,-3.3895,-3.371,-3.3379,-3.3419,-3.2994,-3.2232,-3.2238,-3.1795,-3.0973,-3.0618,-3.0235,-2.9887,-2.9527,-2.9326,-2.9365,-2.9386,-2.9388,-2.9388,-2.9388,-2.9202,-2.8812,-2.8347,-2.7714,-2.699,-2.6154,-2.5299,-2.4537,-2.45,-2.45,-2.45,-2.45,-2.45,-2.45,-2.45,-2.45,-2.45,-2.4092,-2.3665,-2.3203,-2.285,-2.2476,-2.2046,-2.2073,-2.2122,-2.2152,-2.2206,-2.227,-2.2337,-2.2369,-2.2623,-2.3174,-2.3667,-2.4102,-2.4453,-2.4491,-2.4522,-2.4549,-2.4303,-2.4485,-2.5255,-2.537,-2.5406,-2.5385,-2.5421,-2.5456,-2.5511,-2.5511,-2.5511,-2.5511,-2.5511,-2.5666,-2.6064,-2.616,-2.647,-2.731,-2.7406,-2.7503,-2.7937,-2.8004,-2.8197,-2.867,-2.845,-2.8151,-2.8171,-2.8139,-2.8133,-2.8203,-2.859,-2.8816,-2.8846,-2.9299,-2.9562,-2.9615,-2.9586,-2.9737,-3.0049,-3.0151,-3.0312,-3.075,-3.0793,-3.0793,-3.0798,-3.0798,-3.0798,-3.0802,-3.0785,-3.0517,-3.6131,-3.5559,-3.5356,-3.4784,-3.3972,-3.3921,-3.3913,-3.3887,-3.3815,-3.3834,-3.3868,-3.3921,-3.3571,-3.2985,-3.2999,-3.2557,-3.1753,-3.1157,-3.0743,-3.0337,-2.9813,-2.9465,-2.932,-2.9365,-2.9386,-2.9388,-2.9388,-2.9388,-2.9314,-2.87,-2.8272,-2.7937,-2.6507,-2.5392,-2.4797,-2.4574,-2.45,-2.45,-2.45,-2.45,-2.45,-2.45,-2.45,-2.45,-2.45,-2.4202,-2.3518,-2.3481,-2.3203,-2.2625,-2.2619,-2.2654,-2.2635,-2.2678,-2.2753,-2.2792,-2.2839,-2.3148,-2.3898,-2.4581,-2.4966,-2.4953,-2.4953,-2.4953,-2.4966,-2.5075,-2.5168,-2.525,-2.5282,-2.5293,-2.5351,-2.5395,-2.5421,-2.5464,-2.5492,-2.5511,-2.5511,-2.5646,-2.5986,-2.6605,-2.6857,-2.7329,-2.8045,-2.8296,-2.8421,-2.8606,-2.8595,-2.8896,-2.9457,-2.959,-2.9298,-2.8899,-2.8664,-2.8749,-2.8706,-2.9225,-2.9622,-2.9687,-3.023,-3.0528,-3.0631,-3.0714,-3.0734,-3.065,-3.0664,-3.067,-3.0759,-3.0784,-3.0764,-3.0774,-3.0774,-3.0774,-3.0784,-3.0791,-3.0817,-3.638,-3.6205,-3.5606,-3.4758,-3.395,-3.3913,-3.3868,-3.3834,-3.3807,-3.3807,-3.3834,-3.3834,-3.3778,-3.3697,-3.3687,-3.3246,-3.2522,-3.2488,-3.1685,-3.0457,-3.0319,-2.9961,-2.9376,-2.9302,-2.9344,-2.9386,-2.9388,-2.9388,-2.9388,-2.9295,-2.8886,-2.7993,-2.6507,-2.5689,-2.5503,-2.4871,-2.4518,-2.45,-2.45,-2.45,-2.45,-2.45,-2.45,-2.45,-2.45,-2.4462,-2.4332,-2.4388,-2.4351,-2.4276,-2.4221,-2.4258,-2.4256,-2.4271,-2.4286,-2.4248,-2.4372,-2.4564,-2.4682,-2.4836,-2.4884,-2.4827,-2.4827,-2.4842,-2.4842,-2.4945,-2.5038,-2.5113,-2.516,-2.5236,-2.5292,-2.5351,-2.5395,-2.5421,-2.5514,-2.5511,-2.5646,-2.6141,-2.6644,-2.6683,-2.7484,-2.8199,-2.8973,-2.9166,-2.9476,-2.9998,-3.0037,-3.0095,-3.0269,-3.0327,-3.0336,-3.0287,-3.0324,-3.0272,-3.0233,-3.0377,-3.0413,-3.0513,-3.061,-3.071,-3.0704,-3.0717,-3.0704,-3.071,-3.0697,-3.0697,-3.0703,-3.0703,-3.0722,-3.0728,-3.0734,-3.0734,-3.0784,-3.0796,-3.0819,-3.7356,-3.6916,-3.6691,-3.579,-3.4587,-3.4036,-3.3815,-3.3807,-3.3807,-3.3807,-3.3807,-3.3807,-3.3807,-3.3807,-3.3807,-3.3605,-3.3293,-3.286,-3.2309,-3.1599,-3.0765,-3.0167,-2.988,-2.9465,-2.9323,-2.9344,-2.9386,-2.9388,-2.9388,-2.9388,-2.8961,-2.8143,-2.7418,-2.6656,-2.5764,-2.5373,-2.4983,-2.4518,-2.45,-2.45,-2.45,-2.45,-2.45,-2.45,-2.45,-2.45,-2.45,-2.45,-2.45,-2.45,-2.45,-2.45,-2.45,-2.4498,-2.4515,-2.4495,-2.4584,-2.4671,-2.4735,-2.4767,-2.4764,-2.4738,-2.4768,-2.4821,-2.4802,-2.4861,-2.4917,-2.4966,-2.5044,-2.512,-2.5228,-2.5293,-2.537,-2.5464,-2.5865,-2.6199,-2.6227,-2.6962,-2.7619,-2.8141,-2.8548,-2.9089,-2.9843,-3.0056,-3.0211,-3.0559,-3.0617,-3.0617,-3.0617,-3.0617,-3.0617,-3.0598,-3.0616,-3.0606,-3.0606,-3.0604,-3.0632,-3.064,-3.0629,-3.0634,-3.0642,-3.0676,-3.0703,-3.0697,-3.0711,-3.0698,-3.0704,-3.0704,-3.0704,-3.0697,-3.0739,-3.0774,-3.0798,-3.0784,-3.082,-3.818,-3.7668,-3.7539,-3.6523,-3.4972,-3.4394,-3.4009,-3.3807,-3.3807,-3.3807,-3.3807,-3.3807,-3.3807,-3.3807,-3.3807,-3.3807,-3.3733,-3.3201,-3.2816,-3.2504,-3.1415,-3.0704,-3.0291,-2.9824,-2.9462,-2.9302,-2.9344,-2.9368,-2.9388,-2.9388,-2.9091,-2.8515,-2.8216,-2.7529,-2.6433,-2.5987,-2.541,-2.489,-2.4648,-2.45,-2.45,-2.45,-2.45,-2.45,-2.45,-2.45,-2.45,-2.45,-2.45,-2.45,-2.45,-2.45,-2.45,-2.45,-2.4517,-2.4497,-2.4532,-2.4601,-2.4685,-2.4685,-2.4682,-2.4707,-2.4742,-2.4772,-2.4772,-2.4768,-2.4813,-2.4875,-2.4922,-2.4999,-2.5149,-2.5231,-2.537,-2.5678,-2.6341,-2.6762,-2.7061,-2.7851,-2.8586,-2.9205,-2.9457,-2.9863,-3.0443,-3.0578,-3.0578,-3.0598,-3.0617,-3.0617,-3.0617,-3.0617,-3.0617,-3.0617,-3.0617,-3.0617,-3.0617,-3.0616,-3.0606,-3.0604,-3.0613,-3.0602,-3.0621,-3.0665,-3.07,-3.0695,-3.0703,-3.069,-3.0704,-3.0711,-3.0711,-3.073,-3.0753,-3.0799,-3.0798,-3.0784,-3.082,-3.8473,-3.8327,-3.7759,-3.6578,-3.5009,-3.4935,-3.4504,-3.3899,-3.3825,-3.3807,-3.3807,-3.3807,-3.3807,-3.3807,-3.3807,-3.3788,-3.3788,-3.3715,-3.3311,-3.2724,-3.2485,-3.1666,-3.036,-3.0272,-2.989,-2.9329,-2.928,-2.9344,-2.9368,-2.9388,-2.9388,-2.9277,-2.857,-2.8086,-2.7697,-2.6507,-2.5708,-2.5522,-2.4908,-2.4518,-2.45,-2.45,-2.45,-2.45,-2.45,-2.45,-2.45,-2.45,-2.45,-2.45,-2.45,-2.45,-2.45,-2.45,-2.45,-2.45,-2.4497,-2.453,-2.4599,-2.4631,-2.4679,-2.4692,-2.4707,-2.4707,-2.4707,-2.4707,-2.4738,-2.4787,-2.4832,-2.4903,-2.507,-2.5141,-2.5546,-2.6271,-2.6583,-2.7093,-2.7865,-2.8723,-2.9186,-2.9457,-2.9998,-3.0424,-3.0598,-3.0617,-3.0617,-3.0617,-3.0617,-3.0617,-3.0617,-3.0617,-3.0617,-3.0617,-3.0617,-3.0617,-3.0617,-3.0607,-3.0616,-3.0606,-3.0615,-3.0604,-3.0621,-3.0637,-3.0673,-3.07,-3.0695,-3.0703,-3.071,-3.069,-3.0697,-3.0717,-3.0767,-3.0794,-3.0789,-3.0801,-3.082,-3.8318,-3.8418,-3.7699,-3.7051,-3.6523,-3.5495,-3.4807,-3.4541,-3.3973,-3.3753,-3.3726,-3.3698,-3.3698,-3.3734,-3.3726,-3.3753,-3.3807,-3.3807,-3.3642,-3.333,-3.2852,-3.2284,-3.174,-3.0796,-3.0199,-2.989,-2.944,-2.9262,-2.9344,-2.9368,-2.9388,-2.937,-2.9109,-2.8682,-2.8106,-2.7529,-2.6767,-2.5782,-2.5392,-2.5039,-2.4555,-2.45,-2.45,-2.45,-2.45,-2.45,-2.45,-2.45,-2.45,-2.45,-2.45,-2.45,-2.45,-2.45,-2.45,-2.45,-2.4498,-2.4515,-2.4547,-2.4582,-2.4596,-2.4647,-2.4679,-2.4679,-2.4695,-2.4692,-2.4742,-2.4791,-2.4772,-2.4798,-2.4898,-2.5,-2.5442,-2.6316,-2.7072,-2.7798,-2.8695,-2.9555,-3.0114,-3.0172,-3.0443,-3.0598,-3.0617,-3.0617,-3.0617,-3.0617,-3.0617,-3.0617,-3.0617,-3.0617,-3.0617,-3.0617,-3.0617,-3.0617,-3.0617,-3.0617,-3.0598,-3.0607,-3.0616,-3.0616,-3.0625,-3.0632,-3.064,-3.0649,-3.0673,-3.0688,-3.0695,-3.0703,-3.071,-3.0704,-3.0755,-3.0778,-3.0799,-3.0791,-3.0837,-3.8186,-3.8387,-3.7924,-3.7638,-3.7312,-3.6028,-3.5247,-3.4917,-3.4073,-3.3698,-3.3671,-3.3615,-3.3615,-3.3661,-3.3671,-3.3698,-3.3726,-3.3762,-3.3807,-3.377,-3.3238,-3.2852,-3.2474,-3.1526,-3.0759,-3.0236,-2.9521,-2.9218,-2.9302,-2.9344,-2.9386,-2.9388,-2.9388,-2.9107,-2.857,-2.8234,-2.7511,-2.6563,-2.5987,-2.541,-2.4908,-2.4611,-2.45,-2.45,-2.45,-2.45,-2.45,-2.45,-2.45,-2.45,-2.45,-2.45,-2.45,-2.45,-2.45,-2.45,-2.45,-2.4498,-2.4495,-2.4512,-2.453,-2.4601,-2.465,-2.4666,-2.4666,-2.466,-2.4695,-2.4711,-2.4711,-2.4707,-2.4825,-2.5092,-2.5715,-2.6606,-2.7405,-2.8321,-2.9402,-3.0162,-3.0501,-3.0559,-3.0578,-3.0617,-3.0617,-3.0617,-3.0617,-3.0617,-3.0617,-3.0617,-3.0617,-3.0617,-3.0617,-3.0617,-3.0617,-3.0617,-3.0617,-3.0617,-3.0617,-3.0598,-3.0607,-3.0617,-3.0607,-3.0606,-3.0615,-3.0604,-3.0621,-3.0665,-3.068,-3.0695,-3.0703,-3.069,-3.0717,-3.0742,-3.0779,-3.0798,-3.0827,-3.8186,-3.846,-3.8473,-3.8065,-3.7514,-3.6549,-3.576,-3.4999,-3.4064,-3.3671,-3.3661,-3.3587,-3.353,-3.3577,-3.3577,-3.3577,-3.3615,-3.3726,-3.378,-3.3743,-3.3733,-3.3311,-3.2695,-3.2467,-3.1562,-3.0254,-2.9517,-2.9211,-2.928,-2.9302,-2.9326,-2.9368,-2.9386,-2.933,-2.937,-2.8587,-2.8123,-2.766,-2.6526,-2.5764,-2.5596,-2.489,-2.45,-2.45,-2.45,-2.45,-2.45,-2.45,-2.45,-2.45,-2.45,-2.45,-2.45,-2.45,-2.45,-2.45,-2.45,-2.4498,-2.4513,-2.4495,-2.4532,-2.4568,-2.4601,-2.4599,-2.4615,-2.4596,-2.4613,-2.4631,-2.4631,-2.4647,-2.4867,-2.5418,-2.6276,-2.731,-2.7675,-2.8511,-2.9786,-3.0367,-3.0519,-3.0579,-3.0588,-3.0617,-3.0617,-3.0617,-3.0617,-3.0617,-3.0617,-3.0617,-3.0617,-3.0617,-3.0617,-3.0617,-3.0617,-3.0617,-3.0617,-3.0617,-3.0617,-3.0617,-3.0617,-3.0617,-3.0598,-3.0616,-3.0606,-3.0615,-3.0604,-3.0629,-3.0653,-3.0661,-3.0695,-3.0703,-3.073,-3.073,-3.0745,-3.0763,-3.0788,-3.788,-3.8153,-3.8303,-3.8273,-3.7948,-3.6687,-3.5937,-3.5524,-3.4167,-3.3528,-3.3433,-3.3286,-3.3274,-3.3364,-3.3316,-3.3345,-3.3462,-3.3549,-3.3633,-3.3643,-3.3698,-3.3625,-3.3295,-3.2826,-3.1751,-3.0423,-3.0028,-2.9646,-2.9248,-2.92,-2.9262,-2.9323,-2.9323,-2.9365,-2.9368,-2.9109,-2.8775,-2.803,-2.7083,-2.6284,-2.5708,-2.4908,-2.4518,-2.45,-2.45,-2.45,-2.45,-2.45,-2.45,-2.45,-2.45,-2.45,-2.45,-2.45,-2.45,-2.45,-2.45,-2.45,-2.4498,-2.4498,-2.4498,-2.4534,-2.4532,-2.4512,-2.4528,-2.4566,-2.4601,-2.4599,-2.4601,-2.4787,-2.5363,-2.5679,-2.6373,-2.7331,-2.8056,-2.8859,-2.9954,-3.0359,-3.0439,-3.0519,-3.052,-3.055,-3.0588,-3.0617,-3.0598,-3.0617,-3.0617,-3.0617,-3.0617,-3.0617,-3.0617,-3.0617,-3.0617,-3.0617,-3.0617,-3.0617,-3.0617,-3.0617,-3.0617,-3.0617,-3.0598,-3.0607,-3.0616,-3.0597,-3.0615,-3.0613,-3.0629,-3.0645,-3.068,-3.0695,-3.069,-3.0698,-3.0722,-3.0755,-3.0763,-3.7685,-3.7985,-3.8122,-3.8238,-3.8085,-3.6594,-3.5903,-3.5666,-3.4033,-3.3304,-3.3244,-3.2993,-3.2979,-3.3042,-3.2961,-3.3011,-3.3086,-3.3226,-3.3298,-3.3415,-3.3615,-3.368,-3.3579,-3.2963,-3.1935,-3.0797,-3.0362,-2.9816,-2.9081,-2.9067,-2.9134,-2.9197,-2.9218,-2.928,-2.9326,-2.9307,-2.901,-2.8456,-2.7453,-2.6618,-2.6005,-2.5076,-2.45,-2.45,-2.45,-2.45,-2.45,-2.45,-2.45,-2.45,-2.45,-2.45,-2.45,-2.45,-2.45,-2.45,-2.45,-2.45,-2.45,-2.45,-2.45,-2.45,-2.4515,-2.4497,-2.4497,-2.4534,-2.4569,-2.4568,-2.4549,-2.4903,-2.5629,-2.6131,-2.6703,-2.7627,-2.8285,-2.9106,-2.9931,-3.0248,-3.0364,-3.0428,-3.046,-3.05,-3.055,-3.0559,-3.0569,-3.0598,-3.0617,-3.0617,-3.0617,-3.0617,-3.0617,-3.0617,-3.0617,-3.0617,-3.0617,-3.0617,-3.0617,-3.0617,-3.0617,-3.0617,-3.0617,-3.0617,-3.0607,-3.0607,-3.0616,-3.0615,-3.0632,-3.064,-3.0657,-3.0653,-3.0668,-3.0671,-3.0691,-3.0724,-3.0759,-3.7521,-3.7864,-3.7933,-3.7964,-3.7727,-3.6349,-3.5648,-3.534,-3.3831,-3.3073,-3.2993,-3.2752,-3.2687,-3.2669,-3.2621,-3.2606,-3.2639,-3.2834,-3.2961,-3.3129,-3.3444,-3.3634,-3.357,-3.3046,-3.2294,-3.1433,-3.0613,-2.9844,-2.919,-2.8983,-2.8952,-2.9044,-2.9067,-2.9112,-2.9156,-2.9178,-2.92,-2.8926,-2.7668,-2.6931,-2.6729,-2.5374,-2.452,-2.4483,-2.4482,-2.4482,-2.4465,-2.4465,-2.4482,-2.45,-2.45,-2.45,-2.45,-2.45,-2.45,-2.45,-2.45,-2.45,-2.45,-2.45,-2.45,-2.45,-2.45,-2.45,-2.45,-2.45,-2.4535,-2.4517,-2.4515,-2.4905,-2.5799,-2.6505,-2.7362,-2.8184,-2.861,-2.9155,-2.9918,-3.0122,-3.0209,-3.034,-3.0386,-3.0409,-3.049,-3.05,-3.055,-3.0588,-3.0598,-3.0617,-3.0617,-3.0617,-3.0617,-3.0617,-3.0617,-3.0617,-3.0617,-3.0617,-3.0617,-3.0617,-3.0617,-3.0617,-3.0617,-3.0617,-3.0617,-3.0617,-3.0607,-3.0616,-3.0606,-3.0623,-3.0632,-3.0629,-3.0645,-3.0634,-3.0668,-3.069,-3.073,-3.7164,-3.7337,-3.7613,-3.7345,-3.6666,-3.5683,-3.4916,-3.4242,-3.3166,-3.269,-3.2623,-3.2438,-3.2352,-3.2386,-3.2335,-3.2335,-3.2438,-3.2654,-3.2816,-3.2961,-3.3316,-3.3502,-3.3597,-3.3424,-3.2876,-3.209,-3.1224,-3.0487,-2.9678,-2.9034,-2.8761,-2.8791,-2.8858,-2.8905,-2.8975,-2.9021,-2.9062,-2.8952,-2.8107,-2.7227,-2.6604,-2.5723,-2.4856,-2.4303,-2.4339,-2.4358,-2.4358,-2.4339,-2.4393,-2.45,-2.45,-2.45,-2.45,-2.45,-2.45,-2.45,-2.45,-2.45,-2.45,-2.45,-2.45,-2.45,-2.45,-2.45,-2.45,-2.45,-2.45,-2.45,-2.4535,-2.5093,-2.6284,-2.686,-2.7643,-2.8857,-2.9195,-2.9433,-2.9777,-2.9934,-3.0011,-3.0147,-3.0215,-3.0292,-3.0383,-3.0458,-3.0509,-3.052,-3.0559,-3.0598,-3.0588,-3.0617,-3.0617,-3.0617,-3.0617,-3.0617,-3.0617,-3.0617,-3.0617,-3.0617,-3.0617,-3.0617,-3.0617,-3.0617,-3.0617,-3.0617,-3.0617,-3.0607,-3.0616,-3.0606,-3.0615,-3.0604,-3.0613,-3.0629,-3.0637,-3.0661,-3.0703,-3.6908,-3.6992,-3.7241,-3.6856,-3.604,-3.526,-3.4429,-3.3617,-3.2756,-3.237,-3.2335,-3.2161,-3.2109,-3.2127,-3.2055,-3.2073,-3.2126,-3.2403,-3.2621,-3.2852,-3.3183,-3.3404,-3.352,-3.3549,-3.3148,-3.2292,-3.142,-3.0568,-2.9718,-2.8889,-2.8502,-2.8518,-2.8562,-2.8594,-2.8737,-2.881,-2.8858,-2.8759,-2.8178,-2.7523,-2.7068,-2.5933,-2.5219,-2.4651,-2.4449,-2.4247,-2.4247,-2.4247,-2.4303,-2.4412,-2.4447,-2.4482,-2.45,-2.45,-2.45,-2.45,-2.45,-2.45,-2.45,-2.45,-2.45,-2.45,-2.45,-2.45,-2.45,-2.45,-2.45,-2.45,-2.45,-2.5317,-2.6637,-2.7492,-2.8347,-2.9187,-2.9511,-2.9608,-2.9701,-2.9735,-2.9839,-2.9953,-3.0079,-3.018,-3.0305,-3.039,-3.0436,-3.0479,-3.052,-3.055,-3.0559,-3.0588,-3.0598,-3.0598,-3.0598,-3.0598,-3.0598,-3.0617,-3.0617,-3.0617,-3.0617,-3.0617,-3.0617,-3.0617,-3.0617,-3.0617,-3.0617,-3.0617,-3.0607,-3.0616,-3.0616,-3.0606,-3.0615,-3.0604,-3.0632,-3.0629,-3.0673,-3.6725,-3.6771,-3.6803,-3.6391,-3.5528,-3.4826,-3.3984,-3.3247,-3.2458,-3.2144,-3.2109,-3.1949,-3.193,-3.1913,-3.1893,-3.1837,-3.1819,-3.2197,-3.2454,-3.2737,-3.3091,-3.3352,-3.3393,-3.3375,-3.3002,-3.2256,-3.1258,-3.0445,-2.9625,-2.8681,-2.8154,-2.8201,-2.8174,-2.8282,-2.8414,-2.851,-2.8612,-2.8578,-2.8155,-2.7705,-2.7351,-2.6312,-2.5549,-2.5004,-2.4406,-2.4132,-2.4113,-2.4133,-2.4171,-2.421,-2.4321,-2.4412,-2.4465,-2.45,-2.4465,-2.4446,-2.4428,-2.4445,-2.4464,-2.4464,-2.45,-2.4482,-2.4482,-2.45,-2.45,-2.45,-2.4574,-2.476,-2.4648,-2.554,-2.6953,-2.844,-2.9128,-2.9407,-2.9427,-2.9467,-2.9546,-2.9569,-2.9626,-2.9751,-2.9888,-3.0015,-3.0133,-3.0241,-3.0304,-3.0371,-3.0428,-3.046,-3.0471,-3.051,-3.055,-3.0569,-3.0569,-3.0578,-3.0598,-3.0617,-3.0617,-3.0617,-3.0617,-3.0617,-3.0617,-3.0617,-3.0617,-3.0617,-3.0617,-3.0617,-3.0617,-3.0598,-3.0598,-3.0607,-3.0616,-3.0597,-3.0606,-3.0623,-3.0649,-3.6561,-3.6533,-3.6046,-3.5349,-3.4505,-3.3758,-3.2973,-3.2189,-3.1979,-3.1912,-3.1875,-3.1856,-3.1819,-3.1819,-3.1837,-3.18,-3.1837,-3.2108,-3.2438,-3.2916,-3.3152,-3.3152,-3.3073,-3.3073,-3.2903,-3.2273,-3.1135,-3.0368,-2.9786,-2.8665,-2.7847,-2.7847,-2.7893,-2.7979,-2.8109,-2.8191,-2.8246,-2.8273,-2.8164,-2.7769,-2.7345,-2.6916,-2.6056,-2.5032,-2.4251,-2.3891,-2.3816,-2.3858,-2.3837,-2.384,-2.4037,-2.4284,-2.4394,-2.434,-2.4247,-2.4247,-2.4264,-2.4281,-2.4284,-2.4356,-2.4409,-2.443,-2.4465,-2.45,-2.45,-2.4555,-2.4834,-2.5243,-2.5466,-2.6154,-2.7547,-2.8756,-2.9295,-2.9388,-2.9388,-2.9407,-2.9446,-2.9451,-2.9512,-2.9608,-2.9718,-2.9805,-2.9864,-3.0041,-3.0142,-3.0241,-3.0304,-3.0364,-3.0398,-3.0439,-3.0471,-3.052,-3.053,-3.055,-3.0598,-3.0617,-3.0617,-3.0617,-3.0617,-3.0617,-3.0617,-3.0617,-3.0617,-3.0617,-3.0617,-3.0617,-3.0617,-3.0617,-3.0617,-3.0617,-3.0617,-3.0607,-3.0616,-3.0606,-3.0623,-3.5866,-3.5814,-3.5134,-3.4332,-3.3585,-3.3152,-3.2527,-3.1886,-3.18,-3.18,-3.18,-3.18,-3.18,-3.18,-3.18,-3.18,-3.1893,-3.2179,-3.2539,-3.2884,-3.306,-3.2979,-3.277,-3.274,-3.2639,-3.2256,-3.09,-3.0201,-2.9681,-2.8553,-2.7617,-2.7582,-2.763,-2.7707,-2.7795,-2.7882,-2.795,-2.8017,-2.8045,-2.7814,-2.7504,-2.7068,-2.6229,-2.4819,-2.3955,-2.3553,-2.3576,-2.3598,-2.3616,-2.3638,-2.3747,-2.3994,-2.4209,-2.4171,-2.4074,-2.3996,-2.408,-2.4118,-2.4173,-2.421,-2.4284,-2.4321,-2.4375,-2.4411,-2.4577,-2.4798,-2.5224,-2.5671,-2.6098,-2.6804,-2.7956,-2.8866,-2.9314,-2.9388,-2.9388,-2.9388,-2.9388,-2.939,-2.9411,-2.951,-2.9569,-2.9645,-2.9715,-2.9869,-2.995,-3.0041,-3.0169,-3.0235,-3.0304,-3.034,-3.0428,-3.046,-3.049,-3.051,-3.0588,-3.0617,-3.0617,-3.0617,-3.0617,-3.0617,-3.0617,-3.0617,-3.0617,-3.0617,-3.0617,-3.0617,-3.0617,-3.0617,-3.0617,-3.0617,-3.0617,-3.0617,-3.0598,-3.0607,-3.0606,-3.5025,-3.4956,-3.4214,-3.3524,-3.2955,-3.2766,-3.2352,-3.1852,-3.18,-3.18,-3.18,-3.18,-3.18,-3.18,-3.18,-3.18,-3.1929,-3.2232,-3.2573,-3.2787,-3.2902,-3.2787,-3.2573,-3.2456,-3.2196,-3.1917,-3.0589,-2.9944,-2.9425,-2.832,-2.7487,-2.7452,-2.7438,-2.7483,-2.7557,-2.7647,-2.7689,-2.776,-2.7818,-2.7811,-2.7688,-2.7159,-2.6197,-2.4837,-2.3978,-2.3472,-2.3389,-2.336,-2.3383,-2.3424,-2.3448,-2.3611,-2.3789,-2.3915,-2.3873,-2.37,-2.3862,-2.3961,-2.4034,-2.4071,-2.4091,-2.4172,-2.4247,-2.4414,-2.4709,-2.5245,-2.5782,-2.6358,-2.6935,-2.766,-2.8253,-2.8942,-2.9351,-2.9388,-2.9388,-2.9388,-2.9388,-2.9388,-2.9407,-2.9427,-2.9471,-2.9532,-2.9589,-2.9698,-2.9769,-2.9872,-2.9996,-3.0099,-3.0174,-3.0241,-3.0316,-3.0386,-3.0428,-3.051,-3.0588,-3.0617,-3.0617,-3.0617,-3.0617,-3.0617,-3.0617,-3.0617,-3.0617,-3.0617,-3.0617,-3.0617,-3.0617,-3.0617,-3.0617,-3.0617,-3.0617,-3.0617,-3.0617,-3.0617,-3.0607,-3.4266,-3.4214,-3.3438,-3.3007,-3.28,-3.2265,-3.1938,-3.1817,-3.18,-3.18,-3.18,-3.18,-3.18,-3.18,-3.18,-3.1819,-3.1948,-3.2197,-3.2404,-3.259,-3.2707,-3.2623,-3.237,-3.2266,-3.1812,-3.0959,-3.0109,-2.9693,-2.9193,-2.8125,-2.7414,-2.7345,-2.733,-2.7376,-2.7407,-2.7469,-2.7496,-2.7557,-2.7569,-2.7582,-2.753,-2.7262,-2.6626,-2.5234,-2.4445,-2.3831,-2.3288,-2.3154,-2.3144,-2.3119,-2.3175,-2.3265,-2.3383,-2.3544,-2.3629,-2.3589,-2.37,-2.381,-2.3847,-2.3898,-2.3964,-2.4034,-2.4135,-2.4616,-2.5116,-2.5634,-2.6377,-2.7491,-2.8272,-2.8959,-2.9147,-2.9293,-2.9349,-2.9386,-2.9368,-2.9368,-2.9368,-2.9368,-2.9368,-2.9388,-2.9411,-2.9433,-2.9493,-2.9551,-2.9626,-2.9699,-2.9822,-2.9937,-3.0015,-3.009,-3.0169,-3.0279,-3.0375,-3.0479,-3.0588,-3.0598,-3.0617,-3.0617,-3.0617,-3.0617,-3.0617,-3.0617,-3.0617,-3.0588,-3.0588,-3.0588,-3.0598,-3.0588,-3.0588,-3.055,-3.0579,-3.0588,-3.0579,-3.055,-3.0559,-3.3355,-3.3343,-3.2569,-3.228,-3.2265,-3.1955,-3.18,-3.18,-3.18,-3.18,-3.18,-3.18,-3.18,-3.18,-3.18,-3.1819,-3.1948,-3.2091,-3.2232,-3.2353,-3.2439,-3.2387,-3.2197,-3.2091,-3.1497,-3.0733,-3.0007,-2.935,-2.8868,-2.7851,-2.7351,-2.7299,-2.7299,-2.733,-2.7345,-2.7345,-2.7376,-2.739,-2.739,-2.739,-2.7338,-2.7109,-2.6341,-2.5814,-2.5066,-2.4475,-2.4172,-2.3615,-2.358,-2.3562,-2.328,-2.313,-2.3168,-2.3241,-2.3383,-2.3407,-2.3504,-2.3571,-2.3634,-2.3683,-2.3736,-2.3894,-2.4036,-2.4538,-2.5354,-2.606,-2.7045,-2.8346,-2.8938,-2.9326,-2.9267,-2.9304,-2.9283,-2.9262,-2.9283,-2.9304,-2.9286,-2.9307,-2.9328,-2.9328,-2.937,-2.939,-2.9429,-2.9471,-2.9492,-2.9551,-2.9664,-2.9754,-2.9857,-2.9937,-3.0041,-3.0222,-3.0352,-3.0449,-3.055,-3.0579,-3.0588,-3.0588,-3.0588,-3.0588,-3.0579,-3.0569,-3.054,-3.053,-3.054,-3.054,-3.055,-3.054,-3.051,-3.05,-3.049,-3.0509,-3.049,-3.05,-3.051,-3.2427,-3.2488,-3.1854,-3.1634,-3.1726,-3.1743,-3.1763,-3.1746,-3.1746,-3.1763,-3.18,-3.18,-3.18,-3.18,-3.18,-3.1819,-3.1894,-3.202,-3.2091,-3.2126,-3.2179,-3.2144,-3.2055,-3.1826,-3.1391,-3.0335,-2.9851,-2.9127,-2.8472,-2.7678,-2.7368,-2.7299,-2.7299,-2.7299,-2.7299,-2.733,-2.7299,-2.7299,-2.7299,-2.7299,-2.7126,-2.6713,-2.623,-2.6079,-2.5505,-2.5172,-2.4867,-2.4434,-2.4091,-2.3911,-2.358,-2.3187,-2.313,-2.3119,-2.3151,-2.323,-2.3271,-2.3376,-2.3435,-2.3499,-2.3571,-2.375,-2.4078,-2.475,-2.5737,-2.6834,-2.7953,-2.9068,-2.9302,-2.9218,-2.9156,-2.9115,-2.9112,-2.9089,-2.9112,-2.9156,-2.916,-2.9203,-2.9225,-2.9246,-2.9326,-2.9368,-2.9368,-2.9409,-2.9431,-2.9433,-2.955,-2.9626,-2.9718,-2.9805,-2.9934,-3.0169,-3.0328,-3.0439,-3.051,-3.055,-3.055,-3.054,-3.054,-3.054,-3.053,-3.05,-3.0479,-3.0458,-3.0417,-3.0406,-3.0439,-3.0449,-3.0428,-3.0406,-3.0394,-3.0402,-3.0414,-3.0406,-3.0417,-3.1654,-3.1654,-3.1551,-3.15,-3.1555,-3.1555,-3.1576,-3.1617,-3.1634,-3.1709,-3.18,-3.18,-3.18,-3.18,-3.18,-3.18,-3.1856,-3.1875,-3.1948,-3.1984,-3.2037,-3.2037,-3.1948,-3.1894,-3.0992,-3.0024,-2.961,-2.9075,-2.8316,-2.7575,-2.7316,-2.7299,-2.7299,-2.7299,-2.7299,-2.7299,-2.7299,-2.7299,-2.7299,-2.7299,-2.7282,-2.7144,-2.673,-2.6316,-2.6023,-2.5747,-2.5362,-2.5017,-2.47,-2.4133,-2.3908,-2.3563,-2.3185,-2.2995,-2.302,-2.3119,-2.3223,-2.3319,-2.3407,-2.3412,-2.357,-2.3871,-2.4407,-2.536,-2.6484,-2.7832,-2.8918,-2.9153,-2.9215,-2.9108,-2.9021,-2.891,-2.8887,-2.8887,-2.891,-2.8962,-2.8993,-2.9026,-2.903,-2.9071,-2.913,-2.924,-2.9326,-2.9347,-2.9388,-2.9409,-2.945,-2.9511,-2.9589,-2.9699,-2.9872,-3.0118,-3.0279,-3.0394,-3.0439,-3.049,-3.0509,-3.049,-3.0479,-3.0479,-3.0458,-3.0417,-3.0371,-3.0348,-3.0304,-3.0279,-3.0323,-3.0355,-3.0336,-3.0323,-3.0299,-3.0305,-3.0305,-3.0311,-3.0304,-3.1346,-3.1389,-3.1389,-3.1423,-3.1479,-3.15,-3.1517,-3.1538,-3.1538,-3.1614,-3.1671,-3.1671,-3.1726,-3.18,-3.18,-3.18,-3.1783,-3.1819,-3.1856,-3.1839,-3.1893,-3.191,-3.1856,-3.177,-3.1008,-2.9851,-2.9368,-2.8782,-2.804,-2.754,-2.7299,-2.7299,-2.7299,-2.7299,-2.7299,-2.7299,-2.7299,-2.7299,-2.7299,-2.7299,-2.7299,-2.7282,-2.7126,-2.6782,-2.6747,-2.654,-2.6264,-2.5781,-2.5552,-2.5011,-2.4538,-2.3588,-2.3153,-2.2944,-2.2944,-2.2977,-2.3067,-2.3182,-2.3336,-2.3348,-2.369,-2.4198,-2.4807,-2.5605,-2.7046,-2.8381,-2.9262,-2.9197,-2.9062,-2.8952,-2.8858,-2.8761,-2.8694,-2.8694,-2.8694,-2.8755,-2.8785,-2.8821,-2.8858,-2.89,-2.8923,-2.9062,-2.9197,-2.9262,-2.9326,-2.9407,-2.9409,-2.9433,-2.9551,-2.9681,-2.9872,-3.0098,-3.0221,-3.0355,-3.0371,-3.0394,-3.0425,-3.0414,-3.0383,-3.0383,-3.034,-3.0316,-3.0267,-3.0247,-3.0207,-3.0207,-3.0259,-3.024,-3.0234,-3.0207,-3.0194,-3.018,-3.0199,-3.018,-3.0188,-3.1213,-3.1274,-3.1274,-3.1329,-3.1423,-3.144,-3.1423,-3.1445,-3.1462,-3.1483,-3.1559,-3.1579,-3.1671,-3.1746,-3.18,-3.18,-3.18,-3.18,-3.18,-3.18,-3.18,-3.18,-3.18,-3.1696,-3.1007,-2.9523,-2.9506,-2.8713,-2.7764,-2.7299,-2.7299,-2.7299,-2.7299,-2.7299,-2.7299,-2.7299,-2.7299,-2.7299,-2.7299,-2.7299,-2.7299,-2.7299,-2.7299,-2.7264,-2.7299,-2.7299,-2.7195,-2.6782,-2.6433,-2.5858,-2.5201,-2.4296,-2.3553,-2.3293,-2.3319,-2.3328,-2.3282,-2.3242,-2.3523,-2.3737,-2.4029,-2.4599,-2.5463,-2.6413,-2.7771,-2.8776,-2.9115,-2.904,-2.891,-2.8767,-2.8662,-2.8562,-2.851,-2.8484,-2.851,-2.8533,-2.8565,-2.8601,-2.8648,-2.8677,-2.8735,-2.8834,-2.8975,-2.9108,-2.9218,-2.9365,-2.9388,-2.9392,-2.9474,-2.9607,-2.9769,-2.9988,-3.0123,-3.0221,-3.0228,-3.0267,-3.0299,-3.033,-3.0286,-3.0254,-3.0228,-3.0202,-3.018,-3.0138,-3.0094,-3.0079,-3.0098,-3.0113,-3.0142,-3.0109,-3.0079,-3.0064,-3.0064,-3.0064,-3.0094,-3.119,-3.1173,-3.119,-3.123,-3.1247,-3.123,-3.1252,-3.1295,-3.1295,-3.1406,-3.15,-3.1559,-3.1596,-3.1634,-3.1726,-3.1763,-3.1817,-3.18,-3.1763,-3.1763,-3.18,-3.18,-3.18,-3.1593,-3.1041,-2.973,-2.9489,-2.8678,-2.7644,-2.7299,-2.7299,-2.7299,-2.7299,-2.7299,-2.7299,-2.7299,-2.7299,-2.7299,-2.7299,-2.7299,-2.7299,-2.7299,-2.7299,-2.7299,-2.7299,-2.7299,-2.7282,-2.7144,-2.6851,-2.6312,-2.5833,-2.5419,-2.4568,-2.3981,-2.3994,-2.4155,-2.3659,-2.3727,-2.4083,-2.4222,-2.4396,-2.5013,-2.6056,-2.7332,-2.8318,-2.8764,-2.8952,-2.8852,-2.8694,-2.8601,-2.844,-2.8327,-2.8318,-2.8327,-2.8371,-2.838,-2.8414,-2.8414,-2.846,-2.8506,-2.8576,-2.8656,-2.881,-2.8952,-2.9152,-2.9283,-2.9386,-2.939,-2.9434,-2.9551,-2.9681,-2.9841,-3.0003,-3.006,-3.0056,-3.0085,-3.0133,-3.0152,-3.0118,-3.0123,-3.0113,-3.0083,-3.0068,-3.0034,-3.0003,-2.9956,-2.994,-3.0007,-3.0038,-2.9988,-2.9972,-2.9988,-2.9988,-2.9988,-3.0019,-3.1151,-3.119,-3.119,-3.119,-3.119,-3.119,-3.123,-3.1252,-3.1252,-3.1291,-3.1406,-3.1483,-3.1538,-3.1538,-3.1576,-3.1614,-3.1614,-3.1631,-3.1614,-3.1651,-3.1651,-3.1671,-3.1691,-3.1522,-3.1024,-2.9799,-2.9437,-2.8747,-2.7437,-2.7316,-2.7299,-2.7299,-2.7299,-2.7299,-2.7299,-2.7299,-2.7299,-2.7299,-2.7299,-2.7299,-2.7299,-2.7299,-2.7299,-2.7299,-2.7299,-2.7299,-2.7299,-2.7299,-2.7092,-2.6799,-2.6385,-2.6074,-2.5781,-2.5057,-2.4867,-2.5147,-2.4503,-2.4497,-2.4681,-2.4769,-2.4848,-2.61,-2.7155,-2.8021,-2.85,-2.8718,-2.8737,-2.8612,-2.8484,-2.8362,-2.8353,-2.8264,-2.8209,-2.8237,-2.8237,-2.8264,-2.8291,-2.8318,-2.8336,-2.838,-2.8416,-2.8458,-2.8619,-2.8791,-2.8998,-2.92,-2.9304,-2.9388,-2.9433,-2.9474,-2.9589,-2.9663,-2.9822,-2.9924,-2.9921,-2.9953,-2.9984,-2.9984,-2.9988,-2.9972,-2.9991,-2.9994,-2.9959,-2.9943,-2.994,-2.9924,-2.9924,-2.9924,-2.994,-2.994,-2.994,-2.9924,-2.9924,-2.994,-3.0007,-3.1055,-3.1151,-3.1151,-3.1151,-3.119,-3.119,-3.119,-3.119,-3.119,-3.1213,-3.1274,-3.1368,-3.1462,-3.1462,-3.1517,-3.1517,-3.15,-3.15,-3.15,-3.1538,-3.1576,-3.1559,-3.1596,-3.1465,-3.0952,-2.9799,-2.9386,-2.8747,-2.7351,-2.7316,-2.7299,-2.7299,-2.7299,-2.7299,-2.7299,-2.7299,-2.7299,-2.7299,-2.7299,-2.7299,-2.7299,-2.7299,-2.7299,-2.7299,-2.7299,-2.7299,-2.7299,-2.7299,-2.7299,-2.7092,-2.6885,-2.6833,-2.6609,-2.6264,-2.572,-2.5623,-2.5536,-2.5279,-2.5397,-2.5524,-2.5746,-2.6959,-2.7583,-2.8057,-2.8255,-2.844,-2.8406,-2.838,-2.8264,-2.8209,-2.8246,-2.8209,-2.8182,-2.8209,-2.8209,-2.8237,-2.8237,-2.8264,-2.8264,-2.8282,-2.8327,-2.8406,-2.8619,-2.8815,-2.9067,-2.924,-2.9326,-2.9388,-2.939,-2.9433,-2.9474,-2.9551,-2.9626,-2.9718,-2.979,-2.9823,-2.9839,-2.9876,-2.9859,-2.9857,-2.9876,-2.9859,-2.9895,-2.991,-2.9926,-2.9907,-2.9907,-2.9924,-2.9924,-2.9907,-2.9907,-2.9907,-2.9975,-2.9991,-3.0038,-3.0975,-3.1032,-3.1032,-3.1072,-3.1151,-3.119,-3.1207,-3.1151,-3.1151,-3.119,-3.119,-3.1274,-3.1295,-3.1312,-3.1385,-3.1385,-3.1423,-3.1423,-3.1479,-3.1479,-3.1462,-3.1517,-3.1487,-3.1302,-3.0707,-2.9712,-2.918,-2.8458,-2.7267,-2.7218,-2.7267,-2.7299,-2.7299,-2.7299,-2.7299,-2.7299,-2.7299,-2.7299,-2.7299,-2.7299,-2.7299,-2.7299,-2.7299,-2.7299,-2.7299,-2.7299,-2.7299,-2.7299,-2.7299,-2.723,-2.7195,-2.7161,-2.7109,-2.6575,-2.6208,-2.6217,-2.5651,-2.5652,-2.619,-2.6465,-2.6961,-2.7518,-2.7858,-2.7979,-2.8071,-2.8099,-2.8109,-2.8154,-2.8154,-2.8182,-2.8182,-2.8182,-2.8182,-2.8182,-2.8182,-2.8182,-2.8209,-2.8264,-2.8246,-2.8327,-2.838,-2.8476,-2.8662,-2.8863,-2.9134,-2.9283,-2.9368,-2.9388,-2.9388,-2.9411,-2.9433,-2.9453,-2.9512,-2.9551,-2.9645,-2.9682,-2.9718,-2.9738,-2.9756,-2.9755,-2.9771,-2.9789,-2.9823,-2.9876,-2.9876,-2.9857,-2.9891,-2.9907,-2.9907,-2.991,-2.9907,-2.9924,-2.9991,-3.0038,-3.0083,-3.0773,-3.0935,-3.0952,-3.0952,-3.0992,-3.1009,-3.0992,-3.0992,-3.0975,-3.0992,-3.0992,-3.1015,-3.1055,-3.1038,-3.1134,-3.119,-3.119,-3.1269,-3.1286,-3.1325,-3.1346,-3.1368,-3.1287,-3.0848,-3.0202,-2.9348,-2.875,-2.8083,-2.7089,-2.704,-2.7105,-2.7169,-2.7218,-2.7299,-2.7299,-2.7299,-2.7299,-2.7299,-2.7299,-2.7299,-2.7299,-2.7299,-2.7299,-2.7299,-2.7299,-2.7299,-2.7299,-2.7299,-2.7299,-2.7299,-2.7299,-2.7299,-2.7299,-2.6851,-2.6899,-2.6899,-2.654,-2.6674,-2.7005,-2.7165,-2.7308,-2.7642,-2.7754,-2.7795,-2.7806,-2.7836,-2.7882,-2.7986,-2.8042,-2.8053,-2.8109,-2.8126,-2.8144,-2.8182,-2.8182,-2.8182,-2.8209,-2.8246,-2.8282,-2.8388,-2.8466,-2.8687,-2.8881,-2.8998,-2.9218,-2.9304,-2.9368,-2.9388,-2.9388,-2.9388,-2.939,-2.9409,-2.9431,-2.9451,-2.9491,-2.97,-2.9795,-2.987,-2.9777,-2.9682,-2.9682,-2.9775,-2.9753,-2.9825,-2.9825,-2.9806,-2.9841,-2.9874,-2.9893,-2.991,-2.9891,-2.994,-3.0007,-3.0049,-3.009,-3.0551,-3.0733,-3.0773,-3.0733,-3.0716,-3.0773,-3.0831,-3.079,-3.0773,-3.079,-3.0733,-3.0749,-3.079,-3.0814,-3.0855,-3.0975,-3.0975,-3.1055,-3.119,-3.119,-3.1252,-3.1048,-3.0709,-3.0306,-2.9593,-2.8812,-2.813,-2.7504,-2.6826,-2.6809,-2.6859,-2.6957,-2.7055,-2.7072,-2.7154,-2.7235,-2.7299,-2.7299,-2.7299,-2.7299,-2.7299,-2.7299,-2.7299,-2.7299,-2.7299,-2.7299,-2.7299,-2.7299,-2.7299,-2.7299,-2.7299,-2.7299,-2.7299,-2.7299,-2.7299,-2.7299,-2.7299,-2.7282,-2.7327,-2.7359,-2.7417,-2.7513,-2.7557,-2.763,-2.7672,-2.773,-2.7795,-2.7871,-2.7882,-2.7968,-2.8025,-2.8042,-2.8116,-2.8126,-2.8154,-2.8172,-2.8209,-2.8246,-2.8362,-2.8466,-2.8619,-2.8839,-2.9067,-2.9175,-2.9283,-2.9326,-2.9388,-2.9388,-2.9388,-2.9388,-2.9388,-2.9388,-2.9388,-2.9411,-2.9599,-2.988,-2.9978,-2.9999,-2.9944,-2.9888,-2.9889,-3.0021,-2.9888,-2.9754,-2.9754,-2.9771,-2.9789,-2.9842,-2.9895,-2.9893,-2.991,-2.9959,-3.0022,-3.0079,-3.0152,-3.0368,-3.0468,-3.0485,-3.041,-3.0351,-3.0493,-3.0568,-3.0468,-3.0468,-3.0468,-3.0468,-3.0468,-3.0526,-3.0651,-3.0692,-3.0773,-3.0952,-3.0975,-3.0971,-3.1016,-3.0954,-3.0504,-3.0082,-2.9677,-2.8864,-2.8068,-2.7372,-2.69,-2.6434,-2.6504,-2.659,-2.6657,-2.6725,-2.6775,-2.6909,-2.7057,-2.7186,-2.725,-2.725,-2.7282,-2.7299,-2.7299,-2.7299,-2.7299,-2.7299,-2.7299,-2.7299,-2.7299,-2.7299,-2.7299,-2.7299,-2.7299,-2.7299,-2.7299,-2.7299,-2.7299,-2.7299,-2.7299,-2.7299,-2.733,-2.7362,-2.7438,-2.7513,-2.76,-2.7642,-2.7672,-2.7748,-2.7766,-2.7795,-2.7882,-2.794,-2.7986,-2.8014,-2.8071,-2.8116,-2.8154,-2.8209,-2.83,-2.8432,-2.8543,-2.8737,-2.8929,-2.9156,-2.9283,-2.9323,-2.9347,-2.9388,-2.9388,-2.9388,-2.9388,-2.9388,-2.9388,-2.9388,-2.939,-2.9613,-2.9969,-3.0251,-3.0312,-3.0426,-3.0409,-3.0354,-3.0113,-2.9833,-2.9664,-2.9681,-2.9717,-2.9755,-2.9827,-2.9878,-2.9876,-2.9893,-2.9959,-3.0007,-3.0113,-3.0199,-2.9913,-3.0027,-3.0027,-2.9984,-2.9924,-2.9853,-2.987,-2.9853,-2.9853,-2.9897,-3.0011,-2.9984,-3.0087,-3.0231,-3.0326,-3.0477,-3.0658,-3.0771,-3.0549,-3.046,-3.0263,-2.9736,-2.9139,-2.849,-2.7848,-2.7251,-2.6693,-2.6253,-2.6112,-2.6173,-2.6227,-2.628,-2.6315,-2.6453,-2.6572,-2.6725,-2.6908,-2.707,-2.712,-2.7201,-2.725,-2.7282,-2.7282,-2.7299,-2.7299,-2.7299,-2.7299,-2.7299,-2.7299,-2.7299,-2.7299,-2.7299,-2.7299,-2.7299,-2.7299,-2.7299,-2.7299,-2.7299,-2.7299,-2.7299,-2.733,-2.7376,-2.7438,-2.7483,-2.7557,-2.763,-2.7689,-2.7689,-2.7689,-2.7748,-2.7824,-2.79,-2.7975,-2.806,-2.8088,-2.8126,-2.8182,-2.8273,-2.8406,-2.8569,-2.8761,-2.8998,-2.9222,-2.9304,-2.9347,-2.9368,-2.9388,-2.9388,-2.9388,-2.9388,-2.9388,-2.9388,-2.9388,-2.9388,-2.9667,-3.0002,-3.0379,-3.0642,-3.0681,-3.0665,-3.0501,-3.0205,-2.9756,-2.9683,-2.987,-2.9833,-2.9738,-2.9774,-2.9825,-2.9842,-2.9859,-2.9943,-3.0022,-3.0132,-3.0204,-2.8758,-2.8812,-2.8812,-2.8725,-2.8562,-2.8402,-2.8357,-2.8465,-2.9064,-2.9454,-2.9499,-2.9499,-2.9605,-2.9761,-2.9691,-2.9739,-3.0005,-2.9809,-2.9627,-2.9542,-2.9391,-2.8774,-2.8077,-2.7462,-2.6982,-2.6433,-2.5951,-2.5594,-2.5605,-2.5663,-2.5721,-2.5742,-2.5888,-2.5977,-2.6066,-2.6173,-2.6367,-2.6657,-2.6858,-2.7087,-2.7152,-2.7233,-2.7233,-2.7282,-2.7299,-2.7299,-2.7299,-2.7299,-2.7299,-2.7299,-2.7299,-2.7299,-2.7299,-2.7299,-2.7299,-2.7299,-2.7299,-2.7299,-2.7299,-2.7299,-2.733,-2.7345,-2.7345,-2.7376,-2.7452,-2.7526,-2.7557,-2.7587,-2.76,-2.7659,-2.7707,-2.7783,-2.7917,-2.805,-2.806,-2.8099,-2.8182,-2.8246,-2.8388,-2.8594,-2.8815,-2.9048,-2.9222,-2.9304,-2.9368,-2.9368,-2.9388,-2.9388,-2.9388,-2.9388,-2.9388,-2.9388,-2.9388,-2.9407,-2.9723,-3.002,-3.0413,-3.0637,-3.0637,-3.0605,-3.0516,-3.0256,-2.9828,-2.9905,-3.015,-3.0132,-3.0152,-2.9795,-2.9735,-2.9771,-2.9825,-2.9876,-2.9959,-3.0053,-3.0142,-2.7169,-2.7328,-2.7248,-2.7146,-2.6704,-2.6678,-2.6634,-2.6665,-2.8151,-2.8886,-2.8823,-2.8854,-2.8926,-2.8894,-2.8732,-2.8793,-2.8911,-2.8864,-2.8721,-2.8557,-2.8557,-2.8027,-2.7255,-2.6895,-2.6287,-2.5609,-2.5201,-2.5107,-2.5045,-2.5107,-2.5246,-2.5153,-2.5269,-2.5384,-2.5551,-2.5642,-2.5795,-2.6068,-2.6453,-2.6708,-2.6973,-2.7103,-2.7135,-2.7233,-2.7282,-2.7299,-2.7299,-2.7299,-2.7299,-2.7299,-2.7299,-2.7299,-2.7299,-2.7299,-2.7299,-2.7299,-2.7299,-2.7299,-2.7299,-2.7299,-2.7299,-2.733,-2.7299,-2.733,-2.7376,-2.7421,-2.7452,-2.7483,-2.7496,-2.7539,-2.7617,-2.7677,-2.7783,-2.7946,-2.8014,-2.8099,-2.8182,-2.8246,-2.8388,-2.8569,-2.8743,-2.898,-2.9138,-2.9222,-2.9304,-2.9347,-2.9388,-2.9388,-2.9388,-2.9388,-2.9388,-2.9388,-2.9388,-2.9425,-2.963,-2.9965,-3.0429,-3.0615,-3.0615,-3.0618,-3.0586,-3.0269,-2.9899,-3.035,-3.0858,-3.0767,-3.0656,-3.0283,-2.9907,-2.9698,-2.9753,-2.9806,-2.9893,-2.9991,-3.0053,-2.682,-2.6863,-2.682,-2.6717,-2.6585,-2.6525,-2.6437,-2.6425,-2.6808,-2.7159,-2.7232,-2.7293,-2.7428,-2.762,-2.7646,-2.774,-2.7924,-2.7935,-2.7877,-2.7677,-2.7603,-2.7177,-2.6237,-2.6037,-2.5538,-2.5171,-2.4855,-2.4766,-2.4686,-2.4766,-2.4886,-2.4926,-2.495,-2.5068,-2.5146,-2.5201,-2.5362,-2.5572,-2.5795,-2.6279,-2.6657,-2.6892,-2.7007,-2.7087,-2.7152,-2.7201,-2.725,-2.7299,-2.7299,-2.7299,-2.7299,-2.7299,-2.7299,-2.7299,-2.7299,-2.7299,-2.7299,-2.7299,-2.7299,-2.7299,-2.7299,-2.7299,-2.7299,-2.7299,-2.733,-2.7345,-2.7376,-2.7407,-2.7421,-2.7483,-2.7526,-2.7587,-2.7677,-2.7824,-2.7986,-2.8099,-2.8182,-2.8273,-2.8362,-2.8518,-2.8669,-2.8839,-2.9003,-2.9134,-2.924,-2.9304,-2.9368,-2.9388,-2.9388,-2.9388,-2.9388,-2.9388,-2.9388,-2.9463,-2.9611,-2.9834,-3.0262,-3.0559,-3.0615,-3.0615,-3.0692,-3.0767,-3.0844,-3.1297,-3.1616,-3.1472,-3.1175,-3.0748,-3.0377,-2.9907,-2.9699,-2.9736,-2.979,-2.9876,-2.9943,-2.5656,-2.5641,-2.5641,-2.5598,-2.5555,-2.5512,-2.5484,-2.5456,-2.5472,-2.5543,-2.5768,-2.6231,-2.6585,-2.6592,-2.6635,-2.6729,-2.6969,-2.6948,-2.6852,-2.6702,-2.6652,-2.6274,-2.5756,-2.5416,-2.5139,-2.4791,-2.4589,-2.4482,-2.4441,-2.4482,-2.4564,-2.462,-2.4686,-2.4726,-2.4782,-2.4831,-2.495,-2.5107,-2.5246,-2.561,-2.6139,-2.6418,-2.6691,-2.6825,-2.694,-2.704,-2.7105,-2.7186,-2.7201,-2.7233,-2.7282,-2.7299,-2.7299,-2.7299,-2.7299,-2.7299,-2.7299,-2.7299,-2.7299,-2.7299,-2.7299,-2.7299,-2.7299,-2.7299,-2.7299,-2.733,-2.733,-2.7362,-2.7362,-2.7407,-2.7496,-2.7557,-2.7694,-2.7842,-2.7946,-2.8032,-2.8116,-2.8209,-2.83,-2.8406,-2.8536,-2.8644,-2.8815,-2.9003,-2.9112,-2.9262,-2.9326,-2.9368,-2.9368,-2.9368,-2.9368,-2.9388,-2.9388,-2.9388,-2.9463,-2.9704,-3.0039,-3.0318,-3.0634,-3.095,-3.1191,-3.1582,-3.192,-3.224,-3.2318,-3.2061,-3.1731,-3.1173,-3.043,-2.9795,-2.9683,-2.9664,-2.9737,-2.9773,-2.9842,-2.4364,-2.4302,-2.4333,-2.4333,-2.4317,-2.4333,-2.4364,-2.4364,-2.4348,-2.4364,-2.4533,-2.5638,-2.6114,-2.6016,-2.5835,-2.591,-2.5998,-2.6018,-2.5859,-2.5979,-2.5999,-2.5766,-2.554,-2.5224,-2.4886,-2.4605,-2.44,-2.4359,-2.4317,-2.4359,-2.4359,-2.4302,-2.4317,-2.4359,-2.4441,-2.4498,-2.462,-2.4766,-2.491,-2.5052,-2.5422,-2.5885,-2.6243,-2.6504,-2.6691,-2.6826,-2.6909,-2.6957,-2.7038,-2.7135,-2.7233,-2.7282,-2.7299,-2.7299,-2.7299,-2.7299,-2.7299,-2.7299,-2.7299,-2.7299,-2.7299,-2.7299,-2.7299,-2.7299,-2.7299,-2.7299,-2.7299,-2.7299,-2.7299,-2.7345,-2.7452,-2.7526,-2.7694,-2.7859,-2.7888,-2.7946,-2.806,-2.8126,-2.8209,-2.8273,-2.8353,-2.844,-2.8619,-2.8839,-2.898,-2.9134,-2.9243,-2.9304,-2.9365,-2.9365,-2.9365,-2.9386,-2.9386,-2.9386,-2.9388,-2.9797,-3.0169,-3.0466,-3.0857,-3.1284,-3.1712,-3.2139,-3.2585,-3.305,-3.3036,-3.2705,-3.2076,-3.143,-3.0632,-2.9775,-2.9626,-2.9608,-2.9664,-2.9701,-2.9718,-2.4302,-2.4302,-2.4302,-2.4302,-2.4302,-2.4302,-2.4302,-2.4302,-2.4302,-2.4302,-2.4379,-2.4456,-2.4729,-2.4744,-2.4777,-2.4936,-2.5298,-2.5272,-2.5464,-2.5654,-2.5712,-2.5481,-2.5182,-2.4974,-2.4686,-2.4482,-2.4317,-2.4317,-2.4302,-2.4302,-2.4302,-2.4302,-2.4302,-2.4317,-2.4317,-2.4359,-2.4441,-2.4564,-2.4605,-2.471,-2.5005,-2.5416,-2.5868,-2.6085,-2.621,-2.6436,-2.6624,-2.6775,-2.6906,-2.7068,-2.7215,-2.7282,-2.7299,-2.7299,-2.7299,-2.7299,-2.7299,-2.7299,-2.7299,-2.7299,-2.7299,-2.7299,-2.7299,-2.7299,-2.7299,-2.7299,-2.7299,-2.7299,-2.733,-2.7376,-2.7452,-2.7465,-2.7604,-2.7783,-2.79,-2.7975,-2.8014,-2.8042,-2.8053,-2.8109,-2.8136,-2.8273,-2.8406,-2.8569,-2.8761,-2.8905,-2.9067,-2.9152,-2.9197,-2.924,-2.9302,-2.9323,-2.9344,-2.9386,-2.9407,-3.0076,-3.0485,-3.0764,-3.1244,-3.2005,-3.2525,-3.2711,-3.3138,-3.3547,-3.3589,-3.3334,-3.2631,-3.1592,-3.0758,-2.9978,-2.9661,-2.955,-2.9589,-2.9645,-2.9682]}]]